[[{"header":{"parameterUnit":"m.s-1","parameterCategory":1,"la1":31.0,"la2":29.5877,"lo1":-88.7671,"lo2":-86.6584,"dy":0.0162,"dx":0.0185,"nx":115,"ny":88,"refTime":"2023-08-12T06:00:00:Z","depth":0,"parameterNumber":2,"parameterNumberName":"U-component_of_WINDS"},"data":[0.0,0.0,0.0,0.0,0.0,0.0,0.0,0.0,0.0,0.0,0.0,0.0,0.0,0.0,0.0,0.0,0.0,0.0,0.0,0.0,0.0,0.0,0.0,0.0,0.0,0.0,0.0,0.0,0.0,0.0,0.0,0.0,0.0,0.0,0.0,0.0,0.0,0.0,0.0,0.0,0.0,0.0,0.0,0.0,0.0,0.0,0.0,0.0,0.0,0.0,0.0,0.0,0.0,0.0,0.0,0.0,0.0,0.0,0.0,0.0,0.0,0.0,0.0,0.0,0.0,0.0,0.0,0.0,0.0,0.0,0.0,0.0,0.0,0.0,0.0,0.0,0.0,0.0,0.0,0.0,0.0,0.0,0.0,0.0,0.0,0.0,0.0,0.0,0.0,0.0,0.0,0.0,0.0,0.0,0.0,0.0,0.0,0.0,0.0,0.0,0.0,0.0,0.0,0.0,0.0,0.0,0.0,0.0,0.0,0.0,0.0,0.0,0.0,0.0,0.0,0.0,0.0,0.0,0.0,0.0,0.0,0.0,0.0,0.0,0.0,0.0,0.0,0.0,0.0,0.0,0.0,0.0,0.0,0.0,0.0,0.0,0.0,0.0,0.0,0.0,0.0,0.0,0.0,0.0,0.0,0.0,0.0,0.0,0.0,0.0,0.0,0.0,0.0,0.0,0.0,0.0,0.0,0.0,0.0,0.0,0.0,0.0,0.0,0.0,0.0,0.0,0.0,0.0,0.0,0.0,0.0,0.0,0.0,0.0,0.0,0.0,0.0,0.0,0.0,0.0,0.0,0.0,0.0,0.0,0.0,0.0,0.0,0.0,0.0,0.0,0.0,0.0,0.0,0.0,0.0,0.0,0.0,0.0,0.0,0.0,0.0,0.0,0.0,0.0,0.0,0.0,0.0,0.0,0.0,0.0,0.0,0.0,0.0,0.0,0.0,0.0,0.0,0.0,0.0,0.0,0.0,0.0,0.0,0.0,0.0,0.0,0.0,0.0,0.0,0.0,0.0,0.0,0.0,0.0,0.0,0.0,0.0,0.0,0.0,0.0,0.0,0.0,0.0,0.0,0.0,0.0,0.0,0.0,0.0,0.0,0.0,0.0,0.0,0.0,0.0,0.0,0.0,0.0,0.0,0.0,0.0,0.0,0.0,0.0,0.0,0.0,0.0,0.0,0.0,0.0,0.0,0.0,0.0,0.0,0.0,0.0,0.0,0.0,0.0,0.0,0.0,0.0,0.0,0.0,0.0,0.0,0.0,0.0,0.0,0.0,0.0,0.0,0.0,0.0,0.0,0.0,0.0,0.0,0.0,0.0,0.0,0.0,0.0,0.0,0.0,0.0,0.0,0.0,0.0,0.0,0.0,0.0,0.0,0.0,0.0,0.0,0.0,0.0,0.0,0.0,0.0,0.0,0.0,0.0,0.0,0.0,0.0,0.0,0.0,0.0,0.0,0.0,0.0,0.0,0.0,0.0,0.0,0.0,0.0,0.0,0.0,0.0,0.0,0.0,0.0,0.0,0.0,0.0,0.0,0.0,0.0,0.0,0.0,0.0,0.0,0.0,0.0,0.0,0.0,0.0,0.0,0.0,0.0,0.0,0.0,0.0,0.0,0.0,0.0,0.0,0.0,0.0,0.0,0.0,0.0,0.0,0.0,0.0,0.0,0.0,0.0,0.0,0.0,0.0,0.0,0.0,0.0,0.0,0.0,0.0,0.0,0.0,0.0,0.0,0.0,0.0,0.0,0.0,0.0,0.0,0.0,0.0,0.0,0.0,0.0,0.0,0.0,0.0,0.0,0.0,0.0,0.0,0.0,0.0,0.0,0.0,0.0,0.0,0.0,0.0,0.0,0.0,0.0,0.0,0.0,0.0,0.0,0.0,0.0,0.0,0.0,0.0,0.0,0.0,0.0,0.0,0.0,0.0,0.0,0.0,0.0,0.0,0.0,0.0,0.0,0.0,0.0,0.0,0.0,0.0,0.0,0.0,0.0,0.0,0.0,0.0,0.0,0.0,0.0,0.0,0.0,0.0,0.0,0.0,0.0,0.0,0.0,0.0,0.0,0.0,0.0,0.0,0.0,0.0,0.0,0.0,0.0,0.0,0.0,0.0,0.0,0.0,0.0,0.0,0.0,0.0,0.0,0.0,0.0,0.0,0.0,0.0,0.0,0.0,0.0,0.0,0.0,0.0,0.0,0.0,0.0,0.0,0.0,0.0,0.0,0.0,0.0,0.0,0.0,0.0,0.0,0.0,0.0,0.0,0.0,0.0,0.0,0.0,0.0,0.0,0.0,0.0,0.0,0.0,0.0,0.0,0.0,0.0,0.0,0.0,0.0,0.0,0.0,0.0,0.0,0.0,0.0,0.0,0.0,0.0,0.0,0.0,0.0,0.0,0.0,0.0,0.0,0.0,0.0,0.0,0.0,0.0,0.0,0.0,0.0,0.0,0.0,0.0,0.0,0.0,0.0,0.0,0.0,0.0,0.0,0.0,0.0,0.0,0.0,0.0,0.0,0.0,0.0,0.0,0.0,0.0,0.0,0.0,0.0,0.0,0.0,0.0,0.0,0.0,0.0,0.0,0.0,0.0,0.0,0.0,0.0,0.0,0.0,0.0,0.0,0.0,0.0,0.0,0.0,0.0,0.0,0.0,0.0,0.0,0.0,0.0,0.0,0.0,0.0,0.0,0.0,0.0,0.0,0.0,0.0,0.0,0.0,0.0,0.0,0.0,0.0,0.0,0.0,0.0,0.0,0.0,0.0,0.0,0.0,0.0,0.0,0.0,0.0,0.0,0.0,0.0,0.0,0.0,0.0,0.0,0.0,0.0,0.0,0.0,0.0,0.0,0.0,0.0,0.0,0.0,0.0,0.0,0.0,0.0,0.0,0.0,0.0,0.0,0.0,0.0,0.0,0.0,0.0,0.0,0.0,0.0,0.0,0.0,0.0,0.0,0.0,0.0,0.0,0.0,0.0,0.0,0.0,0.0,0.0,0.0,0.0,0.0,0.0,0.0,0.0,0.0,0.0,0.0,0.0,0.0,0.0,0.0,0.0,0.0,0.0,0.0,0.0,0.0,0.0,0.0,0.0,0.0,0.0,0.0,0.0,0.0,0.0,0.0,0.0,0.0,0.0,0.0,0.0,0.0,0.0,0.0,0.0,0.0,0.0,0.0,0.0,0.0,0.0,0.0,0.0,0.0,0.0,0.0,0.0,0.0,0.0,0.0,0.0,0.0,0.0,0.0,0.0,0.0,0.0,0.0,0.0,0.0,0.0,0.0,0.0,0.0,0.0,0.0,0.0,0.0,0.0,0.0,0.0,0.0,0.0,0.0,0.0,0.0,0.0,0.0,0.0,0.0,0.0,0.0,0.0,0.0,0.0,0.0,0.0,0.0,0.0,0.0,0.0,0.0,0.0,0.0,0.0,0.0,0.0,0.0,0.0,0.0,0.0,0.0,0.0,0.0,0.0,0.0,0.0,0.0,0.0,0.0,0.0,0.0,0.0,0.0,0.0,0.0,0.0,0.0,0.0,0.0,0.0,0.0,0.0,0.0,0.0,0.0,0.0,0.0,0.0,0.0,0.0,0.0,0.0,0.0,0.0,0.0,0.0,0.0,0.0,0.0,0.0,0.0,0.0,0.0,0.0,0.0,0.0,0.0,0.0,0.0,0.0,0.0,0.0,0.0,0.0,0.0,0.0,0.0,0.0,0.0,0.0,0.0,0.0,0.0,0.0,0.0,0.0,0.0,0.0,0.0,0.0,0.0,0.0,0.0,0.0,0.0,0.0,0.0,0.0,0.0,0.0,0.0,0.0,0.0,0.0,0.0,0.0,0.0,0.0,0.0,0.0,0.0,0.0,0.0,0.0,0.0,0.0,0.0,0.0,0.0,0.0,0.0,0.0,0.0,0.0,0.0,0.0,0.0,0.0,0.0,0.0,0.0,0.0,0.0,0.0,0.0,0.0,0.0,0.0,0.0,0.0,0.0,0.0,0.0,0.0,0.0,0.0,0.0,0.0,0.0,0.0,0.0,0.0,0.0,0.0,0.0,0.0,0.0,0.0,0.0,0.0,0.0,0.0,0.0,0.0,0.0,0.0,0.0,0.0,0.0,0.0,0.0,0.0,0.0,0.0,0.0,0.0,0.0,0.0,0.0,0.0,0.0,0.0,0.0,0.0,0.0,0.0,0.0,0.0,0.0,0.0,0.0,0.0,0.0,0.0,0.0,0.0,0.0,0.0,0.0,0.0,0.0,0.0,0.0,0.1744,0.0,0.0,0.0,0.0,0.0,0.0,0.0,0.0,0.0,0.0,0.0,0.0,0.0,0.0,0.0,0.0,0.0,0.0,0.0,0.0,0.0,0.0,0.0,0.0,0.0,0.0,0.0,0.0,0.0,0.0,0.0,0.0,0.0,0.0,0.0,0.0,0.0,0.0,0.0,0.0,0.0,0.0,0.0,0.0,0.0,0.0,0.0,0.0,0.0,0.0,0.0,0.0,0.0,0.0,0.0,0.0,0.0,0.0,0.0,0.0,0.0,0.0,0.0,0.0,0.0,0.0,0.0,0.0,0.0,0.0,0.0,0.0,0.0,0.0,0.0,0.0,0.0,0.0,0.0,0.0,0.0,0.0,0.0,0.0,0.0,0.0,0.0,0.0,0.0,0.0,0.0,0.0,0.0,0.0,0.0,0.0,0.0,0.0,0.0,0.0,0.0,0.0,0.0,0.0,0.0,0.0,0.0,0.0,0.0,0.0,0.3414,0.2514,0.1577,0.0934,0.0347,0.0,0.0,0.0,0.0,0.0,0.0,0.0,0.0,0.0,0.0,0.0,0.0,0.0,0.0,0.0,0.0,0.0,0.0,0.0,0.0,0.0,0.0,0.0,0.0,0.0,0.0,0.0,0.0,0.0,0.0,0.0,0.0,0.0,0.0,0.0,0.0,0.0,0.0,0.0,0.0,0.0,0.0,0.0,0.0,0.0,0.0,0.0,0.0,0.0,0.0,0.0,0.0,0.0,0.0,0.0,0.0,0.0,0.0,0.0,0.0,0.0,0.0,0.0,0.0,0.0,0.0,0.0,0.0,0.0,0.0,0.0,0.0,0.0,0.0,0.0,0.0,0.0,0.0,0.0,0.0,0.0,0.0,0.0,0.0,0.0,0.0,0.0,0.0,0.0,0.0,0.0,0.0,0.0,0.0,0.0,0.0,0.0,0.0,0.0,0.0,0.0,0.0,0.0,0.0,0.0,0.0,0.0,0.0,0.0,0.0,0.0,0.0,0.0083,-0.0596,-0.1135,0.0,0.0,0.0,0.0,0.0,0.0,0.0,0.0,0.0,0.0,0.0,0.0,0.0,0.0,0.0,0.0,0.0,0.0,0.0,0.0,0.0,0.0,0.0,0.0,0.0,0.0,0.0,0.0,0.0,0.0,0.0,0.0,0.0,0.0,0.0,0.0,0.0,0.0,0.0,0.0,0.0,0.0,0.0,0.0,0.0,0.0,0.0,0.0,0.0,0.0,0.0,0.0,0.0,0.0,0.0,0.0,0.0,0.0,0.0,0.0,0.0,0.0,0.0,0.0,0.0,0.0,0.0,0.0,0.0,0.0,0.0,0.0,0.0,0.0,0.0,0.0,0.0,0.0,0.0,0.0,0.0,0.0,0.0,0.0,0.0,0.0,0.0,0.0,0.0,0.0,0.0,0.0,0.0,0.0,0.0,0.0,0.0,0.0,0.0,0.0,0.0,0.0,0.0,0.0,0.0,0.0,0.0,0.0,0.0,0.0,0.0549,0.0079,-0.0822,0.0,-0.2939,0.0,0.0,0.0,0.0,0.0,0.0,0.0,0.0,0.0,0.0,0.0,0.0,0.0,0.0,0.0,0.0,0.0,0.0,0.0,0.0,0.0,0.0,0.0,0.0,0.0,0.0,0.0,0.0,0.0,0.0,0.0,0.0,0.0,0.0,0.0,0.0,0.0,0.0,0.0,0.0,0.0,0.0,0.0,0.0,0.0,0.0,0.0,0.0,0.0,0.0,0.0,0.0,0.0,0.0,0.0,0.0,0.0,0.0,0.0,0.0,0.0,0.0,0.0,0.0,0.0,0.0,0.0,0.0,0.0,0.0,0.0,0.0,0.0,0.0,0.0,0.0,0.0,0.0,0.0,0.0,0.0,0.0,0.0,0.0,0.0,0.0,0.0,0.0,0.0,0.0,0.0,0.0,0.0,0.0,0.0,0.0,0.0,0.0,0.0,0.0,0.0,0.0,0.0,0.0,0.0,0.0,0.0,0.0,0.0,0.0,-0.1884,-0.1491,-0.2216,-0.3001,0.0,0.0,0.0,0.0,0.0,0.0,0.0,0.0,0.0,0.0,0.0,0.0,0.0,0.0,0.0,0.0,0.0,0.0,0.0,0.0,0.0,0.0,0.0,0.0,0.0,0.0,0.0,0.0,0.0,0.0,0.0,0.0,0.0,0.0,0.0,0.0,0.0,0.0,0.0,0.0,0.0,0.0,0.0,0.0,0.0,0.0,0.0,0.0,0.0,0.0,0.0,0.0,0.0,0.0,0.0,0.0,0.0,0.0,0.0,0.0,0.0,0.0,0.0,0.0,0.0,0.0,0.0,0.0,0.0,0.0,0.0,0.0,0.0,0.0,0.0,0.0,0.0,0.0,0.0,0.0,0.0,0.0,0.0,0.0,0.0,0.0,0.0,0.0,0.0,0.0,0.0,0.0,0.0,0.0,0.0,0.0,0.0,0.0,0.0,0.0,0.0,0.0,0.0,0.0,0.0,0.0,0.0,0.0,0.0,0.0,-0.2595,-0.3561,-0.3122,-0.3549,-0.4028,-0.4645,0.0,0.0,0.0,0.0,0.0,0.0,0.0,0.0,0.0,0.0,0.0,0.0,0.0,0.0,0.0,0.0,0.0,0.0,0.0,0.0,0.0,0.0,0.0,0.0,0.0,0.0,0.0,0.0,0.0,0.0,0.0,0.0,0.0,0.0,0.0,0.0,0.0,0.0,0.0,0.0,0.0,0.0,0.0,0.0,0.0,0.0,0.0,0.0,0.0,0.0,0.0,0.0,0.0,0.0,0.0,0.0,0.0,0.0,0.0,0.0,0.0,0.0,0.0,0.0,0.0,0.0,0.0,0.0,0.0,0.0,0.0,0.0,0.0,0.0,0.0,0.0,0.0,0.0,0.0,0.0,0.0,0.0,0.0,0.0,0.0,0.0,0.0,0.0,0.0,0.0,0.0,0.0,0.0,0.0,0.0,0.0,0.0,0.0,0.0,0.0,0.0,0.0,0.0,0.0,0.0,0.0,0.0,0.0,-0.1176,-0.2907,-0.4094,-0.4594,-0.4615,-0.4969,0.0,0.0,0.0,0.0,0.0,0.0,0.0,0.0,0.0,0.0,0.0,0.0,0.0,0.0,0.0,0.0,0.0,0.0,0.0,0.0,0.0,0.0,0.0,0.0,0.0,0.0,0.0,0.0,0.0,0.0,0.0,0.0,0.0,0.0,0.0,0.0,0.0,0.0,0.0,0.0,0.0,0.0,0.0,0.0,0.0,0.0,0.0,0.0,0.0,0.0,0.0,0.0,0.0,0.0,0.0,0.0,0.0,0.0,0.0,0.0,0.0,0.0,0.0,0.0,0.0,0.0,0.0,0.0,0.0,0.0,0.0,0.0,0.0,0.0,0.0,0.0,0.0,0.0,0.0,0.0,0.0,0.0,0.0,0.0,0.0,0.0,0.0,0.0,0.0,0.0,0.0,0.0,0.0,0.0,0.0,0.0,0.0,0.0,0.0,0.0,0.0,0.0,0.0,0.0,0.0,0.0,0.0,0.0,0.0,-0.2785,-0.4016,-0.4984,-0.5726,-0.5905,-0.6162,0.0,0.0,0.0,0.0,0.0,0.0,0.0,0.0,0.0,0.0,0.0,0.0,0.0,0.0,0.0,0.0,0.0,0.0,0.0,0.0,0.0,0.0,0.0,0.0,0.0,0.0,0.0,0.0,0.0,0.0,0.0,0.0,0.0,0.0,0.0,0.0,0.0,0.0,0.0,0.0,0.0,0.0,0.0,0.0,0.0,0.0,0.0,0.0,0.0,0.0,0.0,0.0,0.0,0.0,0.0,0.0,0.0,0.0,0.0,0.0,0.0,0.0,0.0,0.0,0.0,0.0,0.0,0.0,0.0,0.0,0.0,0.0,0.0,0.0,0.0,0.0,0.0,0.0,0.0,0.0,0.0,0.0,0.0,0.0,0.0,0.0,0.0,0.0,0.0,0.0,0.0,0.0,0.0,0.0,0.0,0.0,0.0,0.0,0.0,0.0,0.0,0.0,0.0,0.0,0.0,0.0,0.0,0.0,0.0,-0.4701,0.0,-0.5924,-0.6734,-0.7001,-0.7249,0.0,0.0,0.0,0.0,0.0,0.0,0.0,0.0,0.0,0.0,0.0,0.0,0.0,0.0,0.0,0.0,0.0,0.0,0.0,0.0,0.0,0.0,0.0,0.0,0.0,0.0,0.0,0.0,0.0,0.0,0.0,0.0,0.0,0.0,0.0,0.0,0.0,0.0,0.0,0.0,0.0,0.0,0.0,0.0,0.0,0.0,0.0,0.0,0.0,0.0,0.0,0.0,0.0,0.0,0.0,0.0,0.0,0.0,0.0,0.0,0.0,0.0,0.0,0.0,0.0,0.0,0.0,0.0,0.0,0.0,0.0,0.0,0.0,0.0,0.0,0.0,0.0,0.0,0.0,0.0,0.0,0.0,0.0,0.0,0.0,0.0,0.0,0.0,0.0,0.0,0.0,0.0,0.0,0.0,0.0,0.0,0.0,0.0,0.0,0.0,0.0,0.0,0.0,0.0,0.0,0.0,0.0,0.0,-0.4283,-0.6902,-0.6719,-0.6951,-0.7684,-0.7951,-0.8107,0.0,0.0,0.0,0.0,0.0,0.0,0.0,0.0,0.0,0.0,0.0,0.0,0.0,0.0,0.0,0.0,0.0,0.0,0.0,0.0,0.0,0.0,0.0,0.0,0.0,0.0,0.0,0.0,0.0,0.0,0.0,0.0,0.0,0.0,0.0,0.0,0.0,0.0,0.0,0.0,0.0,0.0,0.0,0.0,0.0,0.0,0.0,0.0,0.0,0.0,0.0,0.0,0.0,0.0,0.0,0.0,0.0,0.0,0.0,0.0,0.0,0.0,0.0,0.0,0.0,0.0,0.0,0.0,0.0,0.0,0.0,0.0,0.0,0.0,0.0,0.0,0.0,0.0,0.0,0.0,0.0,0.0,0.0,0.0,0.0,0.0,0.0,0.0,0.0,0.0,0.0,0.0,0.0,0.0,0.0,0.0,0.0,0.0,0.0,0.0,0.0,0.0,0.0,0.0,0.0,0.0,0.0,0.0,0.0,-0.8328,-0.8041,-0.8225,-0.8987,-0.9247,-0.9274,0.0,0.0,0.0,0.0,0.0,0.0,0.0,0.0,0.0,0.0,0.0,0.0,0.0,0.0,0.0,0.0,0.0,0.0,0.0,0.0,0.0,0.0,0.0,0.0,0.0,0.0,0.0,0.0,0.0,0.0,0.0,0.0,0.0,0.0,0.0,0.0,0.0,0.0,0.0,0.0,0.0,0.0,0.0,0.0,0.0,0.0,0.0,0.0,0.0,0.0,0.0,0.0,0.0,0.0,0.0,0.0,0.0,0.0,0.0,0.0,0.0,0.0,0.0,0.0,0.0,0.0,0.0,0.0,0.0,0.0,0.0,0.0,0.0,0.0,0.0,0.0,0.0,0.0,0.0,0.0,0.0,0.0,0.0,0.0,0.0,0.0,0.0,0.0,0.0,0.0,0.0,0.0,0.0,0.0,0.0,0.0,0.0,0.0,0.0,0.0,0.0,0.0,0.0,0.0,0.0,0.0,0.0,0.0,0.0,-0.9616,-0.9419,-0.941,-0.9946,-1.0207,-1.0207,-0.9951,0.0,0.0,0.0,0.0,0.0,0.0,0.0,0.0,0.0,0.0,0.0,0.0,0.0,0.0,0.0,0.0,0.0,0.0,0.0,0.0,0.0,0.0,0.0,0.0,0.0,0.0,0.0,0.0,0.0,0.0,0.0,0.0,0.0,0.0,0.0,0.0,0.0,0.0,0.0,0.0,0.0,0.0,0.0,0.0,0.0,0.0,0.0,0.0,0.0,0.0,0.0,0.0,0.0,0.0,0.0,0.0,0.0,0.0,0.0,0.0,0.0,0.0,0.0,0.0,0.0,0.0,0.0,0.0,0.0,0.0,0.0,0.0,0.0,0.0,0.0,0.0,0.0,0.0,0.0,0.0,0.0,0.0,0.0,0.0,0.0,0.0,0.0,0.0,0.0,0.0,0.0,0.0,0.0,0.0,0.0,0.0,0.0,0.0,0.0,0.0,0.0,0.0,0.0,0.0,0.0,0.0,0.0,0.0,-1.1068,-1.0733,-1.0641,-1.0636,-1.0895,-1.0895,0.0,0.0,0.0,0.0,0.0,0.0,0.0,0.0,0.0,0.0,0.0,0.0,0.0,0.0,0.0,0.0,0.0,0.0,0.0,0.0,0.0,0.0,0.0,0.0,0.0,0.0,0.0,0.0,0.0,0.0,0.0,0.0,0.0,0.0,0.0,0.0,0.0,0.0,0.0,0.0,0.0,0.0,0.0,0.0,0.0,0.0,0.0,0.0,0.0,0.0,0.0,0.0,0.0,0.0,0.0,0.0,0.0,0.0,0.0,0.0,0.0,0.0,0.0,0.0,0.0,0.0,0.0,0.0,0.0,0.0,0.0,0.0,0.0,0.0,0.0,0.0,0.0,0.0,0.0,0.0,0.0,0.0,0.0,0.0,0.0,0.0,0.0,0.0,0.0,0.0,0.0,0.0,0.0,0.0,0.0,0.0,0.0,0.0,0.0,0.0,0.0,0.0,0.0,0.0,0.0,0.0,0.0,0.0,0.0,-1.1671,-1.2209,-1.2221,-1.1688,-1.1693,-1.151,0.0,0.0,0.0,0.0,0.0,0.0,0.0,0.0,0.0,0.0,0.0,0.0,0.0,0.0,0.0,0.0,0.0,0.0,0.0,0.0,0.0,0.0,0.0,0.0,0.0,0.0,0.0,0.0,0.0,0.0,0.0,0.0,0.0,0.0,0.0,0.0,0.0,0.0,0.0,0.0,0.0,0.0,0.0,0.0,0.0,0.0,0.0,0.0,0.0,0.0,0.0,0.0,0.0,0.0,0.0,0.0,0.0,0.0,0.0,0.0,0.0,0.0,0.0,0.0,0.0,0.0,0.0,0.0,0.0,0.0,0.0,0.0,0.0,0.0,0.0,0.0,0.0,0.0,0.0,0.0,0.0,0.0,0.0,0.0,0.0,0.0,0.0,0.0,0.0,0.0,0.0,0.0,0.0,0.0,0.0,0.0,0.0,0.0,0.0,0.0,0.0,0.0,0.0,0.0,0.0,0.0,0.0,0.0,-1.1494,-1.2272,-1.2979,-1.3076,-1.2631,-1.2375,-1.2198,0.0,0.0,0.0,0.0,0.0,0.0,0.0,0.0,0.0,0.0,0.0,0.0,0.0,0.0,0.0,0.0,0.0,0.0,0.0,0.0,0.0,0.0,0.0,0.0,0.0,0.0,0.0,0.0,0.0,0.0,0.0,0.0,0.0,0.0,0.0,0.0,0.0,0.0,0.0,0.0,0.0,0.0,0.0,0.0,0.0,0.0,0.0,0.0,0.0,0.0,0.0,0.0,0.0,0.0,0.0,0.0,0.0,0.0,0.0,0.0,0.0,0.0,0.0,0.0,0.0,0.0,0.0,0.0,0.0,0.0,0.0,0.0,0.0,0.0,0.0,0.0,0.0,0.0,0.0,0.0,0.0,0.0,0.0,0.0,0.0,0.0,0.0,0.0,0.0,0.0,0.0,0.0,0.0,0.0,0.0,0.0,0.0,0.0,0.0,0.0,0.0,0.0,0.0,0.0,0.0,0.0,0.0,0.0,-1.2363,-1.2875,-1.33,-1.3476,-1.3561,-1.3052,-1.279,0.0,0.0,0.0,0.0,0.0,0.0,0.0,0.0,0.0,0.0,0.0,0.0,0.0,0.0,0.0,0.0,0.0,0.0,0.0,0.0,0.0,0.0,0.0,0.0,0.0,0.0,0.0,0.0,0.0,0.0,0.0,0.0,0.0,0.0,0.0,0.0,0.0,0.0,0.0,0.0,0.0,0.0,0.0,0.0,0.0,0.0,0.0,0.0,0.0,0.0,0.0,0.0,0.0,0.0,0.0,0.0,0.0,0.0,0.0,0.0,0.0,0.0,0.0,0.0,0.0,0.0,0.0,0.0,0.0,0.0,0.0,0.0,0.0,0.0,0.0,0.0,0.0,0.0,0.0,0.0,0.0,0.0,0.0,0.0,0.0,0.0,0.0,0.0,0.0,0.0,0.0,0.0,0.0,0.0,0.0,0.0,0.0,0.0,0.0,0.0,0.0,0.0,0.0,0.0,0.0,0.0,0.0,0.0,-1.3385,-1.4055,-1.4146,-1.4237,-1.4398,-1.3815,-1.3222,0.0,0.0,0.0,0.0,0.0,0.0,0.0,0.0,0.0,0.0,0.0,0.0,0.0,0.0,0.0,0.0,0.0,0.0,0.0,0.0,0.0,0.0,0.0,0.0,0.0,0.0,0.0,0.0,0.0,0.0,0.0,0.0,0.0,0.0,0.0,0.0,0.0,0.0,0.0,0.0,0.0,0.0,0.0,0.0,0.0,0.0,0.0,0.0,-1.44,0.0,0.0,0.0,0.0,0.0,0.0,0.0,0.0,0.0,0.0,0.0,0.0,0.0,0.0,0.0,0.0,0.0,0.0,0.0,0.0,0.0,0.0,0.0,0.0,0.0,0.0,0.0,0.0,0.0,0.0,0.0,0.0,0.0,0.0,0.0,0.0,0.0,0.0,0.0,0.0,0.0,0.0,0.0,0.0,0.0,0.0,0.0,0.0,0.0,0.0,0.0,0.0,0.0,0.0,0.0,0.0,0.0,0.0,0.0,-1.4321,-1.4734,-1.4901,-1.4977,-1.4977,-1.465,-1.4146,0.0,0.0,0.0,0.0,0.0,0.0,0.0,0.0,0.0,0.0,0.0,0.0,0.0,0.0,0.0,0.0,0.0,0.0,0.0,0.0,0.0,0.0,0.0,0.0,0.0,0.0,0.0,0.0,0.0,0.0,0.0,0.0,0.0,0.0,0.0,0.0,0.0,0.0,0.0,0.0,0.0,0.0,0.0,0.0,0.0,0.0,0.0,0.0,0.0,0.0,0.0,0.0,0.0,0.0,0.0,0.0,0.0,0.0,0.0,0.0,0.0,0.0,0.0,0.0,0.0,0.0,0.0,0.0,0.0,0.0,0.0,0.0,0.0,0.0,0.0,0.0,0.0,0.0,0.0,0.0,0.0,0.0,0.0,0.0,0.0,0.0,0.0,0.0,0.0,0.0,0.0,0.0,0.0,0.0,0.0,0.0,0.0,0.0,0.0,0.0,0.0,0.0,0.0,0.0,0.0,0.0,0.0,-1.4901,-1.5333,-1.5333,-1.5658,-1.5824,-1.556,-1.556,-1.5235,-1.4334,0.0,0.0,0.0,0.0,0.0,0.0,0.0,0.0,0.0,0.0,0.0,0.0,0.0,0.0,0.0,0.0,0.0,0.0,0.0,0.0,0.0,0.0,0.0,0.0,0.0,0.0,0.0,0.0,0.0,0.0,0.0,0.0,0.0,0.0,0.0,0.0,0.0,0.0,-1.2139,-1.313,0.0,0.0,0.0,0.0,0.0,0.0,0.0,0.0,-1.6487,0.0,0.0,0.0,0.0,0.0,0.0,0.0,0.0,0.0,0.0,0.0,0.0,0.0,0.0,0.0,0.0,0.0,0.0,0.0,0.0,0.0,0.0,0.0,0.0,0.0,0.0,0.0,0.0,0.0,0.0,0.0,0.0,0.0,0.0,0.0,0.0,0.0,0.0,0.0,0.0,0.0,0.0,0.0,0.0,0.0,0.0,0.0,0.0,0.0,0.0,0.0,0.0,0.0,0.0,0.0,0.0,-1.5387,-1.5899,-1.6237,-1.6402,-1.6492,-1.6484,-1.6484,-1.6484,-1.6154,-1.5484,0.0,0.0,0.0,0.0,0.0,0.0,0.0,0.0,0.0,0.0,0.0,0.0,0.0,0.0,0.0,0.0,0.0,0.0,0.0,0.0,0.0,0.0,0.0,0.0,0.0,0.0,0.0,0.0,0.0,0.0,0.0,0.0,0.0,0.0,0.0,0.0,0.0,0.0,0.0,-1.41,-1.458,0.0,0.0,0.0,0.0,0.0,0.0,0.0,0.0,-1.7885,0.0,0.0,0.0,0.0,0.0,0.0,0.0,0.0,0.0,0.0,0.0,0.0,0.0,0.0,0.0,0.0,0.0,0.0,0.0,0.0,0.0,0.0,0.0,0.0,0.0,0.0,0.0,0.0,0.0,0.0,0.0,0.0,0.0,0.0,0.0,0.0,0.0,0.0,0.0,0.0,0.0,0.0,0.0,0.0,0.0,0.0,0.0,0.0,0.0,0.0,0.0,0.0,0.0,0.0,0.0,-1.6347,-1.6796,-1.7212,-1.7392,-1.7383,-1.7383,-1.7392,-1.7302,-1.6976,0.0,0.0,0.0,0.0,0.0,0.0,0.0,0.0,0.0,0.0,0.0,0.0,0.0,0.0,0.0,0.0,0.0,0.0,0.0,0.0,0.0,0.0,0.0,0.0,0.0,0.0,0.0,0.0,0.0,0.0,0.0,0.0,0.0,0.0,0.0,0.0,0.0,0.0,0.0,0.0,-1.4879,-1.5235,-1.5076,0.0,0.0,0.0,0.0,0.0,0.0,-1.8619,-1.8904,0.0,0.0,0.0,0.0,0.0,0.0,0.0,0.0,0.0,0.0,0.0,0.0,0.0,0.0,0.0,0.0,0.0,0.0,0.0,0.0,0.0,0.0,0.0,0.0,0.0,0.0,0.0,0.0,0.0,0.0,0.0,0.0,0.0,0.0,0.0,0.0,0.0,0.0,0.0,0.0,0.0,0.0,0.0,0.0,0.0,0.0,0.0,0.0,0.0,0.0,0.0,0.0,0.0,0.0,0.0,-1.718,-1.7708,-1.7951,-1.8121,-1.8121,-1.8121,-1.8121,-1.7951,-1.77,0.0,0.0,0.0,0.0,0.0,0.0,0.0,0.0,0.0,0.0,0.0,0.0,0.0,0.0,0.0,0.0,0.0,0.0,0.0,0.0,0.0,0.0,0.0,0.0,0.0,0.0,0.0,0.0,0.0,0.0,0.0,0.0,0.0,0.0,0.0,0.0,0.0,0.0,0.0,0.0,0.0,-1.5893,-1.5718,-1.6539,0.0,0.0,0.0,0.0,-1.9072,-1.9538,0.0,0.0,0.0,0.0,0.0,0.0,0.0,0.0,0.0,0.0,0.0,0.0,0.0,0.0,0.0,0.0,0.0,0.0,0.0,0.0,0.0,0.0,0.0,0.0,0.0,0.0,0.0,0.0,0.0,0.0,0.0,0.0,0.0,0.0,0.0,0.0,0.0,0.0,0.0,0.0,0.0,0.0,0.0,0.0,0.0,0.0,0.0,0.0,0.0,0.0,0.0,0.0,0.0,0.0,0.0,0.0,-1.7853,-1.8371,-1.8612,-1.862,-1.862,-1.8612,-1.8612,-1.8612,-1.8282,0.0,0.0,0.0,0.0,0.0,0.0,0.0,0.0,0.0,0.0,0.0,0.0,0.0,0.0,0.0,0.0,0.0,0.0,0.0,0.0,0.0,0.0,0.0,0.0,0.0,0.0,0.0,0.0,0.0,0.0,0.0,0.0,0.0,0.0,0.0,0.0,0.0,0.0,0.0,0.0,0.0,-1.6965,-1.7404,-1.787,-1.8643,0.0,0.0,-1.9894,-2.0365,-2.0564,0.0,0.0,0.0,0.0,0.0,0.0,0.0,0.0,0.0,0.0,0.0,0.0,0.0,0.0,0.0,0.0,0.0,0.0,0.0,0.0,0.0,0.0,0.0,0.0,0.0,0.0,0.0,0.0,0.0,0.0,0.0,0.0,0.0,0.0,0.0,0.0,0.0,0.0,0.0,0.0,0.0,0.0,0.0,0.0,0.0,0.0,0.0,0.0,0.0,0.0,0.0,0.0,0.0,0.0,0.0,-1.7488,-1.8496,-1.8754,-1.8922,-1.8993,-1.9082,-1.9073,-1.9002,-1.9002,-1.8754,0.0,0.0,0.0,0.0,0.0,0.0,0.0,0.0,0.0,0.0,0.0,0.0,0.0,0.0,0.0,0.0,0.0,0.0,0.0,0.0,0.0,0.0,0.0,0.0,0.0,0.0,0.0,0.0,0.0,0.0,0.0,0.0,0.0,0.0,0.0,0.0,0.0,0.0,0.0,0.0,0.0,0.0,-1.8319,-1.888,0.0,0.0,0.0,-2.0718,-2.1195,0.0,0.0,0.0,0.0,0.0,0.0,0.0,0.0,0.0,0.0,0.0,0.0,0.0,0.0,0.0,0.0,0.0,0.0,0.0,0.0,0.0,0.0,0.0,0.0,0.0,0.0,0.0,0.0,0.0,0.0,0.0,0.0,0.0,0.0,0.0,0.0,0.0,0.0,0.0,0.0,0.0,0.0,0.0,0.0,0.0,0.0,0.0,0.0,0.0,0.0,0.0,0.0,0.0,0.0,0.0,0.0,0.0,-1.8993,-1.8984,-1.9054,-1.9301,-1.9292,-1.9292,-1.9292,-1.9292,0.0,0.0,0.0,0.0,0.0,0.0,0.0,0.0,0.0,0.0,0.0,0.0,0.0,0.0,0.0,0.0,0.0,0.0,0.0,0.0,0.0,0.0,0.0,0.0,0.0,0.0,0.0,-0.9229,0.0,0.0,0.0,0.0,0.0,0.0,0.0,0.0,0.0,0.0,0.0,0.0,0.0,0.0,-1.8535,-1.9139,-1.9795,-2.0654,0.0,0.0,-2.1454,-2.182,-2.1919,-2.1909,0.0,0.0,0.0,0.0,0.0,0.0,0.0,0.0,0.0,0.0,0.0,0.0,0.0,0.0,0.0,0.0,0.0,0.0,0.0,0.0,0.0,0.0,0.0,0.0,0.0,0.0,0.0,0.0,0.0,0.0,0.0,0.0,0.0,0.0,0.0,0.0,0.0,0.0,0.0,0.0,0.0,0.0,0.0,0.0,0.0,0.0,0.0,0.0,0.0,0.0,0.0,0.0,0.0,0.0,-1.8567,-1.9002,-1.9152,-1.9301,-1.9292,-1.9292,-1.9292,-1.9292,-1.9292,-1.9073,0.0,0.0,0.0,0.0,0.0,0.0,0.0,0.0,0.0,0.0,0.0,0.0,0.0,0.0,0.0,0.0,0.0,0.0,0.0,0.0,0.0,0.0,0.0,0.0,0.0,0.0,0.0,0.0,0.0,0.0,0.0,0.0,0.0,0.0,0.0,0.0,0.0,0.0,0.0,0.0,0.0,-1.9371,-2.011,-2.0817,-2.1365,0.0,-2.2097,-2.2344,-2.2353,-2.2353,-2.2353,-2.2344,0.0,0.0,0.0,0.0,0.0,0.0,0.0,0.0,0.0,0.0,0.0,0.0,0.0,0.0,0.0,0.0,0.0,0.0,0.0,0.0,0.0,0.0,0.0,0.0,0.0,0.0,0.0,0.0,0.0,0.0,0.0,0.0,0.0,0.0,0.0,0.0,0.0,0.0,0.0,0.0,0.0,0.0,0.0,0.0,0.0,0.0,0.0,0.0,0.0,0.0,0.0,0.0,0.0,-1.8913,-1.9143,-1.9222,-1.9292,-1.9292,-1.9292,-1.9292,-1.9292,-1.9143,-1.9002,0.0,0.0,0.0,0.0,0.0,0.0,0.0,0.0,0.0,0.0,0.0,0.0,0.0,0.0,0.0,0.0,0.0,0.0,0.0,0.0,0.0,0.0,0.0,0.0,0.0,0.0,0.0,0.0,-1.0974,-1.2268,-1.3528,0.0,0.0,0.0,0.0,0.0,0.0,0.0,0.0,0.0,0.0,-1.992,-2.0645,-2.1365,0.0,0.0,-2.2441,-2.2618,-2.2618,-2.2618,-2.2618,-2.2627,-2.2494,0.0,0.0,0.0,0.0,0.0,0.0,0.0,0.0,0.0,0.0,0.0,0.0,0.0,0.0,0.0,0.0,0.0,0.0,0.0,0.0,0.0,0.0,0.0,0.0,0.0,0.0,0.0,0.0,0.0,0.0,0.0,0.0,0.0,0.0,0.0,0.0,0.0,0.0,0.0,0.0,0.0,0.0,0.0,0.0,0.0,0.0,0.0,0.0,0.0,0.0,0.0,0.0,-1.9161,-1.939,-1.9301,-1.9292,-1.9292,-1.9292,-1.9301,-1.9222,-1.9199,-1.903,0.0,0.0,0.0,0.0,0.0,0.0,0.0,0.0,0.0,0.0,0.0,0.0,0.0,0.0,0.0,0.0,0.0,0.0,0.0,0.0,0.0,0.0,0.0,0.0,0.0,0.0,0.0,0.0,-1.1658,-1.3346,-1.449,0.0,0.0,0.0,0.0,0.0,0.0,0.0,0.0,0.0,0.0,-2.0292,-2.1096,-2.1811,-2.2274,-2.253,-2.2706,-2.2882,-2.2891,-2.2891,-2.2891,-2.2882,0.0,0.0,0.0,0.0,0.0,0.0,0.0,0.0,0.0,0.0,0.0,0.0,0.0,0.0,0.0,0.0,0.0,0.0,0.0,0.0,0.0,0.0,0.0,0.0,0.0,0.0,0.0,-1.3489,0.0,0.0,-1.2026,0.0,0.0,0.0,0.0,0.0,0.0,0.0,0.0,0.0,0.0,0.0,0.0,0.0,0.0,0.0,0.0,0.0,0.0,0.0,0.0,0.0,0.0,-1.917,-1.9566,-1.9427,-1.932,-1.932,-1.9301,-1.925,-1.9029,-1.9399,-1.9277,-1.8614,0.0,0.0,0.0,0.0,0.0,0.0,0.0,0.0,0.0,0.0,0.0,0.0,0.0,0.0,0.0,0.0,0.0,0.0,0.0,0.0,0.0,0.0,0.0,0.0,0.0,0.0,-1.0449,-1.3136,-1.5121,0.0,0.0,0.0,0.0,0.0,0.0,0.0,0.0,0.0,-1.9047,-1.9828,-2.0654,-2.1562,-2.2087,-2.2441,-2.2706,-2.2969,-2.3135,-2.3047,-2.3047,-2.3144,0.0,0.0,0.0,0.0,0.0,0.0,0.0,0.0,0.0,0.0,0.0,0.0,0.0,0.0,0.0,0.0,0.0,0.0,0.0,0.0,0.0,0.0,0.0,0.0,0.0,0.0,0.0,-1.4867,-1.4327,0.0,0.0,0.0,0.0,0.0,0.0,0.0,0.0,0.0,0.0,0.0,-1.429,-1.5127,0.0,0.0,0.0,0.0,0.0,0.0,0.0,0.0,0.0,0.0,0.0,0.0,-1.9861,-2.0438,-2.0081,-1.9907,-2.0108,-2.0145,-1.9989,-1.9796,-1.9419,-1.8897,-1.8051,0.0,0.0,0.0,0.0,0.0,0.0,0.0,0.0,0.0,0.0,0.0,0.0,0.0,0.0,0.0,0.0,0.0,0.0,0.0,0.0,0.0,0.0,0.0,0.0,0.0,-1.1184,0.0,0.0,0.0,0.0,0.0,0.0,0.0,0.0,0.0,0.0,0.0,-1.8409,-1.9347,-2.0184,-2.1006,-2.1642,-2.2255,-2.2706,0.0,0.0,0.0,0.0,0.0,0.0,0.0,0.0,0.0,0.0,0.0,0.0,0.0,0.0,-2.2134,-2.2184,-2.2203,-2.224,-2.2379,0.0,0.0,0.0,0.0,0.0,0.0,0.0,0.0,0.0,0.0,0.0,0.0,0.0,0.0,-1.598,0.0,-1.4878,0.0,0.0,0.0,0.0,0.0,0.0,0.0,0.0,-1.4684,-1.4672,-1.4823,-1.5477,-1.6099,0.0,-1.6211,-1.6349,0.0,0.0,0.0,0.0,0.0,0.0,0.0,0.0,-2.0513,-2.0931,-2.04,-2.0232,-2.0352,-2.0313,-2.0144,-1.9853,-1.9204,-1.8625,-1.8055,-1.752,-1.6937,0.0,0.0,0.0,0.0,0.0,0.0,0.0,0.0,0.0,0.0,0.0,0.0,0.0,0.0,0.0,0.0,0.0,0.0,0.0,0.0,0.0,0.0,0.0,-1.175,0.0,0.0,0.0,0.0,0.0,0.0,0.0,0.0,0.0,-1.6979,-1.7807,-1.8627,-1.9455,-2.0365,-2.1177,-2.1731,0.0,0.0,0.0,0.0,0.0,0.0,0.0,-2.3144,-2.3144,-2.3144,-2.3144,-2.3144,-2.2969,-2.293,-2.3065,0.0,0.0,-2.3167,-2.3189,-2.3275,-2.3275,-2.3585,-2.3868,-2.3868,-2.3858,-2.3951,0.0,0.0,0.0,0.0,0.0,0.0,0.0,0.0,-1.7827,-1.7304,0.0,-1.5803,0.0,0.0,0.0,0.0,0.0,-1.5073,0.0,0.0,-1.5356,-1.5363,-1.5737,-1.5845,-1.6055,-1.655,-1.6595,-1.7131,-1.8033,-1.7861,0.0,0.0,0.0,0.0,0.0,0.0,-2.0969,-2.1155,-2.0585,-2.0238,-2.0247,-1.9992,-1.9556,-1.9127,-1.858,-1.847,-1.8703,-1.7606,-1.6829,-1.6528,-1.578,0.0,0.0,0.0,0.0,0.0,0.0,0.0,0.0,0.0,0.0,0.0,0.0,0.0,0.0,0.0,0.0,0.0,0.0,0.0,0.0,-1.0947,0.0,0.0,0.0,0.0,0.0,0.0,0.0,0.0,0.0,0.0,-1.6979,-1.7714,-1.845,-1.9455,0.0,0.0,0.0,0.0,-2.2882,-2.3057,-2.3144,-2.3144,-2.3144,-2.3144,-2.3144,-2.3144,0.0,0.0,-2.3144,-2.3144,-2.3271,-2.3691,-2.3779,-2.3628,-2.3186,-2.3528,-2.3784,-2.3794,-2.3925,-2.4111,-2.4111,-2.4272,-2.4448,-2.2261,0.0,0.0,0.0,0.0,-2.0471,-1.9768,-1.9133,-1.868,-1.7986,-1.7044,-1.6858,0.0,0.0,0.0,0.0,0.0,0.0,-1.5785,-1.5838,-1.5642,-1.5642,-1.5825,-1.5838,-1.6035,-1.6602,-1.6588,-1.7153,-1.8079,-1.8255,-1.8742,-1.9643,0.0,0.0,0.0,0.0,-2.1176,-2.154,-2.1022,-2.0678,-2.0589,-2.0332,-1.9788,-1.8888,-1.8712,-1.8349,-1.7699,-1.7434,-1.6929,-1.6282,-1.5893,0.0,0.0,0.0,0.0,0.0,0.0,0.0,0.0,0.0,0.0,0.0,0.0,0.0,0.0,0.0,0.0,0.0,0.0,0.0,-1.1688,-1.2119,-1.2978,0.0,0.0,0.0,0.0,0.0,0.0,0.0,0.0,0.0,-1.7153,-1.8172,-1.9188,0.0,0.0,-2.1909,-2.2274,-2.2706,-2.3057,-2.3144,-2.3144,0.0,-2.3144,-2.3144,-2.3144,-2.3144,-2.3144,-2.3144,-2.3144,-2.3144,-2.3096,-2.3144,-2.3557,-2.3861,-2.3623,-2.4208,-2.4581,-2.4449,-2.466,-2.4861,-2.4775,-2.4668,-2.4765,-2.2911,-2.2517,-2.2293,-2.2036,-2.1635,-2.1122,-2.0374,-1.9646,-1.9188,-1.845,-1.7606,-1.7426,-1.6864,-1.6218,-1.5927,0.0,0.0,0.0,-1.5845,-1.5825,-1.5825,-1.5825,-1.5825,-1.5825,-1.6015,-1.6292,-1.648,-1.7052,-1.7807,-1.8257,-1.88,-1.9494,0.0,0.0,-2.1443,-2.1286,-2.1307,-2.1356,-2.1006,-2.0645,-2.0382,-1.9928,-1.9379,-1.855,-1.8265,-1.7885,-1.7246,-1.6864,-1.6487,-1.6028,-1.5743,-1.5279,0.0,0.0,0.0,0.0,0.0,0.0,0.0,0.0,0.0,0.0,0.0,-0.8989,-0.887,0.0,0.0,0.0,-1.0314,-1.1482,-1.2754,-1.2995,0.0,0.0,0.0,0.0,0.0,0.0,0.0,-1.5927,-1.6305,-1.6777,-1.7426,-1.845,-1.9463,-2.0201,-2.1203,-2.1928,-2.2264,0.0,-2.2969,-2.2969,-2.3057,-2.3144,-2.3144,-2.3144,-2.3144,-2.3144,-2.3057,-2.2969,-2.2969,-2.2872,-2.2794,-2.2782,-2.3162,-2.361,-2.3436,-2.4191,-2.4765,-2.4833,-2.4956,-2.503,-2.4932,-2.4941,-2.4894,-2.3115,-2.3036,-2.2577,-2.2115,-2.1626,-2.1203,-2.0555,-1.9928,-1.9471,-1.8827,-1.8079,-1.7613,-1.7153,-1.6798,-1.6116,0.0,-1.5825,-1.5825,-1.5825,-1.5825,-1.5825,-1.5825,-1.5825,-1.5825,-1.5818,-1.5798,-1.6298,-1.6777,-1.7333,-1.7971,-1.8434,-1.8727,-1.982,-2.0736,-2.1203,-2.1302,-2.1203,-2.0898,-2.0464,-2.0019,-1.9745,-1.9104,-1.8465,-1.7994,-1.752,-1.7145,-1.6885,-1.6211,-1.5737,-1.573,-1.5267,-1.4892,-1.4682,0.0,0.0,0.0,0.0,0.0,0.0,0.0,0.0,0.0,0.0,0.0,0.0,0.0,0.0,-0.9624,-1.1389,0.0,-1.342,-1.3567,0.0,0.0,0.0,-1.5858,-1.5832,-1.5825,-1.5927,-1.6123,0.0,0.0,-1.7628,-1.8542,-1.9471,-2.011,-2.0942,-2.1571,-2.2017,-2.2451,-2.2803,-2.2794,-2.2882,-2.3047,-2.296,-2.296,-2.296,-2.2969,-2.2882,-2.2794,-2.2803,-2.2618,-2.2432,-2.2353,-2.2792,-2.2985,-2.2985,-2.3626,-2.4286,-2.451,-2.473,-2.4777,-2.4758,-2.4613,-2.4453,-2.2949,-2.3036,-2.24,-2.2008,-2.167,-2.1186,-2.0736,-2.0201,-1.9662,-1.902,-1.8087,-1.7986,-1.7434,-1.6595,-1.6021,-1.5825,-1.5825,-1.5825,-1.5825,-1.5825,-1.5825,-1.5825,-1.5825,-1.5825,-1.5818,-1.5798,-1.6109,-1.6595,-1.7066,-1.7426,-1.7699,-1.7971,-1.8442,-1.9171,-2.0266,-2.0464,-2.0382,-1.9903,-1.9637,-1.9188,-1.8542,-1.8187,-1.7721,-1.7261,-1.6965,-1.6581,-1.6116,-1.573,-1.5445,-1.5274,-1.4783,-1.449,-1.4394,-1.3962,0.0,0.0,0.0,0.0,0.0,0.0,0.0,0.0,0.0,-0.9049,-0.9225,0.0,-0.943,0.0,-1.178,-1.2958,-1.3431,-1.389,0.0,0.0,-1.5553,-1.5838,-1.5825,-1.5825,-1.5933,-1.6123,-1.64,-1.677,-1.7333,-1.8172,-1.8904,-1.9646,-2.0835,-2.1651,-2.183,-2.2176,-2.253,-2.253,-2.253,-2.253,-2.2608,-2.252,-2.2608,-2.252,-2.253,-2.252,-2.252,-2.2441,-2.2344,-2.2204,-2.2333,-2.2391,-2.2327,-2.2562,-2.2691,-2.2835,-2.3561,-2.4072,-2.3879,-2.3446,-2.3198,-2.2763,-2.2732,-2.2124,-2.1722,-2.1347,-2.1078,-2.0637,-2.011,-1.9762,-1.902,-1.8087,-1.7714,-1.716,-1.6581,-1.6015,-1.5825,-1.5825,-1.5825,-1.5825,-1.5825,-1.5825,-1.5825,-1.5825,-1.5825,-1.5825,-1.5812,-1.6116,-1.6319,-1.6602,-1.6871,-1.7044,-1.7232,-1.7527,-1.79,-1.8619,-1.9171,-1.9271,-1.8912,-1.8651,-1.8288,-1.7628,-1.7239,-1.6857,-1.6494,-1.6109,-1.573,-1.535,-1.4962,-1.4675,-1.4586,-1.4208,-1.3919,-1.3721,-1.3534,-1.2989,0.0,0.0,0.0,0.0,0.0,0.0,0.0,0.0,0.0,0.0,0.0,-0.9826,-1.0806,-1.2078,-1.3055,-1.3624,-1.4298,-1.4783,-1.5261,-1.5553,-1.5838,-1.5825,-1.5825,-1.5927,-1.613,-1.64,-1.6777,-1.7239,-1.7978,-1.8635,-1.9188,-2.0292,-2.1195,-2.1562,-2.1919,-2.2087,-2.2264,-2.2353,-2.2441,-2.2441,-2.2441,-2.2441,-2.2353,-2.2176,-2.2087,-2.2087,-2.19,-2.1722,-2.1651,-2.1635,-2.169,-2.1534,-2.1653,-2.1825,-2.1861,-2.2182,-2.2568,-2.2844,-2.2622,-2.2425,-2.2568,-2.2349,-2.1857,-2.1347,-2.0854,-2.0889,-2.0555,-1.9845,-1.9579,-1.8928,-1.79,-1.7167,-1.6697,-1.6494,-1.6015,-1.5825,-1.5825,-1.5825,-1.5825,-1.5825,-1.5825,-1.5825,-1.5825,-1.5825,-1.5825,-1.5825,-1.6028,-1.613,-1.6123,-1.64,-1.6494,-1.6487,-1.6683,-1.6784,-1.6784,-1.7606,-1.7971,-1.8001,-1.7751,-1.7377,-1.6885,-1.6379,-1.5994,-1.5635,-1.5153,-1.4771,-1.4496,-1.4004,-1.3709,-1.3715,-1.3437,-1.3249,-1.2953,-1.2856,-1.2565,0.0,-1.1585,0.0,0.0,0.0,0.0,0.0,0.0,0.0,0.0,-0.9525,-1.0216,-1.1487,-1.2273,-1.305,-1.3715,-1.4508,-1.5089,-1.535,-1.5553,-1.575,-1.573,-1.5832,-1.5927,-1.6123,-1.64,-1.6777,-1.7232,-1.7893,-1.845,-1.8819,-1.9554,-2.0382,-2.1024,-2.1383,-2.1642,-2.1919,-2.2087,-2.2078,-2.2167,-2.2176,-2.2167,-2.2167,-2.1909,-2.1642,-2.1633,-2.1275,-2.0997,-2.0997,-2.0925,-2.0835,-2.0817,-2.0942,-2.1076,-2.1084,-2.0898,-2.101,-2.1793,-2.1922,-2.1816,-2.233,-2.2316,-2.1697,-2.0889,-1.9909,-2.0249,-2.0192,-1.9845,-1.9196,-1.8365,-1.7419,-1.6871,-1.6494,-1.6224,-1.5927,-1.5825,-1.5825,-1.5825,-1.5825,-1.5825,-1.5825,-1.5825,-1.5825,-1.5825,-1.5825,-1.5825,-1.5832,-1.5832,-1.5927,-1.5927,-1.5832,-1.5737,-1.5724,-1.5724,-1.5724,0.0,0.0,0.0,-1.708,-1.6595,-1.6021,-1.5724,-1.5242,-1.4586,-1.41,0.0,-1.3414,-1.3141,-1.2948,-1.2953,-1.2565,0.0,0.0,0.0,0.0,0.0,0.0,0.0,0.0,0.0,0.0,0.0,-0.8531,-0.8737,-0.9137,-1.0019,-1.0801,-1.1292,-1.2181,-1.2856,-1.3028,-1.3913,-1.449,-1.4561,-1.5045,-1.5439,-1.554,-1.573,-1.5927,-1.6123,-1.6224,-1.6501,-1.6972,-1.734,-1.7792,-1.8442,-1.8912,-1.9379,-2.011,-2.0736,-2.1186,-2.1266,-2.1266,-2.1266,-2.1266,-2.1257,-2.1347,-2.1266,-2.1177,-2.1087,-2.1087,-2.0916,-2.0736,-2.0736,-2.0374,-2.0102,-2.0102,-2.0004,-1.9987,-1.9971,-1.9678,-1.9853,-2.0857,-2.0711,-2.0388,-2.1974,-2.1949,-2.1149,-2.0339,0.0,-1.9621,-1.9471,-1.9288,-1.892,-1.8257,-1.7326,-1.677,-1.6501,-1.6218,-1.5927,-1.5825,-1.5825,-1.5825,-1.5825,-1.5825,-1.5825,-1.5838,-1.5845,-1.5534,-1.5432,-1.5458,-1.5452,-1.5452,-1.5458,-1.5452,-1.5452,-1.5267,-1.5261,-1.5166,-1.5064,-1.4962,-1.5452,-1.6529,-1.6035,-1.5547,-1.5261,-1.4555,-1.407,-1.3908,-1.313,0.0,0.0,0.0,0.0,0.0,0.0,0.0,0.0,-1.11,0.0,-1.0408,-1.0117,-0.9826,-0.943,-0.9034,-0.8733,-0.8432,-0.8432,-0.8634,-0.9137,-1.0019,-1.0806,-1.1198,-1.198,-1.2565,-1.2748,-1.3539,-1.4118,-1.4286,-1.4771,-1.5159,-1.5445,-1.5547,-1.5737,-1.5933,-1.613,-1.6319,-1.6602,-1.7052,-1.7426,-1.7885,-1.8357,-1.8827,-1.9288,-2.011,-2.0727,-2.0898,-2.0997,-2.0997,-2.0997,-2.0916,-2.0826,-2.0826,-2.0645,-2.0464,-2.0464,-2.03,-2.0119,-2.0011,-1.9745,-1.9563,-1.9379,-1.9196,-1.9112,-1.902,-1.8827,-1.8775,-1.9414,-1.941,-1.9379,-2.1518,-2.1491,-2.0598,-1.9877,-1.9348,-1.898,-1.8735,-1.855,0.0,0.0,0.0,-1.6683,-1.6407,-1.613,-1.5927,-1.5825,-1.5825,-1.5737,-1.573,-1.5629,-1.5737,-1.5852,-1.5777,-1.5235,-1.4943,-1.4968,-1.5077,-1.5083,-1.4981,-1.4981,-1.4885,-1.4885,-1.479,-1.4694,-1.44,-1.4202,-1.4496,-1.5185,-1.4885,-1.4598,-1.4394,-1.3392,-1.2904,-1.3125,-1.236,-1.1785,-1.1688,-1.1292,-1.1096,-1.11,-1.0998,-1.0806,-1.0609,-1.0507,-1.0212,-0.9821,-0.9628,-0.9331,-0.9038,-0.8634,-0.8333,-0.8333,-0.8333,-0.8634,-0.9137,-0.9821,-1.0511,-1.0998,-1.159,-1.2078,-1.2662,-1.326,-1.3846,-1.4202,-1.4496,-1.4885,-1.5261,-1.5452,-1.554,-1.573,-1.5933,-1.6123,-1.6224,-1.669,-1.7145,-1.7326,-1.7885,-1.8442,-1.8827,-1.9571,-2.03,-2.0654,-2.0645,-2.0727,-2.0727,-2.0555,-2.0473,-2.0473,-2.011,-1.9837,-1.9745,-1.9571,-1.9296,-1.9188,-1.9088,-1.8912,-1.8735,-1.8542,-1.8442,-1.8365,-1.8179,-1.7994,-1.79,-1.8179,-1.845,-2.0887,-2.1048,-2.0235,-1.9338,-1.8349,-1.8696,-1.8265,-1.7512,-1.7512,-1.7059,-1.6312,-1.6319,-1.6123,-1.5832,-1.5825,-1.5825,-1.5832,-1.5635,-1.5432,-1.5222,-1.5586,-1.5823,-1.5721,-1.486,-1.4435,-1.4441,-1.4867,-1.4987,-1.479,-1.4496,-1.4298,-1.4106,-1.3823,-1.3636,-1.334,-1.3244,-1.3244,-1.3249,-1.3715,-1.3698,-1.308,-1.2926,-1.2457,-1.1873,-1.1492,-1.1096,-1.0609,-1.0507,-1.0511,-1.0507,-1.0117,-0.9826,-0.9723,-0.9324,-0.9023,-0.9023,-0.8924,-0.8825,-0.8531,-0.8435,-0.8336,-0.8038,-0.8233,-0.8634,-0.9133,-0.9533,-0.992,-1.0413,-1.1002,-1.1585,-1.2262,-1.2667,-1.3249,-1.3823,-1.4208,-1.4496,-1.4783,-1.5255,-1.5445,-1.554,-1.573,-1.5927,-1.6123,-1.6312,-1.6588,-1.7138,-1.7419,-1.78,-1.8566,-1.9304,-1.977,-1.9879,-1.987,-1.9762,-1.9845,-1.9762,-1.9762,-1.9762,-1.9471,-1.9279,-1.9279,-1.9004,-1.8635,-1.8635,-1.845,-1.8265,-1.8172,-1.8179,-1.7994,-1.7807,-1.7621,-1.7333,-1.7254,-1.7153,-1.7239,-2.0144,-2.0103,-1.9487,-1.8588,-1.7702,-1.7777,-1.7434,-1.6683,-1.6581,-1.64,-1.6224,-1.6224,-1.6028,-1.5635,-1.5642,-1.5757,-1.579,-1.5471,-1.5051,-1.4727,-1.5178,-1.5421,-1.5332,-1.4376,-1.3861,-1.389,-1.4112,-1.4214,-1.4022,-1.3817,-1.3624,-1.3431,-1.305,-1.2856,-1.2759,-1.2462,-1.2273,-1.217,-1.2748,-1.2732,-1.192,-1.196,-1.1688,-1.1194,-1.0801,-1.0413,-1.0019,-0.9826,-0.9723,-0.9521,-0.9324,-0.9126,-0.9126,-0.8924,-0.8825,-0.8825,-0.8627,-0.8531,-0.8432,-0.8233,-0.8137,-0.8038,-0.8137,-0.8336,-0.8733,-0.9327,-0.9723,-1.0019,-1.0703,-1.1292,-1.1678,-1.2365,-1.2953,-1.3249,-1.3732,-1.4208,-1.4496,-1.4777,-1.5064,-1.5261,-1.5445,-1.5635,-1.5832,-1.6028,-1.6312,-1.6683,-1.6965,-1.7527,-1.7908,-1.8465,-1.8928,-1.9128,-1.922,-1.9204,-1.9204,-1.9104,-1.9012,-1.902,-1.8735,-1.8635,-1.8635,-1.8357,-1.8172,-1.7885,-1.7707,-1.7613,-1.7333,-1.7239,-1.7239,-1.7145,-1.7059,-1.6871,-1.6777,-1.6683,-1.6871,-1.9396,-1.9353,-1.8767,-1.7863,-1.7066,-1.685,-1.6501,-1.6028,-1.5737,-1.5743,-1.5933,-1.594,-1.5743,-1.5452,-1.5452,-1.5484,-1.5606,-1.5096,-1.4669,-1.4244,-1.4688,-1.4929,-1.4846,-1.3794,-1.3284,-1.3232,-1.334,-1.3346,-1.3249,-1.305,-1.2856,-1.2754,-1.237,-1.2175,-1.2078,-1.159,-1.1394,-1.1389,-1.1688,-1.157,-1.1161,-1.1086,-1.09,-1.0511,-1.0117,-0.9723,-0.9426,-0.9232,-0.9031,-0.8825,-0.8726,-0.8726,-0.8726,-0.8627,-0.8531,-0.8531,-0.8333,-0.8134,-0.8237,-0.8038,-0.8038,-0.8038,-0.8038,-0.8038,-0.8333,-0.8931,-0.9426,-0.9624,-1.0314,-1.09,-1.1292,-1.1883,-1.2565,-1.2764,-1.3352,-1.3732,-1.4112,-1.44,-1.4688,-1.4885,-1.5261,-1.5452,-1.5452,-1.5737,-1.6123,-1.6319,-1.6777,-1.7145,-1.7347,-1.7621,-1.7893,-1.8172,-1.845,-1.8643,-1.8643,-1.855,-1.845,-1.8357,-1.8079,-1.7986,-1.79,-1.7807,-1.7621,-1.7239,-1.7145,-1.7052,-1.6683,-1.6683,-1.6588,-1.6588,-1.6595,-1.6494,-1.64,-1.6393,-1.6595,-1.8674,-1.8838,-1.8458,-1.7557,-1.6452,-1.6103,-1.573,-1.5439,-1.5267,-1.5178,-1.5178,-1.5178,-1.5178,-1.5178,-1.5077,-1.5089,-1.5089,-1.4592,-1.4082,-1.3663,-1.4142,-1.4377,-1.428,-1.3329,-1.2603,-1.2313,-1.2834,-1.2856,-1.2565,-1.2467,-1.2175,-1.1785,-1.1688,-1.1389,-1.0998,-1.09,-1.0708,-1.0511,-1.0314,-1.0408,-1.0801,-1.0605,-1.0216,-0.9727,-0.9628,-0.9426,-0.8924,-0.8829,-0.8829,-0.8825,-0.8528,-0.8432,-0.8333,-0.7942,-0.7743,-0.7743,-0.7441,-0.7437,-0.7643,-0.7842,-0.7939,-0.8038,-0.7939,-0.8038,-0.8038,-0.8336,-0.8829,-0.943,-0.9624,-1.0216,-1.11,-1.1296,-1.1785,-1.2565,-1.2861,-1.3055,-1.3539,-1.401,-1.4298,-1.44,-1.479,-1.5178,-1.5172,-1.5356,-1.5737,-1.6028,-1.64,-1.6784,-1.7015,-1.6986,-1.6864,-1.7044,-1.752,-1.8079,-1.8079,-1.8172,-1.7986,-1.7807,-1.7527,-1.734,-1.7153,-1.6965,-1.6676,-1.6777,-1.6683,-1.6676,-1.6581,-1.6588,-1.6494,-1.6218,-1.6218,-1.6123,-1.5927,-1.5927,-1.6123,-1.7961,-1.8325,-1.771,-1.6914,-1.6021,-1.535,-1.507,-1.4975,-1.4592,-1.44,-1.44,-1.4214,-1.431,-1.4592,-1.449,-1.4508,-1.4551,-1.4238,-1.3511,-1.2785,-1.3767,-1.411,-1.3705,-1.2759,-1.2237,-1.2047,-1.2165,-1.217,-1.1883,-1.159,-1.1296,-1.09,-1.09,-1.0806,-1.0511,-1.0216,-1.0015,-0.992,-0.9521,-0.9418,-0.9616,-0.9624,-0.9525,-0.9126,-0.9126,-0.8928,-0.863,-0.8528,-0.8432,-0.8137,-0.8038,-0.7839,-0.7736,-0.7441,-0.7338,-0.7338,-0.7238,-0.7235,-0.7338,-0.7437,-0.7637,-0.7743,-0.7743,-0.7842,-0.8038,-0.8137,-0.8336,-0.8832,-0.9331,-0.9826,-1.0216,-1.0708,-1.1198,-1.1785,-1.2175,-1.257,-1.305,-1.3335,-1.363,-1.3823,-1.4304,-1.4592,-1.4694,-1.4981,-1.5363,-1.5553,-1.5832,-1.6218,-1.6434,-1.6508,-1.648,-1.6257,-1.6749,-1.7145,-1.7246,-1.7239,-1.7153,-1.7059,-1.6958,-1.6871,-1.6777,-1.6683,-1.6588,-1.6407,-1.6312,-1.6305,-1.6109,-1.6109,-1.6021,-1.5832,-1.5648,-1.5553,-1.5458,-1.5363,-1.556,-1.7022,-1.7479,-1.6434,-1.5642,-1.5166,-1.4682,-1.4394,-1.4208,-1.3811,-1.3619,-1.3619,-1.334,-1.3437,-1.3721,-1.3715,-1.3841,-1.3978,-1.367,-1.2948,-1.2221,-1.3283,-1.3619,-1.3019,-1.2068,-1.156,-1.1575,-1.1492,-1.1394,-1.1194,-1.0806,-1.0413,-1.0216,-1.0113,-1.0019,-0.9916,-0.9525,-0.9426,-0.9327,-0.8924,-0.8726,-0.873,-0.8737,-0.8733,-0.8726,-0.8627,-0.8432,-0.8233,-0.8137,-0.7939,-0.7543,-0.754,-0.7344,-0.7141,-0.7039,-0.6936,-0.6836,-0.6839,-0.6936,-0.6936,-0.7039,-0.7238,-0.7444,-0.754,-0.7643,-0.7842,-0.7942,-0.8041,-0.8333,-0.8931,-0.9327,-0.9628,-1.0117,-1.0605,-1.0998,-1.1487,-1.198,-1.237,-1.2759,-1.305,-1.3346,-1.3727,-1.4106,-1.4304,-1.4688,-1.4981,-1.5178,-1.5363,-1.5655,-1.5757,-1.6035,-1.6008,-1.567,-1.5994,-1.6298,-1.6494,-1.6683,-1.6588,-1.6501,-1.6494,-1.6494,-1.6393,-1.6305,-1.6305,-1.5927,-1.594,-1.5845,-1.5648,-1.5642,-1.5547,-1.5452,-1.5166,-1.5083,-1.5178,-1.5083,-1.5198,-1.6164,-1.6306,-1.4543,-1.3651,-1.3584,-1.38,-1.3624,-1.3244,-1.3147,-1.305,-1.2856,-1.2565,-1.2467,-1.2565,-1.2856,-1.3255,-1.3471,-1.3077,-1.2473,-1.1955,-1.2489,-1.251,-1.2001,-1.096,-1.0462,-1.0592,-1.0909,-1.0811,-1.0306,-1.0113,-0.9924,-0.9624,-0.943,-0.9133,-0.9027,-0.8924,-0.8825,-0.8825,-0.8528,-0.8432,-0.8333,-0.7942,-0.7942,-0.8333,-0.8134,-0.7939,-0.7646,-0.7441,-0.7235,-0.7235,-0.7138,-0.7039,-0.6842,-0.6539,-0.6237,-0.5837,-0.5939,-0.6142,-0.6439,-0.6639,-0.6942,-0.7138,-0.7135,-0.7341,-0.7543,-0.7643,-0.7746,-0.8038,-0.8333,-0.8829,-0.9426,-0.9624,-1.0019,-1.0703,-1.1002,-1.1292,-1.1585,-1.2078,-1.2565,-1.2759,-1.305,-1.3431,-1.4106,-1.4298,-1.4592,-1.4885,-1.5083,-1.5191,-1.5504,-1.5389,-1.5267,-1.5166,-1.5261,-1.5458,-1.6305,-1.64,-1.6305,-1.6218,-1.6028,-1.613,-1.5933,-1.5737,-1.5642,-1.5547,-1.5465,-1.5274,-1.5178,-1.5083,-1.5077,-1.4981,-1.4885,-1.4892,-1.4694,-1.479,-1.4802,-1.5198,-1.5454,-1.3776,-1.2871,-1.2592,-1.2829,-1.2851,-1.2662,-1.2467,-1.2273,-1.2073,-1.198,-1.1785,-1.1688,-1.1585,-1.198,-1.2473,-1.2391,-1.1785,-1.1063,-1.0872,-1.0998,-1.1423,-1.0596,-1.0083,-0.9989,-1.0109,-0.992,-0.932,-0.9221,-0.9221,-0.9126,-0.9027,-0.8928,-0.8825,-0.8627,-0.8432,-0.8333,-0.8041,-0.7839,-0.7637,-0.7437,-0.7437,-0.7637,-0.7537,-0.7437,-0.7338,-0.7141,-0.6842,-0.6736,-0.6539,-0.6339,-0.6039,-0.5934,-0.5834,-0.5636,-0.5737,-0.5737,-0.5837,-0.5937,-0.6237,-0.6637,-0.6736,-0.6939,-0.7241,-0.7441,-0.7646,-0.7743,-0.8038,-0.8336,-0.8733,-0.913,-0.9529,-0.9924,-1.0314,-1.0609,-1.1002,-1.1389,-1.178,-1.2078,-1.2565,-1.305,-1.3437,-1.3727,-1.3829,-1.4022,-1.4208,-1.4508,-1.4719,-1.4802,-1.4783,-1.4675,-1.4879,-1.5178,-1.5458,-1.5648,-1.5553,-1.5553,-1.5458,-1.5458,-1.5363,-1.5267,-1.5267,-1.5166,-1.4981,-1.4892,-1.4892,-1.4694,-1.4598,-1.44,-1.4304,-1.4214,-1.4022,-1.4016,-1.4022,-1.4142,-1.428,-1.3028,-1.2104,-1.1521,-1.1955,-1.2078,-1.1878,-1.1683,-1.1487,-1.1292,-1.1194,-1.1096,-1.0904,-1.0708,-1.09,-1.1492,-1.1609,-1.1198,-1.0173,-0.9772,-1.0096,-1.0735,-1.022,-0.9702,-0.9402,-0.9316,-0.9126,-0.8821,-0.8722,-0.8627,-0.8627,-0.8627,-0.8528,-0.8531,-0.8233,-0.8038,-0.7842,-0.7643,-0.7341,-0.7138,-0.7036,-0.6939,-0.6839,-0.6736,-0.6736,-0.6936,-0.6639,-0.6339,-0.6039,-0.5839,-0.5541,-0.5236,-0.5236,-0.5135,-0.5133,-0.5135,-0.5236,-0.5238,-0.5336,-0.5536,-0.5939,-0.6237,-0.6439,-0.6936,-0.7241,-0.7344,-0.7547,-0.7746,-0.7942,-0.8233,-0.8634,-0.9031,-0.9327,-0.9624,-1.0019,-1.0413,-1.0703,-1.11,-1.1487,-1.198,-1.2467,-1.2861,-1.3055,-1.3152,-1.3244,-1.3528,-1.3727,-1.4033,-1.4124,-1.4304,-1.41,-1.4298,-1.4502,-1.4598,-1.4598,-1.4981,-1.5077,-1.5077,-1.4981,-1.4885,-1.4885,-1.479,-1.4688,-1.4688,-1.4598,-1.4502,-1.4208,-1.4016,-1.3721,-1.363,-1.3539,-1.3443,-1.3244,-1.3255,-1.3083,-1.3316,-1.2165,-1.1244,-1.0644,-1.1272,-1.1292,-1.09,-1.0904,-1.0703,-1.0511,-1.0413,-1.0408,-1.0314,-1.0212,-1.0314,-1.0516,-1.0932,-1.0516,-0.9592,-0.9587,-0.9813,-1.0349,-0.9525,-0.9019,-0.8821,-0.8825,-0.8722,-0.852,-0.8428,-0.8432,-0.8333,-0.8137,-0.8038,-0.8038,-0.7743,-0.7646,-0.7444,-0.7238,-0.7039,-0.6742,-0.6539,-0.6239,-0.6042,-0.5739,-0.5837,-0.6337,-0.5837,-0.5536,-0.524,-0.524,-0.4941,-0.4537,-0.4336,-0.4236,-0.4133,-0.4236,-0.4336,-0.4437,-0.4636,-0.4935,-0.5238,-0.5641,-0.6039,-0.6337,-0.6639,-0.7042,-0.7344,-0.7543,-0.7743,-0.7939,-0.8237,-0.8535,-0.8825,-0.9327,-0.9525,-0.9723,-1.0117,-1.0609,-1.1096,-1.1492,-1.1785,-1.2175,-1.237,-1.2467,-1.2662,-1.2953,-1.3152,-1.3363,-1.3454,-1.3539,-1.3443,-1.3636,-1.3732,-1.3636,-1.3545,-1.4214,-1.4694,-1.479,-1.4694,-1.4502,-1.4406,-1.4208,-1.4112,-1.3919,-1.3823,-1.363,-1.3437,-1.334,-1.3141,-1.305,-1.2861,-1.2759,-1.2565,-1.2683,-1.2001,-1.2319,-1.1492,-1.0783,-1.0476,-1.0694,-1.0708,-1.0511,-1.0507,-1.0314,-0.992,-0.9821,-0.962,-0.9324,-0.9324,-0.9525,-0.9838,-1.004,-0.9731,-0.9106,-0.9011,-0.9324,-0.964,-0.9229,-0.8726,-0.8528,-0.8531,-0.8428,-0.8233,-0.8137,-0.8137,-0.8038,-0.7842,-0.7743,-0.7743,-0.7441,-0.7141,-0.6839,-0.6736,-0.6437,-0.6037,-0.5739,-0.5539,-0.5441,-0.5039,-0.4836,-0.5039,-0.5037,-0.4937,-0.4638,-0.4437,-0.4234,-0.3932,-0.3632,-0.3533,-0.3432,-0.3533,-0.3632,-0.3831,-0.393,-0.423,-0.4736,-0.5138,-0.5436,-0.5834,-0.6237,-0.6539,-0.6839,-0.7138,-0.7437,-0.7643,-0.7846,-0.8141,-0.8634,-0.8931,-0.9232,-0.9537,-0.983,-1.022,-1.0605,-1.09,-1.1096,-1.1296,-1.1585,-1.1878,-1.198,-1.2175,-1.2375,-1.2575,-1.2673,-1.2662,-1.2651,-1.2759,-1.2958,-1.2861,-1.2861,-1.3147,-1.363,-1.3919,-1.4112,-1.3919,-1.3829,-1.363,-1.3437,-1.3244,-1.305,-1.2856,-1.2657,-1.2559,-1.2462,-1.2365,-1.2175,-1.198,-1.1986,-1.2093,-1.1105,-1.132,-1.0909,-1.0404,-1.01,-1.0113,-1.0019,-0.992,-0.9817,-0.962,-0.9327,-0.9324,-0.9126,-0.8825,-0.8825,-0.9031,-0.924,-0.9343,-0.9031,-0.8513,-0.8513,-0.8829,-0.9145,-0.8733,-0.8432,-0.8333,-0.8233,-0.8134,-0.8038,-0.7942,-0.7839,-0.7842,-0.7543,-0.7441,-0.7441,-0.7039,-0.6736,-0.6437,-0.6239,-0.5942,-0.5438,-0.514,-0.4941,-0.4738,-0.4334,-0.4034,-0.3934,-0.4033,-0.4033,-0.3934,-0.3632,-0.3327,-0.3126,-0.2925,-0.2826,-0.2927,-0.2826,-0.2927,-0.3127,-0.3327,-0.3629,-0.4133,-0.4435,-0.4834,-0.5236,-0.5737,-0.6039,-0.6437,-0.6736,-0.7039,-0.7341,-0.7543,-0.7846,-0.8347,-0.8535,-0.8832,-0.9236,-0.9426,-0.9723,-1.0019,-1.0216,-1.0413,-1.0703,-1.09,-1.1194,-1.1194,-1.1389,-1.1585,-1.1688,-1.1785,-1.1775,-1.177,-1.1873,-1.2073,-1.2175,-1.2175,-1.2175,-1.2565,-1.2861,-1.305,-1.3147,-1.305,-1.2953,-1.2759,-1.2565,-1.2365,-1.217,-1.1975,-1.1878,-1.1683,-1.1585,-1.1389,-1.1194,-1.1198,-1.1203,-1.0314,-1.0314,-1.0314,-1.001,-0.9608,-0.9521,-0.9426,-0.9232,-0.9027,-0.8825,-0.8825,-0.8825,-0.8726,-0.8726,-0.863,-0.8726,-0.873,-0.8737,-0.8535,-0.8223,-0.8117,-0.8326,-0.8641,-0.8336,-0.8038,-0.7939,-0.7942,-0.7942,-0.7839,-0.7643,-0.7543,-0.7543,-0.7238,-0.7135,-0.7039,-0.6637,-0.6334,-0.6137,-0.5944,-0.5546,-0.4734,-0.464,-0.4438,-0.3932,-0.3629,-0.3429,-0.3229,-0.3027,-0.2927,-0.3029,-0.2724,-0.2522,-0.2422,-0.222,-0.222,-0.2322,-0.222,-0.222,-0.2422,-0.2826,-0.3128,-0.333,-0.3934,-0.4437,-0.4634,-0.5037,-0.5539,-0.6034,-0.6337,-0.6639,-0.7039,-0.7341,-0.7646,-0.7952,-0.824,-0.8528,-0.8726,-0.8825,-0.9126,-0.9426,-0.9628,-0.9727,-1.0117,-1.0314,-1.0413,-1.0413,-1.0605,-1.0801,-1.09,-1.0998,-1.0993,-1.1091,-1.1189,-1.1292,-1.1394,-1.1394,-1.1394,-1.1585,-1.1883,-1.2078,-1.2268,-1.237,-1.2278,-1.2083,-1.1785,-1.1683,-1.1487,-1.1292,-1.1096,-1.09,-1.0801,-1.0605,-1.0511,-1.0413,-1.031,-0.943,-0.9735,-0.9426,-0.9122,-0.9023,-0.9023,-0.8928,-0.8928,-0.8829,-0.8627,-0.8528,-0.8528,-0.8432,-0.8233,-0.8237,-0.8237,-0.8237,-0.8237,-0.8141,-0.8035,-0.8031,-0.8035,-0.8141,-0.8038,-0.7842,-0.7643,-0.7643,-0.7643,-0.7437,-0.7341,-0.7238,-0.7341,-0.6836,-0.6637,-0.6537,-0.6037,-0.5636,-0.5336,-0.5441,-0.4939,-0.4031,-0.3732,-0.3432,-0.3128,-0.2925,-0.2724,-0.2623,-0.2424,-0.2424,-0.2522,-0.2424,-0.2224,-0.2122,-0.1919,-0.1717,-0.1818,-0.1817,-0.1818,-0.1818,-0.2121,-0.2524,-0.2826,-0.3331,-0.3632,-0.3929,-0.4533,-0.4935,-0.5336,-0.5739,-0.6239,-0.6539,-0.6842,-0.7244,-0.7646,-0.7939,-0.823,-0.8428,-0.8726,-0.8825,-0.9023,-0.9027,-0.9126,-0.9324,-0.962,-0.9826,-0.992,-1.0117,-1.0413,-1.031,-1.0404,-1.0404,-1.0507,-1.0605,-1.0609,-1.0609,-1.0609,-1.0609,-1.0703,-1.09,-1.1096,-1.1292,-1.1585,-1.1497,-1.1404,-1.11,-1.0904,-1.0801,-1.0605,-1.0413,-1.0117,-1.0117,-1.0015,-0.9727,-0.9529,-0.9426,-0.8931,-0.924,-0.8931,-0.8623,-0.8517,-0.8627,-0.8627,-0.8627,-0.8531,-0.8432,-0.8237,-0.8233,-0.8137,-0.8038,-0.8038,-0.8038,-0.8038,-0.8038,-0.7839,-0.7739,-0.7842,-0.7945,-0.7945,-0.7839,-0.764,-0.7543,-0.7441,-0.7338,-0.7238,-0.7039,-0.6839,-0.6736,-0.6334,-0.6034,-0.5837,-0.5536,-0.5035,-0.4636,-0.4537,-0.4135,-0.3429,-0.3027,-0.2826,-0.2624,-0.2423,-0.2221,-0.212,-0.1818,-0.1717,-0.1918,-0.2021,-0.1819,-0.1617,-0.1414,-0.1212,-0.1313,-0.1313,-0.1313,-0.1617,-0.1718,-0.192,-0.2323,-0.2625,-0.3027,-0.3429,-0.3932,-0.4234,-0.4834,-0.5238,-0.5739,-0.6139,-0.6439,-0.6942,-0.7444,-0.7736,-0.7935,-0.8233,-0.8336,-0.8531,-0.863,-0.8627,-0.8722,-0.8726,-0.9126,-0.9229,-0.9327,-0.9422,-0.962,-0.9715,-0.9719,-0.9817,-0.9817,-0.9817,-0.9817,-0.9817,-0.9817,-0.9817,-0.9916,-1.0015,-1.0113,-1.0408,-1.0703,-1.0605,-1.0511,-1.0314,-1.0122,-1.0019,-0.9916,-0.962,-0.9422,-0.9521,-0.9422,-0.913,-0.8836,-0.8733,-0.8722,-0.8722,-0.8722,-0.8418,-0.8113,-0.8226,-0.8333,-0.8333,-0.8137,-0.8041,-0.8038,-0.8038,-0.8038,-0.8038,-0.7939,-0.7942,-0.8041,-0.8045,-0.7637,-0.7441,-0.7547,-0.7852,-0.7749,-0.7338,-0.7135,-0.7135,-0.7138,-0.7039,-0.6836,-0.6434,-0.6337,-0.6137,-0.5737,-0.5436,-0.5138,-0.4836,-0.4535,-0.4135,-0.3734,-0.3331,-0.2928,-0.2523,-0.222,-0.2221,-0.202,-0.192,-0.1616,-0.1313,-0.1212,-0.1516,-0.1516,-0.1415,-0.101,-0.0909,-0.0707,-0.0707,-0.0707,-0.0909,-0.1313,-0.1414,-0.1617,-0.1717,-0.212,-0.2523,-0.2928,-0.3229,-0.3732,-0.4334,-0.4734,-0.5236,-0.5942,-0.6239,-0.6739,-0.7244,-0.7444,-0.7643,-0.7839,-0.7939,-0.8137,-0.8333,-0.8333,-0.8428,-0.8627,-0.8726,-0.8825,-0.8928,-0.9027,-0.9122,-0.9221,-0.9221,-0.9221,-0.9122,-0.9023,-0.8924,-0.8924,-0.8924,-0.9023,-0.9023,-0.9122,-0.932,-0.9616,-0.9813,-0.971,-0.9612,-0.9517,-0.9422,-0.9327,-0.913,-0.8928,-0.8726,-0.8726,-0.8726,-0.8528,-0.8329,-0.823,-0.8137,-0.8137,-0.8137,-0.8134,-0.8035,-0.8035,-0.8035,-0.8038,-0.8038,-0.8038,-0.8038,-0.8038,-0.7939,-0.7939,-0.7743,-0.7849,-0.7949,-0.7849,-0.754,-0.6728,-0.7144,-0.7353,-0.7247,-0.6734,-0.6326,-0.6226,-0.6431,-0.6334,-0.6034,-0.5837,-0.5639,-0.5438,-0.5138,-0.4836,-0.4539,-0.4133,-0.3731,-0.3432,-0.323,-0.2827,-0.2324,-0.202,-0.1818,-0.1818,-0.1414,-0.1313,-0.1516,-0.1516,-0.1313,-0.1212,-0.1313,-0.1414,-0.1111,-0.0606,-0.0,-0.0,-0.0,-0.0,-0.0404,-0.0808,-0.1111,-0.1515,-0.1717,-0.1919,-0.2223,-0.2828,-0.323,-0.3732,-0.4334,-0.5035,-0.5739,-0.6237,-0.6539,-0.6942,-0.7141,-0.7238,-0.7437,-0.7739,-0.7939,-0.8038,-0.8137,-0.8137,-0.8237,-0.8432,-0.8432,-0.8531,-0.863,-0.8726,-0.8726,-0.8726,-0.863,-0.8531,-0.8531,-0.8428,-0.8428,-0.8428,-0.8329,-0.8428,-0.8428,-0.8428,-0.8825,-0.8924,-0.8821,-0.8817,-0.892,-0.8825,-0.8634,-0.8535,-0.8333,-0.823,-0.8031,-0.7932,-0.7932,-0.7733,-0.7733,-0.8038,-0.8038,-0.8038,-0.8038,-0.8038,-0.8038,-0.8038,-0.8038,-0.8038,-0.7939,-0.7842,-0.7839,-0.7743,-0.764,-0.754,-0.7543,-0.7444,-0.7042,-0.6534,-0.6229,-0.6539,-0.6648,-0.6242,-0.5729,-0.5325,-0.5529,-0.5734,-0.5636,-0.5438,-0.5138,-0.4937,-0.4738,-0.4435,-0.4133,-0.3835,-0.343,-0.3127,-0.2826,-0.2727,-0.2526,-0.2123,-0.1819,-0.1617,-0.1617,-0.1313,-0.1212,-0.0808,-0.1414,-0.1111,-0.0,-0.0,-0.0,-0.0,-0.0,-0.0,-0.0,-0.0,-0.0,-0.0,-0.0202,-0.0505,-0.0808,-0.1313,-0.1617,-0.1819,-0.2324,-0.2827,-0.323,-0.3732,-0.4435,-0.5336,-0.5837,-0.6137,-0.6539,-0.6736,-0.6936,-0.7238,-0.754,-0.7842,-0.7842,-0.7942,-0.7939,-0.8038,-0.8137,-0.8137,-0.8237,-0.8233,-0.8333,-0.8333,-0.8333,-0.8233,-0.8137,-0.8134,-0.8134,-0.7932,-0.7932,-0.7832,-0.7832,-0.7733,-0.7733,-0.7832,-0.7932,-0.7928,-0.8024,-0.8124,-0.8028,-0.7836,-0.7836,-0.7836,-0.7637,-0.7537,-0.7338,-0.7335,-0.7335,-0.7335,-0.8038,-0.8038,-0.8038,-0.8038,-0.8038,-0.8038,-0.8038,-0.8038,-0.7942,-0.7842,-0.7643,-0.7543,-0.7441,-0.7238,-0.7135,-0.7039,-0.6839,-0.6129,-0.5627,-0.5425,-0.5939,-0.6047,-0.5641,-0.4933,-0.4425,-0.5131,-0.5135,-0.5039,-0.4839,-0.4537,-0.4234,-0.4135,-0.3729,-0.3428,-0.3128,-0.2827,-0.2624,-0.2423,-0.2223,-0.2022,-0.192,-0.1617,-0.1516,-0.1212,-0.1111,-0.0808,-0.0404,-0.0707,-0.0,-0.0,-0.0,-0.0,-0.0,-0.0,-0.0,-0.0,-0.0,-0.0,-0.0,-0.0,-0.0,-0.0,-0.0808,-0.1415,-0.1617,-0.192,-0.2323,-0.2726,-0.3229,-0.3732,-0.4634,-0.5133,-0.5634,-0.6037,-0.6237,-0.6537,-0.6839,-0.7244,-0.7344,-0.7543,-0.764,-0.7739,-0.7739,-0.7839,-0.7842,-0.7942,-0.7939,-0.7939,-0.7939,-0.7839,-0.7839,-0.7736,-0.7736,-0.7736,-0.7633,-0.7531,-0.7434,-0.7338,-0.7238,-0.7138,-0.7039,-0.7039,-0.7135,-0.7229,-0.7329,-0.7235,-0.7138,-0.7138,-0.7039,-0.7039,-0.6839,-0.6637,-0.6736,-0.6936,-0.6836,-0.8038,-0.8038,-0.8038,-0.8038,-0.8038,-0.8038,-0.7939,-0.7942,-0.7743,-0.7643,-0.7547,-0.7338,-0.7338,-0.7238,-0.6739,-0.6539,-0.6342,-0.5634,-0.5027,-0.4628,-0.5238,-0.5546,-0.5247,-0.4334,-0.3626,-0.3323,-0.3828,-0.4334,-0.4133,-0.393,-0.363,-0.333,-0.3127,-0.2825,-0.2522,-0.2322,-0.2223,-0.2121,-0.192,-0.1617,-0.1414,-0.1313,-0.1111,-0.0,-0.0,-0.0,-0.0,-0.0,-0.0202,-0.0,-0.0,-0.0,-0.0,-0.0,-0.0,-0.0,-0.0,-0.0,-0.0,-0.0,-0.0,-0.0,-0.0,-0.0,-0.1313,-0.1617,-0.192,-0.2222,-0.2827,-0.3531,-0.4336,-0.4736,-0.5035,-0.5338,-0.5639,-0.5737,-0.5937,-0.6337,-0.6739,-0.7039,-0.7238,-0.7441,-0.7441,-0.7537,-0.7537,-0.7537,-0.7537,-0.7437,-0.7441,-0.7437,-0.7338,-0.7338,-0.7335,-0.7335,-0.7235,-0.7235,-0.7135,-0.6839,-0.6739,-0.6539,-0.6439,-0.6242,-0.6239,-0.6434,-0.6634,-0.6739,-0.6642,-0.6439,-0.6339,-0.6339,-0.6139,-0.5937,-0.6037,-0.6034,-0.6034,-0.7923,-0.8028,-0.8004,-0.8038,-0.7942,-0.7842,-0.7743,-0.7743,-0.754,-0.7344,-0.7144,-0.6939,-0.6739,-0.6642,-0.6239,-0.6039,-0.5741,-0.4935,-0.4331,-0.4131,-0.4535,-0.474,-0.4643,-0.3632,-0.3026,-0.2722,-0.3126,-0.3429,-0.3328,-0.3126,-0.2924,-0.2724,-0.2523,-0.2323,-0.2222,-0.2021,-0.1819,-0.1819,-0.1718,-0.1516,-0.1111,-0.0,-0.0,-0.0,-0.0,-0.0,-0.0,-0.0,-0.0,-0.0,-0.0,-0.0,-0.0,-0.0,-0.0,-0.0,-0.0,-0.0,-0.0,-0.0,-0.0,-0.0,-0.0,-0.0,-0.1212,-0.1617,-0.1617,-0.192,-0.2524,-0.3229,-0.3734,-0.4033,-0.4332,-0.4738,-0.5037,-0.5238,-0.5438,-0.5737,-0.6037,-0.6437,-0.6839,-0.7039,-0.7235,-0.7235,-0.7235,-0.7235,-0.7135,-0.7039,-0.6942,-0.6939,-0.6839,-0.6637,-0.6537,-0.6534,-0.6537,-0.6437,-0.6437,-0.6239,-0.6142,-0.5939,-0.5739,-0.5539,-0.5539,-0.5634,-0.5837,-0.6039,-0.6042,-0.5839,-0.5639,-0.5539,-0.5438,-0.5236,-0.5236,-0.5236,-0.5135,-0.7883,-0.8021,-0.7943,-0.7908,-0.7836,-0.7643,-0.7543,-0.7444,-0.7138,-0.6939,-0.6739,-0.6339,-0.6039,-0.5739,-0.5438,-0.5238,-0.5144,-0.4133,-0.383,-0.3629,-0.3934,-0.3934,-0.3429,-0.2823,-0.2219,-0.2221,-0.2422,-0.2422,-0.2724,-0.2522,-0.2422,-0.2322,-0.2122,-0.1921,-0.192,-0.1617,-0.1516,-0.1617,-0.1617,-0.1516,-0.1111,-0.0,-0.0,-0.0,-0.0,-0.0,-0.0,-0.0,-0.0,-0.0,-0.0,-0.0,-0.0,-0.0,-0.0,-0.0,-0.0,-0.0,-0.0,-0.0,-0.0,-0.0,-0.0,-0.0,-0.0909,-0.1212,-0.1415,-0.1718,-0.2121,-0.2624,-0.3027,-0.3327,-0.363,-0.4033,-0.4334,-0.4634,-0.4836,-0.5138,-0.5238,-0.5737,-0.6337,-0.6537,-0.6534,-0.6637,-0.6537,-0.6534,-0.6434,-0.6437,-0.6339,-0.6439,-0.6339,-0.5939,-0.5739,-0.5636,-0.5636,-0.5636,-0.5536,-0.5438,-0.534,-0.524,-0.5037,-0.4937,-0.4834,-0.4832,-0.4832,-0.5033,-0.5135,-0.5138,-0.4937,-0.4836,-0.4736,-0.4634,-0.4533,-0.4433,-0.4433,-0.7794,-0.8007,-0.7828,-0.7615,-0.7325,-0.7534,-0.7441,-0.7138,-0.6736,-0.6437,-0.6339,-0.5934,-0.5436,-0.4935,-0.4334,-0.4133,-0.4033,-0.3729,-0.3226,-0.2924,-0.3432,-0.3433,-0.2724,-0.2017,-0.1817,-0.1818,-0.202,-0.2323,-0.2322,-0.2222,-0.2223,-0.2122,-0.1818,-0.1718,-0.1718,-0.1414,-0.1111,-0.1516,-0.1516,-0.1111,-0.0,-0.0,-0.0,-0.0,-0.0,-0.0,-0.0,-0.0,-0.0,-0.0,-0.0,-0.0,-0.0,-0.0,-0.0,-0.0,-0.0,-0.0,-0.0,-0.0,-0.0,-0.0,-0.0,-0.0,-0.0404,-0.0707,-0.101,-0.1617,-0.1717,-0.2019,-0.2423,-0.2724,-0.3027,-0.3328,-0.363,-0.383,-0.4133,-0.4336,-0.4535,-0.4636,-0.5135,-0.5434,-0.5634,-0.5634,-0.5737,-0.5737,-0.5834,-0.5737,-0.5737,-0.5739,-0.5639,-0.5238,-0.5138,-0.5035,-0.4832,-0.4834,-0.4734,-0.4636,-0.4537,-0.4437,-0.4234,-0.4133,-0.393,-0.3929,-0.3929,-0.4029,-0.4232,-0.4234,-0.4133,-0.4033,-0.393,-0.383,-0.3729,-0.3729,-0.3729,-0.725,-0.748,-0.7465,-0.7388,-0.7214,-0.7128,-0.6976,-0.6728,-0.6339,-0.6039,-0.5639,-0.5336,-0.4734,-0.4131,-0.363,-0.3734,-0.3734,-0.3228,-0.2622,-0.222,-0.2625,-0.2829,-0.2425,-0.1918,-0.1616,-0.1515,-0.1415,-0.1313,-0.1515,-0.1717,-0.1718,-0.1415,-0.1313,-0.1313,-0.1415,-0.1313,-0.101,-0.0808,-0.0606,-0.0404,-0.0,-0.0,-0.0,-0.0,-0.0,-0.0,-0.0,-0.0,-0.0,-0.0,-0.0,-0.0,-0.0,-0.0,-0.0,-0.0,-0.0,-0.0,-0.0,-0.0,-0.0,-0.0,-0.0,-0.0,-0.0,-0.0,-0.0,-0.0606,-0.1313,-0.1717,-0.1918,-0.2222,-0.2424,-0.2725,-0.2925,-0.3127,-0.3328,-0.3531,-0.3732,-0.3833,-0.3932,-0.4232,-0.463,-0.4832,-0.4935,-0.5133,-0.5135,-0.5037,-0.4935,-0.4736,-0.4636,-0.4535,-0.4435,-0.4334,-0.4232,-0.4029,-0.3932,-0.3833,-0.3732,-0.3632,-0.3429,-0.3228,-0.3226,-0.3126,-0.3025,-0.3126,-0.3328,-0.3429,-0.3429,-0.3328,-0.3226,-0.3127,-0.3127,-0.2924,-0.2924,-0.6857,-0.6973,-0.7012,-0.6957,-0.6693,-0.6602,-0.6382,-0.6187,-0.5797,-0.5415,-0.5035,-0.4636,-0.4031,-0.3429,-0.3127,-0.313,-0.3436,-0.2725,-0.2119,-0.1918,-0.1919,-0.2224,-0.192,-0.1516,-0.1111,-0.1212,-0.1212,-0.1111,-0.1111,-0.1313,-0.1415,-0.101,-0.0707,-0.0808,-0.1111,-0.101,-0.0,-0.0,-0.0,-0.0,-0.0,-0.0,-0.0,-0.0,-0.0,-0.0,-0.0,-0.0,-0.0,-0.0,-0.0,-0.0,-0.0,-0.0,-0.0,-0.0,-0.0,-0.0,-0.0,-0.0,-0.0,-0.0,-0.0,-0.0,-0.0,-0.0,-0.0,-0.0,-0.0606,-0.1212,-0.1617,-0.192,-0.2021,-0.2121,-0.2322,-0.2523,-0.2725,-0.2927,-0.3027,-0.3128,-0.3228,-0.3226,-0.3527,-0.393,-0.4131,-0.4431,-0.4433,-0.4336,-0.4135,-0.3932,-0.3831,-0.3831,-0.3731,-0.363,-0.3428,-0.3327,-0.3127,-0.3128,-0.3029,-0.2927,-0.2825,-0.2724,-0.2724,-0.2522,-0.2321,-0.2322,-0.2524,-0.2624,-0.2725,-0.2724,-0.2724,-0.2523,-0.2423,-0.2321,-0.222,-0.6624,-0.6468,-0.669,-0.6163,-0.5325,-0.5902,-0.5878,-0.5496,-0.5012,-0.4769,-0.4632,-0.3833,-0.3228,-0.2825,-0.2624,-0.2524,-0.2527,-0.2325,-0.1819,-0.1616,-0.1617,-0.1718,-0.1415,-0.0909,-0.0,-0.0404,-0.0707,-0.101,-0.101,-0.1111,-0.1414,-0.1415,-0.0505,-0.0202,-0.0,-0.0,-0.0,-0.0,-0.0,-0.0,-0.0,-0.0,-0.0,-0.0,-0.0,-0.0,-0.0,-0.0,-0.0,-0.0,-0.0,-0.0,-0.0,-0.0,-0.0,-0.0,-0.0,-0.0,-0.0,-0.0,-0.0,-0.0,-0.0,-0.0,-0.0,-0.0,-0.0,-0.0,-0.0,-0.0707,-0.1212,-0.1617,-0.1718,-0.1819,-0.1919,-0.2019,-0.2221,-0.2322,-0.2423,-0.2422,-0.2522,-0.2522,-0.2724,-0.3026,-0.3327,-0.3627,-0.3629,-0.353,-0.343,-0.333,-0.3128,-0.3027,-0.3027,-0.2825,-0.2623,-0.2522,-0.2624,-0.2624,-0.2523,-0.2423,-0.2422,-0.2321,-0.2221,-0.212,-0.202,-0.192,-0.1819,-0.1918,-0.2119,-0.2321,-0.2321,-0.212,-0.1919,-0.1716,-0.1717,-0.6352,-0.6364,-0.6143,-0.5678,-0.5037,-0.5037,-0.5005,-0.4914,-0.4586,-0.4164,-0.383,-0.3027,-0.2624,-0.2424,-0.2324,-0.2122,-0.192,-0.1819,-0.1414,-0.1111,-0.1111,-0.1516,-0.1212,-0.0,-0.0,-0.0,-0.0,-0.0,-0.0404,-0.0,-0.0,-0.0404,-0.0,-0.0,-0.0,-0.0,-0.0,-0.0,-0.0,-0.0,-0.0,-0.0,-0.0,-0.0,-0.0,-0.0,-0.0,-0.0,-0.0,-0.0,-0.0,-0.0,-0.0,-0.0,-0.0,-0.0,-0.0,-0.0,-0.0,-0.0,-0.0,-0.0,-0.0,-0.0,-0.0,-0.0,-0.0,-0.0,-0.0,-0.0,-0.0505,-0.1212,-0.1617,-0.1617,-0.1616,-0.1616,-0.1818,-0.1918,-0.1918,-0.1918,-0.1919,-0.1919,-0.2121,-0.2323,-0.2522,-0.2823,-0.2724,-0.2725,-0.2725,-0.2725,-0.2624,-0.2523,-0.2523,-0.2424,-0.2221,-0.2222,-0.2121,-0.202,-0.1918,-0.1917,-0.1917,-0.1918,-0.1818,-0.1718,-0.1617,-0.1415,-0.1313,-0.1313,-0.1515,-0.1817,-0.1817,-0.1717,-0.1515,-0.1313,-0.1212,-0.5994,-0.6088,-0.5644,-0.5145,-0.4567,-0.4385,-0.4256,-0.4154,-0.4019,-0.3525,-0.2803,-0.2515,-0.2221,-0.2021,-0.1819,-0.1819,-0.1617,-0.1516,-0.0909,-0.0707,-0.0707,-0.1111,-0.0808,-0.0,-0.0,-0.0,-0.0,-0.0,-0.0,-0.0,-0.0,-0.0,-0.0,-0.0,-0.0,-0.0,-0.0,-0.0,-0.0,-0.0,-0.0,-0.0,-0.0,-0.0,-0.0,-0.0,-0.0,-0.0,-0.0,-0.0,-0.0,-0.0,-0.0,-0.0,-0.0,-0.0,-0.0,-0.0,-0.0,-0.0,-0.0,-0.0,-0.0,-0.0,-0.0,-0.0,-0.0,-0.0,-0.0,-0.0,-0.0,-0.0606,-0.0909,-0.0808,-0.0909,-0.0909,-0.1212,-0.1313,-0.1313,-0.1313,-0.1313,-0.1313,-0.1414,-0.1616,-0.1919,-0.2119,-0.2221,-0.212,-0.212,-0.212,-0.2121,-0.2121,-0.2121,-0.2021,-0.2022,-0.1819,-0.1616,-0.1414,-0.1313,-0.1313,-0.1313,-0.1313,-0.1516,-0.1617,-0.1415,-0.101,-0.0909,-0.101,-0.1111,-0.1313,-0.1313,-0.1415,-0.1313,-0.1111,-0.0808,-0.5272,-0.5644,-0.5201,-0.4482,-0.3769,-0.4123,-0.3904,-0.3516,-0.3167,-0.2668,-0.2169,-0.2105,-0.2021,-0.1617,-0.1313,-0.1212,-0.1313,-0.1414,-0.0909,-0.0303,-0.0,-0.0,-0.0,-0.0,-0.0,-0.0,-0.0,-0.0,-0.0,-0.0,-0.0,-0.0,-0.0,-0.0,-0.0,-0.0,-0.0,-0.0,-0.0,-0.0,-0.0,-0.0,-0.0,-0.0,-0.0,-0.0,-0.0,-0.0,-0.0,-0.0,-0.0,-0.0,-0.0,-0.0,-0.0,-0.0,-0.0,-0.0,-0.0,-0.0,-0.0,-0.0,-0.0,-0.0,-0.0,-0.0,-0.0,-0.0,-0.0,-0.0,-0.0,-0.0,-0.0,-0.0,-0.0,-0.0404,-0.0707,-0.0808,-0.0808,-0.0808,-0.0808,-0.0808,-0.0808,-0.0909,-0.1212,-0.1414,-0.1515,-0.1616,-0.1616,-0.1616,-0.1616,-0.1616,-0.1616,-0.1717,-0.1617,-0.1212,-0.101,-0.0,-0.0808,-0.0808,-0.0808,-0.0808,-0.101,-0.0,-0.1212,-0.0707,-0.0707,-0.0808,-0.0808,-0.0808,-0.1111,-0.1212,-0.1111,-0.0,-0.0,-0.5102,-0.5201,-0.5022,-0.4121,-0.2776,-0.2865,-0.297,-0.3002,-0.261,-0.2204,-0.2063,-0.1904,-0.1718,-0.1516,-0.1313,-0.0,-0.0,-0.0505,-0.0101,-0.0,-0.0,-0.0,-0.0,-0.0,-0.0,-0.0,-0.0,-0.0,-0.0,-0.0,-0.0,-0.0,-0.0,-0.0,-0.0,-0.0,-0.0,-0.0,-0.0,-0.0,-0.0,-0.0,-0.0,-0.0,-0.0,-0.0,-0.0,-0.0,-0.0,-0.0,-0.0,-0.0,-0.0,-0.0,-0.0,-0.0,-0.0,-0.0,-0.0,-0.0,-0.0,-0.0,-0.0,-0.0,-0.0,-0.0,-0.0,-0.0,-0.0,-0.0,-0.0,-0.0,-0.0,-0.0,-0.0,-0.0,-0.0303,-0.0303,-0.0303,-0.0303,-0.0303,-0.0505,-0.0606,-0.0505,-0.0707,-0.0909,-0.101,-0.1111,-0.1111,-0.1111,-0.1111,-0.1111,-0.1111,-0.1313,-0.1313,-0.0909,-0.0,-0.0,-0.0,-0.0303,-0.0303,-0.0,-0.0,-0.0,-0.0,-0.0,-0.0,-0.0,-0.0,-0.0404,-0.0,-0.0,-0.0,-0.0,-0.0,-0.4746,-0.4931,-0.4663,-0.3585,-0.2327,-0.2237,-0.233,-0.2435,-0.2047,-0.1814,-0.1654,-0.1587,-0.1608,-0.1513,-0.1111,-0.0808,-0.0,-0.0,-0.0,-0.0,-0.0,-0.0,-0.0,-0.0,-0.0,-0.0,-0.0,-0.0,-0.0,-0.0,-0.0,-0.0,-0.0,-0.0,-0.0,-0.0,-0.0,-0.0,-0.0,-0.0,-0.0,-0.0,-0.0,-0.0,-0.0,-0.0,-0.0,-0.0,-0.0,-0.0,-0.0,-0.0,-0.0,-0.0,-0.0,-0.0,-0.0,-0.0,-0.0,-0.0,-0.0,-0.0,-0.0,-0.0,-0.0,-0.0,-0.0,-0.0,-0.0,-0.0,-0.0,-0.0,-0.0,-0.0,-0.0,-0.0,0.0101,0.0101,0.0505,0.0404,0.0303,-0.0,-0.0202,-0.0202,-0.0202,-0.0303,-0.0505,-0.0505,-0.0,-0.0,-0.0,-0.0,-0.0,-0.0,-0.0,-0.0707,-0.0,-0.0,-0.0,-0.0,-0.0,-0.0,-0.0,-0.0,-0.0,-0.0,-0.0,-0.0,-0.0,-0.0,-0.0,-0.0,-0.0,-0.0,-0.0,-0.4117,-0.4752,-0.3946,-0.3047,-0.2239,-0.2149,-0.2061,-0.1887,-0.1652,-0.1218,-0.086,-0.1367,-0.1392,-0.121,-0.0505,-0.0,-0.0,-0.0,-0.0,-0.0,-0.0,-0.0,-0.0,-0.0,-0.0,-0.0,-0.0,-0.0,-0.0,-0.0,-0.0,-0.0,-0.0,-0.0,-0.0,-0.0,-0.0,-0.0,-0.0,-0.0,-0.0,-0.0,-0.0,-0.0,-0.0,-0.0,-0.0,-0.0,-0.0,-0.0,-0.0,-0.0,-0.0,-0.0,-0.0,-0.0,-0.0,-0.0,-0.0,-0.0,-0.0,-0.0,-0.0,-0.0,-0.0,-0.0,-0.0,-0.0,-0.0,-0.0,-0.0,-0.0,-0.0,-0.0,-0.0,0.0202,0.0303,0.0606,0.1111,0.1212,0.101,0.0808,0.0707,0.0606,0.0505,0.0303,0.0101,-0.0101,-0.0,-0.0,-0.0,-0.0,-0.0,-0.0,-0.0,-0.0,-0.0,-0.0,-0.0,-0.0,-0.0,-0.0,-0.0,-0.0,-0.0,-0.0,-0.0,-0.0,-0.0,-0.0,-0.0,-0.0,-0.0,-0.0,-0.0,-0.358,-0.3496,-0.3585,-0.2869,-0.1703,-0.1614,-0.1614,-0.153,-0.1468,-0.131,-0.1146,-0.0681,-0.0,-0.0404,-0.0,-0.0,-0.0,-0.0,-0.0,-0.0,-0.0,-0.0,-0.0,-0.0,-0.0,-0.0,-0.0,-0.0,-0.0,-0.0,-0.0,-0.0,-0.0,-0.0,-0.0,-0.0,-0.0,-0.0,-0.0,-0.0,-0.0,-0.0,-0.0,-0.0,-0.0,-0.0,-0.0,-0.0,-0.0,-0.0,-0.0,-0.0,-0.0,-0.0,-0.0,-0.0,-0.0,-0.0,0.1111,0.0808,0.0606,0.0606,0.0606,0.0303,-0.0,-0.0,0.0404,0.0606,0.0808,0.0808,0.0606,0.0606,0.0606,0.0606,0.0606,0.0606,0.0808,0.101,0.1516,0.1616,0.1414,0.1414,0.1313,0.1313,0.1212,0.101,0.0808,0.0505,-0.0,-0.0,-0.0,-0.0,-0.0,-0.0,-0.0,-0.0,-0.0,-0.0,-0.0,-0.0,-0.0,-0.0,-0.0,-0.0,-0.0,-0.0,-0.0,-0.0,-0.0,-0.0,-0.0,-0.0,-0.0,-0.0,-0.0,-0.2953,-0.2957,-0.2959,-0.2422,-0.1524,-0.1436,-0.1436,-0.1439,-0.1364,-0.1206,-0.0763,-0.0289,-0.0,-0.0,-0.0,-0.0,-0.0,-0.0,-0.0,-0.0,-0.0,-0.0,-0.0,-0.0,-0.0,-0.0,-0.0,-0.0,-0.0,-0.0,-0.0,-0.0,-0.0,-0.0,-0.0,-0.0,-0.0,-0.0,-0.0,-0.0,-0.0,-0.0,-0.0,-0.0,-0.0,-0.0,-0.0,-0.0,-0.0,0.0505,0.0606,-0.0,-0.0,-0.0,-0.0,0.0404,0.101,0.1415,0.1415,0.1313,0.1111,0.1111,0.1111,0.101,0.0707,-0.0,0.0808,0.101,0.1313,0.1516,0.1313,0.1111,0.1111,0.1111,0.1212,0.1212,0.1313,0.1414,0.1616,0.1818,0.1918,0.1918,0.1918,0.1918,0.1818,0.1615,0.1414,0.1111,0.0808,-0.0,-0.0,-0.0,-0.0,-0.0,0.0303,0.0303,-0.0,-0.0,-0.0,-0.0,-0.0,-0.0,-0.0,-0.0,-0.0,-0.0,-0.0,-0.0,-0.0,-0.0,0.0303,-0.0,-0.0,-0.0,-0.0,-0.2418,-0.2778,-0.2333,-0.1794,-0.1346,-0.1346,-0.1436,-0.1346,-0.1258,-0.0825,-0.0,-0.0,-0.0,-0.0,-0.0,-0.0,-0.0,-0.0,-0.0,-0.0,-0.0,-0.0,-0.0,-0.0,-0.0,-0.0,-0.0,-0.0,-0.0,-0.0,-0.0,-0.0,-0.0,-0.0,-0.0,-0.0,-0.0,-0.0,-0.0,-0.0,-0.0,-0.0,-0.0,-0.0,-0.0,-0.0,-0.0,-0.0,0.0505,0.1111,0.1415,0.1414,0.1212,0.0808,0.0707,0.0808,0.1415,0.1617,0.1718,0.1717,0.1717,0.1717,0.1617,0.1616,0.1414,0.1212,0.1414,0.1414,0.1717,0.1818,0.1716,0.1716,0.1615,0.1615,0.1615,0.1716,0.1818,0.1918,0.2019,0.212,0.2221,0.222,0.222,0.212,0.212,0.2119,0.1918,0.1616,0.1414,0.1111,0.1212,0.1414,0.1111,0.0909,0.0909,0.0808,0.0909,-0.0,0.0505,-0.0,-0.0,-0.0,-0.0,-0.0,-0.0,-0.0,-0.0,-0.0,-0.0,-0.0,0.0707,0.1313,0.1212,0.0707,-0.0,-0.2151,-0.2063,-0.1705,-0.1076,-0.0448,-0.1076,-0.1346,-0.1348,-0.0629,-0.0,-0.0,-0.0,-0.0,-0.0,-0.0,-0.0,-0.0,-0.0,-0.0,-0.0,-0.0,-0.0,-0.0,-0.0,-0.0,-0.0,-0.0,-0.0,-0.0,-0.0,-0.0,-0.0,-0.0,-0.0,-0.0,-0.0,-0.0,-0.0,-0.0,-0.0,-0.0,-0.0,-0.0,-0.0,0.0505,0.101,0.101,0.0808,0.0808,0.101,0.101,0.1212,0.1516,0.1313,0.1313,0.1516,0.1819,0.2021,0.202,0.212,0.212,0.2221,0.2221,0.222,0.2119,0.202,0.2021,0.202,0.202,0.212,0.2221,0.2221,0.212,0.212,0.212,0.2221,0.2322,0.2422,0.2422,0.2422,0.2522,0.2522,0.2522,0.2522,0.2422,0.2321,0.2321,0.2119,0.2018,0.1716,0.1817,0.1919,0.1617,0.1414,0.1414,0.1414,0.1414,0.1313,0.1111,0.0909,0.0606,0.0606,0.0606,0.0606,-0.0,0.0606,0.0606,-0.0,-0.0,0.0707,0.0909,0.1415,0.1617,0.1313,0.101,-0.1883,-0.1795,-0.1525,-0.0897,-0.0179,-0.0538,-0.0808,-0.0629,-0.0,-0.0,-0.0,-0.0,-0.0,-0.0,-0.0,-0.0,-0.0,-0.0,-0.0,-0.0,-0.0,-0.0,-0.0,-0.0,-0.0,-0.0,-0.0,-0.0,-0.0,-0.0,-0.0,-0.0,-0.0,-0.0,0.0101,0.0404,0.0606,-0.0,0.0505,0.0404,0.0404,-0.0,-0.0,-0.0,0.0909,0.1414,0.1516,0.1313,0.1212,0.1212,0.1414,0.1616,0.1919,0.1817,0.1918,0.2019,0.2222,0.2425,0.2424,0.2523,0.2623,0.2623,0.2725,0.2725,0.2825,0.2726,0.2523,0.2523,0.2322,0.2321,0.2523,0.2523,0.2523,0.2423,0.2624,0.2826,0.3026,0.3228,0.3228,0.3328,0.3328,0.3328,0.3328,0.3328,0.3228,0.3228,0.3127,0.2823,0.2622,0.2521,0.2523,0.2523,0.2323,0.202,0.1918,0.1918,0.1918,0.1919,0.1718,0.1516,0.1111,0.1111,0.1111,0.1111,0.1212,0.1111,0.1111,0.1212,0.1212,0.1212,0.1414,0.1617,0.1718,0.1819,0.1717,-0.1615,-0.1795,-0.1525,-0.0897,-0.0,-0.0,-0.0,-0.0,-0.0,-0.0,-0.0,-0.0,-0.0,-0.0,-0.0,-0.0,-0.0,-0.0,-0.0,-0.0,-0.0,-0.0,-0.0,-0.0,-0.0,-0.0,-0.0,-0.0,-0.0,-0.0,-0.0,-0.0,0.0101,0.0101,0.0404,0.0808,0.1313,0.1212,0.1111,0.0909,0.1111,0.1313,0.1212,0.101,0.0909,0.1212,0.1516,0.1617,0.1617,0.1818,0.202,0.2222,0.2322,0.2423,0.2423,0.2523,0.2725,0.2725,0.2724,0.2925,0.2925,0.3027,0.323,0.3331,0.343,0.3328,0.3228,0.3126,0.2823,0.2724,0.2925,0.3027,0.2927,0.3026,0.3328,0.353,0.3731,0.3932,0.4033,0.4033,0.4033,0.4033,0.4033,0.4033,0.4033,0.4033,0.3932,0.3627,0.3527,0.3428,0.343,0.333,0.3128,0.2927,0.2522,0.2422,0.2423,0.2221,0.2019,0.1818,0.1718,0.1717,0.1716,0.1717,0.1717,0.1717,0.1717,0.1717,0.1717,0.1717,0.1818,0.1919,0.202,0.2222,0.2322,-0.1436,-0.1525,-0.1436,-0.0808,-0.0,-0.0,-0.0,-0.0,-0.0,-0.0,-0.0,-0.0,-0.0,-0.0,-0.0,-0.0,-0.0,-0.0,-0.0,-0.0,-0.0,-0.0,-0.0,-0.0,-0.0,-0.0,-0.0,-0.0,0.0202,0.0808,0.1212,0.1212,0.0707,0.0707,0.0707,0.1111,0.1313,0.1415,0.1617,0.1415,0.1415,0.1516,0.1516,0.1415,0.1516,0.1718,0.192,0.1921,0.2121,0.2322,0.2523,0.2725,0.2826,0.2927,0.3027,0.3127,0.3328,0.3428,0.3428,0.363,0.3731,0.3731,0.3934,0.4034,0.4133,0.4236,0.4133,0.4232,0.4031,0.3731,0.3831,0.3831,0.3731,0.4033,0.4334,0.4435,0.4636,0.4636,0.4634,0.4636,0.4636,0.4636,0.4636,0.4636,0.4636,0.4636,0.4636,0.4431,0.4431,0.4334,0.4336,0.4135,0.4034,0.343,0.2825,0.2825,0.2825,0.2522,0.2422,0.2322,0.2322,0.222,0.222,0.2221,0.2221,0.2221,0.2221,0.2222,0.2221,0.2221,0.2221,0.2321,0.2423,0.2523,0.2825]},{"header":{"parameterUnit":"m.s-1","parameterCategory":1,"la1":31.0,"la2":29.5877,"lo1":-88.7671,"lo2":-86.6584,"dy":0.0162,"dx":0.0185,"nx":115,"ny":88,"refTime":"2023-08-12T06:00:00:Z","depth":0,"parameterNumber":3,"parameterNumberName":"V-component_of_WINDS"},"data":[0.0,0.0,0.0,0.0,0.0,0.0,0.0,0.0,0.0,0.0,0.0,0.0,0.0,0.0,0.0,0.0,0.0,0.0,0.0,0.0,0.0,0.0,0.0,0.0,0.0,0.0,0.0,0.0,0.0,0.0,0.0,0.0,0.0,0.0,0.0,0.0,0.0,0.0,0.0,0.0,0.0,0.0,0.0,0.0,0.0,0.0,0.0,0.0,0.0,0.0,0.0,0.0,0.0,0.0,0.0,0.0,0.0,0.0,0.0,0.0,0.0,0.0,0.0,0.0,0.0,0.0,0.0,0.0,0.0,0.0,0.0,0.0,0.0,0.0,0.0,0.0,0.0,0.0,0.0,0.0,0.0,0.0,0.0,0.0,0.0,0.0,0.0,0.0,0.0,0.0,0.0,0.0,0.0,0.0,0.0,0.0,0.0,0.0,0.0,0.0,0.0,0.0,0.0,0.0,0.0,0.0,0.0,0.0,0.0,0.0,0.0,0.0,0.0,0.0,0.0,0.0,0.0,0.0,0.0,0.0,0.0,0.0,0.0,0.0,0.0,0.0,0.0,0.0,0.0,0.0,0.0,0.0,0.0,0.0,0.0,0.0,0.0,0.0,0.0,0.0,0.0,0.0,0.0,0.0,0.0,0.0,0.0,0.0,0.0,0.0,0.0,0.0,0.0,0.0,0.0,0.0,0.0,0.0,0.0,0.0,0.0,0.0,0.0,0.0,0.0,0.0,0.0,0.0,0.0,0.0,0.0,0.0,0.0,0.0,0.0,0.0,0.0,0.0,0.0,0.0,0.0,0.0,0.0,0.0,0.0,0.0,0.0,0.0,0.0,0.0,0.0,0.0,0.0,0.0,0.0,0.0,0.0,0.0,0.0,0.0,0.0,0.0,0.0,0.0,0.0,0.0,0.0,0.0,0.0,0.0,0.0,0.0,0.0,0.0,0.0,0.0,0.0,0.0,0.0,0.0,0.0,0.0,0.0,0.0,0.0,0.0,0.0,0.0,0.0,0.0,0.0,0.0,0.0,0.0,0.0,0.0,0.0,0.0,0.0,0.0,0.0,0.0,0.0,0.0,0.0,0.0,0.0,0.0,0.0,0.0,0.0,0.0,0.0,0.0,0.0,0.0,0.0,0.0,0.0,0.0,0.0,0.0,0.0,0.0,0.0,0.0,0.0,0.0,0.0,0.0,0.0,0.0,0.0,0.0,0.0,0.0,0.0,0.0,0.0,0.0,0.0,0.0,0.0,0.0,0.0,0.0,0.0,0.0,0.0,0.0,0.0,0.0,0.0,0.0,0.0,0.0,0.0,0.0,0.0,0.0,0.0,0.0,0.0,0.0,0.0,0.0,0.0,0.0,0.0,0.0,0.0,0.0,0.0,0.0,0.0,0.0,0.0,0.0,0.0,0.0,0.0,0.0,0.0,0.0,0.0,0.0,0.0,0.0,0.0,0.0,0.0,0.0,0.0,0.0,0.0,0.0,0.0,0.0,0.0,0.0,0.0,0.0,0.0,0.0,0.0,0.0,0.0,0.0,0.0,0.0,0.0,0.0,0.0,0.0,0.0,0.0,0.0,0.0,0.0,0.0,0.0,0.0,0.0,0.0,0.0,0.0,0.0,0.0,0.0,0.0,0.0,0.0,0.0,0.0,0.0,0.0,0.0,0.0,0.0,0.0,0.0,0.0,0.0,0.0,0.0,0.0,0.0,0.0,0.0,0.0,0.0,0.0,0.0,0.0,0.0,0.0,0.0,0.0,0.0,0.0,0.0,0.0,0.0,0.0,0.0,0.0,0.0,0.0,0.0,0.0,0.0,0.0,0.0,0.0,0.0,0.0,0.0,0.0,0.0,0.0,0.0,0.0,0.0,0.0,0.0,0.0,0.0,0.0,0.0,0.0,0.0,0.0,0.0,0.0,0.0,0.0,0.0,0.0,0.0,0.0,0.0,0.0,0.0,0.0,0.0,0.0,0.0,0.0,0.0,0.0,0.0,0.0,0.0,0.0,0.0,0.0,0.0,0.0,0.0,0.0,0.0,0.0,0.0,0.0,0.0,0.0,0.0,0.0,0.0,0.0,0.0,0.0,0.0,0.0,0.0,0.0,0.0,0.0,0.0,0.0,0.0,0.0,0.0,0.0,0.0,0.0,0.0,0.0,0.0,0.0,0.0,0.0,0.0,0.0,0.0,0.0,0.0,0.0,0.0,0.0,0.0,0.0,0.0,0.0,0.0,0.0,0.0,0.0,0.0,0.0,0.0,0.0,0.0,0.0,0.0,0.0,0.0,0.0,0.0,0.0,0.0,0.0,0.0,0.0,0.0,0.0,0.0,0.0,0.0,0.0,0.0,0.0,0.0,0.0,0.0,0.0,0.0,0.0,0.0,0.0,0.0,0.0,0.0,0.0,0.0,0.0,0.0,0.0,0.0,0.0,0.0,0.0,0.0,0.0,0.0,0.0,0.0,0.0,0.0,0.0,0.0,0.0,0.0,0.0,0.0,0.0,0.0,0.0,0.0,0.0,0.0,0.0,0.0,0.0,0.0,0.0,0.0,0.0,0.0,0.0,0.0,0.0,0.0,0.0,0.0,0.0,0.0,0.0,0.0,0.0,0.0,0.0,0.0,0.0,0.0,0.0,0.0,0.0,0.0,0.0,0.0,0.0,0.0,0.0,0.0,0.0,0.0,0.0,0.0,0.0,0.0,0.0,0.0,0.0,0.0,0.0,0.0,0.0,0.0,0.0,0.0,0.0,0.0,0.0,0.0,0.0,0.0,0.0,0.0,0.0,0.0,0.0,0.0,0.0,0.0,0.0,0.0,0.0,0.0,0.0,0.0,0.0,0.0,0.0,0.0,0.0,0.0,0.0,0.0,0.0,0.0,0.0,0.0,0.0,0.0,0.0,0.0,0.0,0.0,0.0,0.0,0.0,0.0,0.0,0.0,0.0,0.0,0.0,0.0,0.0,0.0,0.0,0.0,0.0,0.0,0.0,0.0,0.0,0.0,0.0,0.0,0.0,0.0,0.0,0.0,0.0,0.0,0.0,0.0,0.0,0.0,0.0,0.0,0.0,0.0,0.0,0.0,0.0,0.0,0.0,0.0,0.0,0.0,0.0,0.0,0.0,0.0,0.0,0.0,0.0,0.0,0.0,0.0,0.0,0.0,0.0,0.0,0.0,0.0,0.0,0.0,0.0,0.0,0.0,0.0,0.0,0.0,0.0,0.0,0.0,0.0,0.0,0.0,0.0,0.0,0.0,0.0,0.0,0.0,0.0,0.0,0.0,0.0,0.0,0.0,0.0,0.0,0.0,0.0,0.0,0.0,0.0,0.0,0.0,0.0,0.0,0.0,0.0,0.0,0.0,0.0,0.0,0.0,0.0,0.0,0.0,0.0,0.0,0.0,0.0,0.0,0.0,0.0,0.0,0.0,0.0,0.0,0.0,0.0,0.0,0.0,0.0,0.0,0.0,0.0,0.0,0.0,0.0,0.0,0.0,0.0,0.0,0.0,0.0,0.0,0.0,0.0,0.0,0.0,0.0,0.0,0.0,0.0,0.0,0.0,0.0,0.0,0.0,0.0,0.0,0.0,0.0,0.0,0.0,0.0,0.0,0.0,0.0,0.0,0.0,0.0,0.0,0.0,0.0,0.0,0.0,0.0,0.0,0.0,0.0,0.0,0.0,0.0,0.0,0.0,0.0,0.0,0.0,0.0,0.0,0.0,0.0,0.0,0.0,0.0,0.0,0.0,0.0,0.0,0.0,0.0,0.0,0.0,0.0,0.0,0.0,0.0,0.0,0.0,0.0,0.0,0.0,0.0,0.0,0.0,0.0,0.0,0.0,0.0,0.0,0.0,0.0,0.0,0.0,0.0,0.0,0.0,0.0,0.0,0.0,0.0,0.0,0.0,0.0,0.0,0.0,0.0,0.0,0.0,0.0,0.0,0.0,0.0,0.0,0.0,0.0,0.0,0.0,0.0,0.0,0.0,0.0,0.0,0.0,0.0,0.0,0.0,0.0,0.0,0.0,0.0,0.0,0.0,0.0,0.0,0.0,0.0,0.0,0.0,0.0,0.0,0.0,0.0,0.0,0.0,0.0,0.0,0.0,0.0,0.0,0.0,0.0,0.0,0.0,0.0,0.0,0.0,0.0,0.0,0.0,0.0,0.0,0.0,0.0,0.0,0.0,0.0,0.0,0.0,0.0,0.0,0.0,0.0,0.0,0.0,0.0,0.0,0.0,0.0,0.0,0.0,0.0,0.0,0.0,0.0,0.0,-3.9942,0.0,0.0,0.0,0.0,0.0,0.0,0.0,0.0,0.0,0.0,0.0,0.0,0.0,0.0,0.0,0.0,0.0,0.0,0.0,0.0,0.0,0.0,0.0,0.0,0.0,0.0,0.0,0.0,0.0,0.0,0.0,0.0,0.0,0.0,0.0,0.0,0.0,0.0,0.0,0.0,0.0,0.0,0.0,0.0,0.0,0.0,0.0,0.0,0.0,0.0,0.0,0.0,0.0,0.0,0.0,0.0,0.0,0.0,0.0,0.0,0.0,0.0,0.0,0.0,0.0,0.0,0.0,0.0,0.0,0.0,0.0,0.0,0.0,0.0,0.0,0.0,0.0,0.0,0.0,0.0,0.0,0.0,0.0,0.0,0.0,0.0,0.0,0.0,0.0,0.0,0.0,0.0,0.0,0.0,0.0,0.0,0.0,0.0,0.0,0.0,0.0,0.0,0.0,0.0,0.0,0.0,0.0,0.0,0.0,0.0,-3.6285,-3.7122,-3.8034,-3.8895,-3.9784,0.0,0.0,0.0,0.0,0.0,0.0,0.0,0.0,0.0,0.0,0.0,0.0,0.0,0.0,0.0,0.0,0.0,0.0,0.0,0.0,0.0,0.0,0.0,0.0,0.0,0.0,0.0,0.0,0.0,0.0,0.0,0.0,0.0,0.0,0.0,0.0,0.0,0.0,0.0,0.0,0.0,0.0,0.0,0.0,0.0,0.0,0.0,0.0,0.0,0.0,0.0,0.0,0.0,0.0,0.0,0.0,0.0,0.0,0.0,0.0,0.0,0.0,0.0,0.0,0.0,0.0,0.0,0.0,0.0,0.0,0.0,0.0,0.0,0.0,0.0,0.0,0.0,0.0,0.0,0.0,0.0,0.0,0.0,0.0,0.0,0.0,0.0,0.0,0.0,0.0,0.0,0.0,0.0,0.0,0.0,0.0,0.0,0.0,0.0,0.0,0.0,0.0,0.0,0.0,0.0,0.0,0.0,0.0,0.0,0.0,0.0,0.0,-3.7949,-3.8999,-4.0023,0.0,0.0,0.0,0.0,0.0,0.0,0.0,0.0,0.0,0.0,0.0,0.0,0.0,0.0,0.0,0.0,0.0,0.0,0.0,0.0,0.0,0.0,0.0,0.0,0.0,0.0,0.0,0.0,0.0,0.0,0.0,0.0,0.0,0.0,0.0,0.0,0.0,0.0,0.0,0.0,0.0,0.0,0.0,0.0,0.0,0.0,0.0,0.0,0.0,0.0,0.0,0.0,0.0,0.0,0.0,0.0,0.0,0.0,0.0,0.0,0.0,0.0,0.0,0.0,0.0,0.0,0.0,0.0,0.0,0.0,0.0,0.0,0.0,0.0,0.0,0.0,0.0,0.0,0.0,0.0,0.0,0.0,0.0,0.0,0.0,0.0,0.0,0.0,0.0,0.0,0.0,0.0,0.0,0.0,0.0,0.0,0.0,0.0,0.0,0.0,0.0,0.0,0.0,0.0,0.0,0.0,0.0,0.0,0.0,0.0,-3.5972,-3.6133,-3.7667,0.0,-4.0753,0.0,0.0,0.0,0.0,0.0,0.0,0.0,0.0,0.0,0.0,0.0,0.0,0.0,0.0,0.0,0.0,0.0,0.0,0.0,0.0,0.0,0.0,0.0,0.0,0.0,0.0,0.0,0.0,0.0,0.0,0.0,0.0,0.0,0.0,0.0,0.0,0.0,0.0,0.0,0.0,0.0,0.0,0.0,0.0,0.0,0.0,0.0,0.0,0.0,0.0,0.0,0.0,0.0,0.0,0.0,0.0,0.0,0.0,0.0,0.0,0.0,0.0,0.0,0.0,0.0,0.0,0.0,0.0,0.0,0.0,0.0,0.0,0.0,0.0,0.0,0.0,0.0,0.0,0.0,0.0,0.0,0.0,0.0,0.0,0.0,0.0,0.0,0.0,0.0,0.0,0.0,0.0,0.0,0.0,0.0,0.0,0.0,0.0,0.0,0.0,0.0,0.0,0.0,0.0,0.0,0.0,0.0,0.0,0.0,0.0,-3.5947,-3.5946,-3.7571,-3.9221,0.0,0.0,0.0,0.0,0.0,0.0,0.0,0.0,0.0,0.0,0.0,0.0,0.0,0.0,0.0,0.0,0.0,0.0,0.0,0.0,0.0,0.0,0.0,0.0,0.0,0.0,0.0,0.0,0.0,0.0,0.0,0.0,0.0,0.0,0.0,0.0,0.0,0.0,0.0,0.0,0.0,0.0,0.0,0.0,0.0,0.0,0.0,0.0,0.0,0.0,0.0,0.0,0.0,0.0,0.0,0.0,0.0,0.0,0.0,0.0,0.0,0.0,0.0,0.0,0.0,0.0,0.0,0.0,0.0,0.0,0.0,0.0,0.0,0.0,0.0,0.0,0.0,0.0,0.0,0.0,0.0,0.0,0.0,0.0,0.0,0.0,0.0,0.0,0.0,0.0,0.0,0.0,0.0,0.0,0.0,0.0,0.0,0.0,0.0,0.0,0.0,0.0,0.0,0.0,0.0,0.0,0.0,0.0,0.0,0.0,-3.5981,-3.6153,-3.6605,-3.7724,-3.9149,-4.0771,0.0,0.0,0.0,0.0,0.0,0.0,0.0,0.0,0.0,0.0,0.0,0.0,0.0,0.0,0.0,0.0,0.0,0.0,0.0,0.0,0.0,0.0,0.0,0.0,0.0,0.0,0.0,0.0,0.0,0.0,0.0,0.0,0.0,0.0,0.0,0.0,0.0,0.0,0.0,0.0,0.0,0.0,0.0,0.0,0.0,0.0,0.0,0.0,0.0,0.0,0.0,0.0,0.0,0.0,0.0,0.0,0.0,0.0,0.0,0.0,0.0,0.0,0.0,0.0,0.0,0.0,0.0,0.0,0.0,0.0,0.0,0.0,0.0,0.0,0.0,0.0,0.0,0.0,0.0,0.0,0.0,0.0,0.0,0.0,0.0,0.0,0.0,0.0,0.0,0.0,0.0,0.0,0.0,0.0,0.0,0.0,0.0,0.0,0.0,0.0,0.0,0.0,0.0,0.0,0.0,0.0,0.0,0.0,-3.5938,-3.5937,-3.6647,-3.8103,-3.8277,-3.906,0.0,0.0,0.0,0.0,0.0,0.0,0.0,0.0,0.0,0.0,0.0,0.0,0.0,0.0,0.0,0.0,0.0,0.0,0.0,0.0,0.0,0.0,0.0,0.0,0.0,0.0,0.0,0.0,0.0,0.0,0.0,0.0,0.0,0.0,0.0,0.0,0.0,0.0,0.0,0.0,0.0,0.0,0.0,0.0,0.0,0.0,0.0,0.0,0.0,0.0,0.0,0.0,0.0,0.0,0.0,0.0,0.0,0.0,0.0,0.0,0.0,0.0,0.0,0.0,0.0,0.0,0.0,0.0,0.0,0.0,0.0,0.0,0.0,0.0,0.0,0.0,0.0,0.0,0.0,0.0,0.0,0.0,0.0,0.0,0.0,0.0,0.0,0.0,0.0,0.0,0.0,0.0,0.0,0.0,0.0,0.0,0.0,0.0,0.0,0.0,0.0,0.0,0.0,0.0,0.0,0.0,0.0,0.0,0.0,-3.7475,-3.7422,-3.7857,-3.8897,-3.893,-3.9463,0.0,0.0,0.0,0.0,0.0,0.0,0.0,0.0,0.0,0.0,0.0,0.0,0.0,0.0,0.0,0.0,0.0,0.0,0.0,0.0,0.0,0.0,0.0,0.0,0.0,0.0,0.0,0.0,0.0,0.0,0.0,0.0,0.0,0.0,0.0,0.0,0.0,0.0,0.0,0.0,0.0,0.0,0.0,0.0,0.0,0.0,0.0,0.0,0.0,0.0,0.0,0.0,0.0,0.0,0.0,0.0,0.0,0.0,0.0,0.0,0.0,0.0,0.0,0.0,0.0,0.0,0.0,0.0,0.0,0.0,0.0,0.0,0.0,0.0,0.0,0.0,0.0,0.0,0.0,0.0,0.0,0.0,0.0,0.0,0.0,0.0,0.0,0.0,0.0,0.0,0.0,0.0,0.0,0.0,0.0,0.0,0.0,0.0,0.0,0.0,0.0,0.0,0.0,0.0,0.0,0.0,0.0,0.0,0.0,-3.8287,0.0,-3.8492,-3.9191,-3.9204,-3.9596,0.0,0.0,0.0,0.0,0.0,0.0,0.0,0.0,0.0,0.0,0.0,0.0,0.0,0.0,0.0,0.0,0.0,0.0,0.0,0.0,0.0,0.0,0.0,0.0,0.0,0.0,0.0,0.0,0.0,0.0,0.0,0.0,0.0,0.0,0.0,0.0,0.0,0.0,0.0,0.0,0.0,0.0,0.0,0.0,0.0,0.0,0.0,0.0,0.0,0.0,0.0,0.0,0.0,0.0,0.0,0.0,0.0,0.0,0.0,0.0,0.0,0.0,0.0,0.0,0.0,0.0,0.0,0.0,0.0,0.0,0.0,0.0,0.0,0.0,0.0,0.0,0.0,0.0,0.0,0.0,0.0,0.0,0.0,0.0,0.0,0.0,0.0,0.0,0.0,0.0,0.0,0.0,0.0,0.0,0.0,0.0,0.0,0.0,0.0,0.0,0.0,0.0,0.0,0.0,0.0,0.0,0.0,0.0,-3.8336,-3.817,-3.8104,-3.8439,-3.9076,-3.9082,-3.9409,0.0,0.0,0.0,0.0,0.0,0.0,0.0,0.0,0.0,0.0,0.0,0.0,0.0,0.0,0.0,0.0,0.0,0.0,0.0,0.0,0.0,0.0,0.0,0.0,0.0,0.0,0.0,0.0,0.0,0.0,0.0,0.0,0.0,0.0,0.0,0.0,0.0,0.0,0.0,0.0,0.0,0.0,0.0,0.0,0.0,0.0,0.0,0.0,0.0,0.0,0.0,0.0,0.0,0.0,0.0,0.0,0.0,0.0,0.0,0.0,0.0,0.0,0.0,0.0,0.0,0.0,0.0,0.0,0.0,0.0,0.0,0.0,0.0,0.0,0.0,0.0,0.0,0.0,0.0,0.0,0.0,0.0,0.0,0.0,0.0,0.0,0.0,0.0,0.0,0.0,0.0,0.0,0.0,0.0,0.0,0.0,0.0,0.0,0.0,0.0,0.0,0.0,0.0,0.0,0.0,0.0,0.0,0.0,0.0,-3.9603,-3.9522,-3.9544,-3.9718,-3.9659,-3.9773,0.0,0.0,0.0,0.0,0.0,0.0,0.0,0.0,0.0,0.0,0.0,0.0,0.0,0.0,0.0,0.0,0.0,0.0,0.0,0.0,0.0,0.0,0.0,0.0,0.0,0.0,0.0,0.0,0.0,0.0,0.0,0.0,0.0,0.0,0.0,0.0,0.0,0.0,0.0,0.0,0.0,0.0,0.0,0.0,0.0,0.0,0.0,0.0,0.0,0.0,0.0,0.0,0.0,0.0,0.0,0.0,0.0,0.0,0.0,0.0,0.0,0.0,0.0,0.0,0.0,0.0,0.0,0.0,0.0,0.0,0.0,0.0,0.0,0.0,0.0,0.0,0.0,0.0,0.0,0.0,0.0,0.0,0.0,0.0,0.0,0.0,0.0,0.0,0.0,0.0,0.0,0.0,0.0,0.0,0.0,0.0,0.0,0.0,0.0,0.0,0.0,0.0,0.0,0.0,0.0,0.0,0.0,0.0,0.0,-4.0053,-4.0,-3.9962,-3.9892,-3.9826,-3.9826,-3.9911,0.0,0.0,0.0,0.0,0.0,0.0,0.0,0.0,0.0,0.0,0.0,0.0,0.0,0.0,0.0,0.0,0.0,0.0,0.0,0.0,0.0,0.0,0.0,0.0,0.0,0.0,0.0,0.0,0.0,0.0,0.0,0.0,0.0,0.0,0.0,0.0,0.0,0.0,0.0,0.0,0.0,0.0,0.0,0.0,0.0,0.0,0.0,0.0,0.0,0.0,0.0,0.0,0.0,0.0,0.0,0.0,0.0,0.0,0.0,0.0,0.0,0.0,0.0,0.0,0.0,0.0,0.0,0.0,0.0,0.0,0.0,0.0,0.0,0.0,0.0,0.0,0.0,0.0,0.0,0.0,0.0,0.0,0.0,0.0,0.0,0.0,0.0,0.0,0.0,0.0,0.0,0.0,0.0,0.0,0.0,0.0,0.0,0.0,0.0,0.0,0.0,0.0,0.0,0.0,0.0,0.0,0.0,0.0,-3.9575,-3.9708,-3.9712,-3.9693,-3.9623,-3.9623,0.0,0.0,0.0,0.0,0.0,0.0,0.0,0.0,0.0,0.0,0.0,0.0,0.0,0.0,0.0,0.0,0.0,0.0,0.0,0.0,0.0,0.0,0.0,0.0,0.0,0.0,0.0,0.0,0.0,0.0,0.0,0.0,0.0,0.0,0.0,0.0,0.0,0.0,0.0,0.0,0.0,0.0,0.0,0.0,0.0,0.0,0.0,0.0,0.0,0.0,0.0,0.0,0.0,0.0,0.0,0.0,0.0,0.0,0.0,0.0,0.0,0.0,0.0,0.0,0.0,0.0,0.0,0.0,0.0,0.0,0.0,0.0,0.0,0.0,0.0,0.0,0.0,0.0,0.0,0.0,0.0,0.0,0.0,0.0,0.0,0.0,0.0,0.0,0.0,0.0,0.0,0.0,0.0,0.0,0.0,0.0,0.0,0.0,0.0,0.0,0.0,0.0,0.0,0.0,0.0,0.0,0.0,0.0,0.0,-3.9401,-3.932,-3.9357,-3.9458,-3.9476,-3.9489,0.0,0.0,0.0,0.0,0.0,0.0,0.0,0.0,0.0,0.0,0.0,0.0,0.0,0.0,0.0,0.0,0.0,0.0,0.0,0.0,0.0,0.0,0.0,0.0,0.0,0.0,0.0,0.0,0.0,0.0,0.0,0.0,0.0,0.0,0.0,0.0,0.0,0.0,0.0,0.0,0.0,0.0,0.0,0.0,0.0,0.0,0.0,0.0,0.0,0.0,0.0,0.0,0.0,0.0,0.0,0.0,0.0,0.0,0.0,0.0,0.0,0.0,0.0,0.0,0.0,0.0,0.0,0.0,0.0,0.0,0.0,0.0,0.0,0.0,0.0,0.0,0.0,0.0,0.0,0.0,0.0,0.0,0.0,0.0,0.0,0.0,0.0,0.0,0.0,0.0,0.0,0.0,0.0,0.0,0.0,0.0,0.0,0.0,0.0,0.0,0.0,0.0,0.0,0.0,0.0,0.0,0.0,0.0,-3.9433,-3.9219,-3.9073,-3.9081,-3.9166,-3.9248,-3.9283,0.0,0.0,0.0,0.0,0.0,0.0,0.0,0.0,0.0,0.0,0.0,0.0,0.0,0.0,0.0,0.0,0.0,0.0,0.0,0.0,0.0,0.0,0.0,0.0,0.0,0.0,0.0,0.0,0.0,0.0,0.0,0.0,0.0,0.0,0.0,0.0,0.0,0.0,0.0,0.0,0.0,0.0,0.0,0.0,0.0,0.0,0.0,0.0,0.0,0.0,0.0,0.0,0.0,0.0,0.0,0.0,0.0,0.0,0.0,0.0,0.0,0.0,0.0,0.0,0.0,0.0,0.0,0.0,0.0,0.0,0.0,0.0,0.0,0.0,0.0,0.0,0.0,0.0,0.0,0.0,0.0,0.0,0.0,0.0,0.0,0.0,0.0,0.0,0.0,0.0,0.0,0.0,0.0,0.0,0.0,0.0,0.0,0.0,0.0,0.0,0.0,0.0,0.0,0.0,0.0,0.0,0.0,0.0,-3.921,-3.9045,-3.8902,-3.8862,-3.8833,-3.9007,-3.9073,0.0,0.0,0.0,0.0,0.0,0.0,0.0,0.0,0.0,0.0,0.0,0.0,0.0,0.0,0.0,0.0,0.0,0.0,0.0,0.0,0.0,0.0,0.0,0.0,0.0,0.0,0.0,0.0,0.0,0.0,0.0,0.0,0.0,0.0,0.0,0.0,0.0,0.0,0.0,0.0,0.0,0.0,0.0,0.0,0.0,0.0,0.0,0.0,0.0,0.0,0.0,0.0,0.0,0.0,0.0,0.0,0.0,0.0,0.0,0.0,0.0,0.0,0.0,0.0,0.0,0.0,0.0,0.0,0.0,0.0,0.0,0.0,0.0,0.0,0.0,0.0,0.0,0.0,0.0,0.0,0.0,0.0,0.0,0.0,0.0,0.0,0.0,0.0,0.0,0.0,0.0,0.0,0.0,0.0,0.0,0.0,0.0,0.0,0.0,0.0,0.0,0.0,0.0,0.0,0.0,0.0,0.0,0.0,-3.8873,-3.8615,-3.8603,-3.859,-3.851,-3.8743,-3.895,0.0,0.0,0.0,0.0,0.0,0.0,0.0,0.0,0.0,0.0,0.0,0.0,0.0,0.0,0.0,0.0,0.0,0.0,0.0,0.0,0.0,0.0,0.0,0.0,0.0,0.0,0.0,0.0,0.0,0.0,0.0,0.0,0.0,0.0,0.0,0.0,0.0,0.0,0.0,0.0,0.0,0.0,0.0,0.0,0.0,0.0,0.0,0.0,-4.3992,0.0,0.0,0.0,0.0,0.0,0.0,0.0,0.0,0.0,0.0,0.0,0.0,0.0,0.0,0.0,0.0,0.0,0.0,0.0,0.0,0.0,0.0,0.0,0.0,0.0,0.0,0.0,0.0,0.0,0.0,0.0,0.0,0.0,0.0,0.0,0.0,0.0,0.0,0.0,0.0,0.0,0.0,0.0,0.0,0.0,0.0,0.0,0.0,0.0,0.0,0.0,0.0,0.0,0.0,0.0,0.0,0.0,0.0,0.0,-3.8559,-3.8382,-3.8318,-3.8267,-3.8267,-3.8415,-3.8603,0.0,0.0,0.0,0.0,0.0,0.0,0.0,0.0,0.0,0.0,0.0,0.0,0.0,0.0,0.0,0.0,0.0,0.0,0.0,0.0,0.0,0.0,0.0,0.0,0.0,0.0,0.0,0.0,0.0,0.0,0.0,0.0,0.0,0.0,0.0,0.0,0.0,0.0,0.0,0.0,0.0,0.0,0.0,0.0,0.0,0.0,0.0,0.0,0.0,0.0,0.0,0.0,0.0,0.0,0.0,0.0,0.0,0.0,0.0,0.0,0.0,0.0,0.0,0.0,0.0,0.0,0.0,0.0,0.0,0.0,0.0,0.0,0.0,0.0,0.0,0.0,0.0,0.0,0.0,0.0,0.0,0.0,0.0,0.0,0.0,0.0,0.0,0.0,0.0,0.0,0.0,0.0,0.0,0.0,0.0,0.0,0.0,0.0,0.0,0.0,0.0,0.0,0.0,0.0,0.0,0.0,0.0,-3.8318,-3.8189,-3.8189,-3.8036,-3.7967,-3.8034,-3.8034,-3.8186,-3.8596,0.0,0.0,0.0,0.0,0.0,0.0,0.0,0.0,0.0,0.0,0.0,0.0,0.0,0.0,0.0,0.0,0.0,0.0,0.0,0.0,0.0,0.0,0.0,0.0,0.0,0.0,0.0,0.0,0.0,0.0,0.0,0.0,0.0,0.0,0.0,0.0,0.0,0.0,-4.4527,-4.4327,0.0,0.0,0.0,0.0,0.0,0.0,0.0,0.0,-4.3232,0.0,0.0,0.0,0.0,0.0,0.0,0.0,0.0,0.0,0.0,0.0,0.0,0.0,0.0,0.0,0.0,0.0,0.0,0.0,0.0,0.0,0.0,0.0,0.0,0.0,0.0,0.0,0.0,0.0,0.0,0.0,0.0,0.0,0.0,0.0,0.0,0.0,0.0,0.0,0.0,0.0,0.0,0.0,0.0,0.0,0.0,0.0,0.0,0.0,0.0,0.0,0.0,0.0,0.0,0.0,0.0,-3.8083,-3.7915,-3.7792,-3.7721,-3.7703,-3.7685,-3.7685,-3.7685,-3.7828,-3.8086,0.0,0.0,0.0,0.0,0.0,0.0,0.0,0.0,0.0,0.0,0.0,0.0,0.0,0.0,0.0,0.0,0.0,0.0,0.0,0.0,0.0,0.0,0.0,0.0,0.0,0.0,0.0,0.0,0.0,0.0,0.0,0.0,0.0,0.0,0.0,0.0,0.0,0.0,0.0,-4.4048,-4.3892,0.0,0.0,0.0,0.0,0.0,0.0,0.0,0.0,-4.2652,0.0,0.0,0.0,0.0,0.0,0.0,0.0,0.0,0.0,0.0,0.0,0.0,0.0,0.0,0.0,0.0,0.0,0.0,0.0,0.0,0.0,0.0,0.0,0.0,0.0,0.0,0.0,0.0,0.0,0.0,0.0,0.0,0.0,0.0,0.0,0.0,0.0,0.0,0.0,0.0,0.0,0.0,0.0,0.0,0.0,0.0,0.0,0.0,0.0,0.0,0.0,0.0,0.0,0.0,0.0,-3.7596,-3.7504,-3.7337,-3.7297,-3.7279,-3.7279,-3.7297,-3.7317,-3.7466,0.0,0.0,0.0,0.0,0.0,0.0,0.0,0.0,0.0,0.0,0.0,0.0,0.0,0.0,0.0,0.0,0.0,0.0,0.0,0.0,0.0,0.0,0.0,0.0,0.0,0.0,0.0,0.0,0.0,0.0,0.0,0.0,0.0,0.0,0.0,0.0,0.0,0.0,0.0,0.0,-4.3832,-4.3627,-4.3476,0.0,0.0,0.0,0.0,0.0,0.0,-4.2315,-4.221,0.0,0.0,0.0,0.0,0.0,0.0,0.0,0.0,0.0,0.0,0.0,0.0,0.0,0.0,0.0,0.0,0.0,0.0,0.0,0.0,0.0,0.0,0.0,0.0,0.0,0.0,0.0,0.0,0.0,0.0,0.0,0.0,0.0,0.0,0.0,0.0,0.0,0.0,0.0,0.0,0.0,0.0,0.0,0.0,0.0,0.0,0.0,0.0,0.0,0.0,0.0,0.0,0.0,0.0,0.0,-3.7266,-3.7126,-3.7009,-3.6948,-3.6948,-3.6948,-3.6948,-3.7009,-3.7108,0.0,0.0,0.0,0.0,0.0,0.0,0.0,0.0,0.0,0.0,0.0,0.0,0.0,0.0,0.0,0.0,0.0,0.0,0.0,0.0,0.0,0.0,0.0,0.0,0.0,0.0,0.0,0.0,0.0,0.0,0.0,0.0,0.0,0.0,0.0,0.0,0.0,0.0,0.0,0.0,0.0,-4.3371,-4.3185,-4.3087,0.0,0.0,0.0,0.0,-4.2092,-4.1899,0.0,0.0,0.0,0.0,0.0,0.0,0.0,0.0,0.0,0.0,0.0,0.0,0.0,0.0,0.0,0.0,0.0,0.0,0.0,0.0,0.0,0.0,0.0,0.0,0.0,0.0,0.0,0.0,0.0,0.0,0.0,0.0,0.0,0.0,0.0,0.0,0.0,0.0,0.0,0.0,0.0,0.0,0.0,0.0,0.0,0.0,0.0,0.0,0.0,0.0,0.0,0.0,0.0,0.0,0.0,0.0,-3.7013,-3.6846,-3.6725,-3.6742,-3.6742,-3.6725,-3.6725,-3.6725,-3.6869,0.0,0.0,0.0,0.0,0.0,0.0,0.0,0.0,0.0,0.0,0.0,0.0,0.0,0.0,0.0,0.0,0.0,0.0,0.0,0.0,0.0,0.0,0.0,0.0,0.0,0.0,0.0,0.0,0.0,0.0,0.0,0.0,0.0,0.0,0.0,0.0,0.0,0.0,0.0,0.0,0.0,-4.3068,-4.2808,-4.2616,-4.2369,0.0,0.0,-4.1709,-4.1525,-4.1471,0.0,0.0,0.0,0.0,0.0,0.0,0.0,0.0,0.0,0.0,0.0,0.0,0.0,0.0,0.0,0.0,0.0,0.0,0.0,0.0,0.0,0.0,0.0,0.0,0.0,0.0,0.0,0.0,0.0,0.0,0.0,0.0,0.0,0.0,0.0,0.0,0.0,0.0,0.0,0.0,0.0,0.0,0.0,0.0,0.0,0.0,0.0,0.0,0.0,0.0,0.0,0.0,0.0,0.0,0.0,-3.6257,-3.6696,-3.6609,-3.6544,-3.6485,-3.6461,-3.6444,-3.6502,-3.6502,-3.6609,0.0,0.0,0.0,0.0,0.0,0.0,0.0,0.0,0.0,0.0,0.0,0.0,0.0,0.0,0.0,0.0,0.0,0.0,0.0,0.0,0.0,0.0,0.0,0.0,0.0,0.0,0.0,0.0,0.0,0.0,0.0,0.0,0.0,0.0,0.0,0.0,0.0,0.0,0.0,0.0,0.0,0.0,-4.2382,-4.2157,0.0,0.0,0.0,-4.1328,-4.1152,0.0,0.0,0.0,0.0,0.0,0.0,0.0,0.0,0.0,0.0,0.0,0.0,0.0,0.0,0.0,0.0,0.0,0.0,0.0,0.0,0.0,0.0,0.0,0.0,0.0,0.0,0.0,0.0,0.0,0.0,0.0,0.0,0.0,0.0,0.0,0.0,0.0,0.0,0.0,0.0,0.0,0.0,0.0,0.0,0.0,0.0,0.0,0.0,0.0,0.0,0.0,0.0,0.0,0.0,0.0,0.0,0.0,-3.6485,-3.6468,-3.6409,-3.6301,-3.6284,-3.6284,-3.6284,-3.6284,0.0,0.0,0.0,0.0,0.0,0.0,0.0,0.0,0.0,0.0,0.0,0.0,0.0,0.0,0.0,0.0,0.0,0.0,0.0,0.0,0.0,0.0,0.0,0.0,0.0,0.0,0.0,-4.536,0.0,0.0,0.0,0.0,0.0,0.0,0.0,0.0,0.0,0.0,0.0,0.0,0.0,0.0,-4.2374,-4.1997,-4.1735,-4.1426,0.0,0.0,-4.0995,-4.0823,-4.0793,-4.0776,0.0,0.0,0.0,0.0,0.0,0.0,0.0,0.0,0.0,0.0,0.0,0.0,0.0,0.0,0.0,0.0,0.0,0.0,0.0,0.0,0.0,0.0,0.0,0.0,0.0,0.0,0.0,0.0,0.0,0.0,0.0,0.0,0.0,0.0,0.0,0.0,0.0,0.0,0.0,0.0,0.0,0.0,0.0,0.0,0.0,0.0,0.0,0.0,0.0,0.0,0.0,0.0,0.0,0.0,-3.6638,-3.6502,-3.6402,-3.6301,-3.6284,-3.6284,-3.6284,-3.6284,-3.6284,-3.6444,0.0,0.0,0.0,0.0,0.0,0.0,0.0,0.0,0.0,0.0,0.0,0.0,0.0,0.0,0.0,0.0,0.0,0.0,0.0,0.0,0.0,0.0,0.0,0.0,0.0,0.0,0.0,0.0,0.0,0.0,0.0,0.0,0.0,0.0,0.0,0.0,0.0,0.0,0.0,0.0,0.0,-4.2019,-4.1692,-4.13,-4.1041,0.0,-4.0697,-4.0517,-4.0534,-4.0534,-4.0534,-4.0517,0.0,0.0,0.0,0.0,0.0,0.0,0.0,0.0,0.0,0.0,0.0,0.0,0.0,0.0,0.0,0.0,0.0,0.0,0.0,0.0,0.0,0.0,0.0,0.0,0.0,0.0,0.0,0.0,0.0,0.0,0.0,0.0,0.0,0.0,0.0,0.0,0.0,0.0,0.0,0.0,0.0,0.0,0.0,0.0,0.0,0.0,0.0,0.0,0.0,0.0,0.0,0.0,0.0,-3.6527,-3.6385,-3.6343,-3.6284,-3.6284,-3.6284,-3.6284,-3.6284,-3.6385,-3.6502,0.0,0.0,0.0,0.0,0.0,0.0,0.0,0.0,0.0,0.0,0.0,0.0,0.0,0.0,0.0,0.0,0.0,0.0,0.0,0.0,0.0,0.0,0.0,0.0,0.0,0.0,0.0,0.0,-4.4849,-4.4613,-4.4248,0.0,0.0,0.0,0.0,0.0,0.0,0.0,0.0,0.0,0.0,-4.1762,-4.1408,-4.1041,0.0,0.0,-4.0485,-4.0387,-4.0387,-4.0387,-4.0387,-4.0404,-4.0165,0.0,0.0,0.0,0.0,0.0,0.0,0.0,0.0,0.0,0.0,0.0,0.0,0.0,0.0,0.0,0.0,0.0,0.0,0.0,0.0,0.0,0.0,0.0,0.0,0.0,0.0,0.0,0.0,0.0,0.0,0.0,0.0,0.0,0.0,0.0,0.0,0.0,0.0,0.0,0.0,0.0,0.0,0.0,0.0,0.0,0.0,0.0,0.0,0.0,0.0,0.0,0.0,-3.6419,-3.6276,-3.6301,-3.6284,-3.6284,-3.6284,-3.6301,-3.6343,-3.6686,-3.695,0.0,0.0,0.0,0.0,0.0,0.0,0.0,0.0,0.0,0.0,0.0,0.0,0.0,0.0,0.0,0.0,0.0,0.0,0.0,0.0,0.0,0.0,0.0,0.0,0.0,0.0,0.0,0.0,-4.4676,-4.4344,-4.3942,0.0,0.0,0.0,0.0,0.0,0.0,0.0,0.0,0.0,0.0,-4.1604,-4.118,-4.0806,-4.06,-4.0436,-4.0337,-4.0238,-4.0255,-4.0255,-4.0255,-4.0238,0.0,0.0,0.0,0.0,0.0,0.0,0.0,0.0,0.0,0.0,0.0,0.0,0.0,0.0,0.0,0.0,0.0,0.0,0.0,0.0,0.0,0.0,0.0,0.0,0.0,0.0,0.0,-4.1516,0.0,0.0,-4.06,0.0,0.0,0.0,0.0,0.0,0.0,0.0,0.0,0.0,0.0,0.0,0.0,0.0,0.0,0.0,0.0,0.0,0.0,0.0,0.0,0.0,0.0,-3.6437,-3.6225,-3.6345,-3.6335,-3.6335,-3.6301,-3.6395,-3.6554,-3.7265,-3.7833,-3.8164,0.0,0.0,0.0,0.0,0.0,0.0,0.0,0.0,0.0,0.0,0.0,0.0,0.0,0.0,0.0,0.0,0.0,0.0,0.0,0.0,0.0,0.0,0.0,0.0,0.0,0.0,-4.4813,-4.4345,-4.3915,0.0,0.0,0.0,0.0,0.0,0.0,0.0,0.0,0.0,-4.2038,-4.1805,-4.1426,-4.0982,-4.068,-4.0485,-4.0337,-4.0188,-4.007,-4.0121,-4.0121,-4.0087,0.0,0.0,0.0,0.0,0.0,0.0,0.0,0.0,0.0,0.0,0.0,0.0,0.0,0.0,0.0,0.0,0.0,0.0,0.0,0.0,0.0,0.0,0.0,0.0,0.0,0.0,0.0,-4.1126,-4.1317,0.0,0.0,0.0,0.0,0.0,0.0,0.0,0.0,0.0,0.0,0.0,-4.3021,-4.2423,0.0,0.0,0.0,0.0,0.0,0.0,0.0,0.0,0.0,0.0,0.0,0.0,-3.7353,-3.7641,-3.7767,-3.7837,-3.7818,-3.7887,-3.7992,-3.8027,-3.8527,-3.896,-3.938,0.0,0.0,0.0,0.0,0.0,0.0,0.0,0.0,0.0,0.0,0.0,0.0,0.0,0.0,0.0,0.0,0.0,0.0,0.0,0.0,0.0,0.0,0.0,0.0,0.0,-4.4857,0.0,0.0,0.0,0.0,0.0,0.0,0.0,0.0,0.0,0.0,0.0,-4.2087,-4.1966,-4.1613,-4.1226,-4.0918,-4.0566,-4.0337,0.0,0.0,0.0,0.0,0.0,0.0,0.0,0.0,0.0,0.0,0.0,0.0,0.0,0.0,-4.0765,-4.1071,-4.1106,-4.1174,-4.1432,0.0,0.0,0.0,0.0,0.0,0.0,0.0,0.0,0.0,0.0,0.0,0.0,0.0,0.0,-4.1628,0.0,-4.1724,0.0,0.0,0.0,0.0,0.0,0.0,0.0,0.0,-4.295,-4.3222,-4.3666,-4.3106,-4.2774,0.0,-4.1958,-4.1505,0.0,0.0,0.0,0.0,0.0,0.0,0.0,0.0,-3.7978,-3.8351,-3.857,-3.8659,-3.8684,-3.8814,-3.8903,-3.8964,-3.9592,-4.017,-4.0792,-4.1025,-4.1142,0.0,0.0,0.0,0.0,0.0,0.0,0.0,0.0,0.0,0.0,0.0,0.0,0.0,0.0,0.0,0.0,0.0,0.0,0.0,0.0,0.0,0.0,0.0,-4.4631,0.0,0.0,0.0,0.0,0.0,0.0,0.0,0.0,0.0,-4.3104,-4.2727,-4.2333,-4.1959,-4.1525,-4.1117,-4.0871,0.0,0.0,0.0,0.0,0.0,0.0,0.0,-4.0087,-4.0087,-4.0087,-4.0087,-4.0087,-4.0188,-4.0323,-4.0561,0.0,0.0,-4.1579,-4.1835,-4.1988,-4.1988,-4.233,-4.2619,-4.2619,-4.2602,-4.255,0.0,0.0,0.0,0.0,0.0,0.0,0.0,0.0,-4.2253,-4.2828,0.0,-4.2551,0.0,0.0,0.0,0.0,0.0,-4.2566,0.0,0.0,-4.3667,-4.3686,-4.3532,-4.3534,-4.352,-4.3397,-4.3233,-4.2939,-4.2483,-4.0835,0.0,0.0,0.0,0.0,0.0,0.0,-3.842,-3.8362,-3.8715,-3.8876,-3.8893,-3.9025,-3.9223,-3.9434,-4.0534,-4.1484,-4.2257,-4.2768,-4.2723,-4.196,-4.2205,0.0,0.0,0.0,0.0,0.0,0.0,0.0,0.0,0.0,0.0,0.0,0.0,0.0,0.0,0.0,0.0,0.0,0.0,0.0,0.0,-4.4735,0.0,0.0,0.0,0.0,0.0,0.0,0.0,0.0,0.0,0.0,-4.3104,-4.2765,-4.2432,-4.1959,0.0,0.0,0.0,0.0,-4.0238,-4.0138,-4.0087,-4.0087,-4.0087,-4.0087,-4.0087,-4.0087,0.0,0.0,-4.0087,-4.0087,-4.0307,-4.1035,-4.1187,-4.1341,-4.1613,-4.2228,-4.2688,-4.2705,-4.2722,-4.2617,-4.2617,-4.2683,-4.256,-4.0161,0.0,0.0,0.0,0.0,-4.1059,-4.1445,-4.1742,-4.2203,-4.2631,-4.2995,-4.2795,0.0,0.0,0.0,0.0,0.0,0.0,-4.3369,-4.3516,-4.3566,-4.3566,-4.3479,-4.3516,-4.3465,-4.3251,-4.3214,-4.2994,-4.2591,-4.1984,-4.1126,-4.0052,0.0,0.0,0.0,0.0,-3.9617,-4.0087,-4.0383,-4.0582,-4.0627,-4.0779,-4.1024,-4.1446,-4.1782,-4.2199,-4.2729,-4.288,-4.2977,-4.2976,-4.308,0.0,0.0,0.0,0.0,0.0,0.0,0.0,0.0,0.0,0.0,0.0,0.0,0.0,0.0,0.0,0.0,0.0,0.0,0.0,-4.4789,-4.4452,-4.4168,0.0,0.0,0.0,0.0,0.0,0.0,0.0,0.0,0.0,-4.2994,-4.2552,-4.2103,0.0,0.0,-4.0776,-4.06,-4.0337,-4.0138,-4.0087,-4.0087,0.0,-4.0087,-4.0087,-4.0087,-4.0087,-4.0087,-4.0087,-4.0087,-4.0087,-4.0206,-4.0493,-4.1426,-4.2175,-4.2398,-4.2787,-4.3226,-4.3435,-4.381,-4.4167,-4.4238,-4.4275,-4.4221,-4.0289,-4.0622,-4.0634,-4.0796,-4.1121,-4.1233,-4.1542,-4.1892,-4.2103,-4.2432,-4.2768,-4.2862,-4.3087,-4.3376,-4.3463,0.0,0.0,0.0,-4.3534,-4.3479,-4.3479,-4.3479,-4.3479,-4.3479,-4.341,-4.3286,-4.3214,-4.3013,-4.2727,-4.2494,-4.1979,-4.11,0.0,0.0,-4.0117,-4.0245,-4.0498,-4.1024,-4.1226,-4.1408,-4.156,-4.178,-4.2037,-4.2409,-4.2512,-4.2652,-4.2956,-4.3087,-4.3232,-4.3446,-4.355,-4.3446,0.0,0.0,0.0,0.0,0.0,0.0,0.0,0.0,0.0,0.0,0.0,-4.3694,-4.4595,0.0,0.0,0.0,-4.5125,-4.4802,-4.4477,-4.4224,0.0,0.0,0.0,0.0,0.0,0.0,0.0,-4.3463,-4.3322,-4.3142,-4.2862,-4.2432,-4.1977,-4.1648,-4.1169,-4.081,-4.0583,0.0,-4.0188,-4.0188,-4.0138,-4.0087,-4.0087,-4.0087,-4.0087,-4.0087,-4.0138,-4.0188,-4.0188,-4.0221,-4.0288,-4.0474,-4.1358,-4.2159,-4.2279,-4.2976,-4.3773,-4.4116,-4.4562,-4.4923,-4.4978,-4.4995,-4.491,-4.0239,-4.051,-4.0521,-4.0731,-4.1103,-4.1169,-4.1453,-4.178,-4.1995,-4.2287,-4.2591,-4.2786,-4.2994,-4.3196,-4.3393,0.0,-4.3479,-4.3479,-4.3479,-4.3479,-4.3479,-4.3479,-4.3479,-4.3479,-4.3461,-4.3406,-4.3304,-4.3142,-4.29,-4.2595,-4.2396,-4.231,-4.1788,-4.1363,-4.1169,-4.114,-4.1169,-4.1237,-4.1498,-4.1736,-4.1866,-4.2163,-4.2468,-4.2649,-4.2824,-4.2975,-4.3141,-4.3358,-4.3532,-4.3513,-4.3719,-4.3869,-4.3878,0.0,0.0,0.0,0.0,0.0,0.0,0.0,0.0,0.0,0.0,0.0,0.0,0.0,0.0,-4.5277,-4.4846,0.0,-4.424,-4.4031,0.0,0.0,0.0,-4.3571,-4.3497,-4.3479,-4.3463,-4.3411,0.0,0.0,-4.2822,-4.2391,-4.1995,-4.1692,-4.1324,-4.1,-4.0762,-4.0502,-4.0305,-4.0288,-4.0238,-4.0121,-4.0171,-4.0171,-4.0171,-4.0188,-4.0238,-4.0288,-4.0305,-4.0387,-4.0468,-4.0534,-4.1117,-4.168,-4.168,-4.2843,-4.404,-4.4675,-4.4844,-4.493,-4.4895,-4.4864,-4.4573,-4.0357,-4.051,-4.062,-4.0745,-4.097,-4.1134,-4.1363,-4.1648,-4.1927,-4.2222,-4.2609,-4.2631,-4.288,-4.3233,-4.3428,-4.3479,-4.3479,-4.3479,-4.3479,-4.3479,-4.3479,-4.3479,-4.3479,-4.3479,-4.3461,-4.3406,-4.3375,-4.3233,-4.3049,-4.2862,-4.2729,-4.2595,-4.2414,-4.2068,-4.1552,-4.1498,-4.156,-4.1727,-4.1874,-4.2103,-4.2391,-4.2588,-4.2783,-4.2992,-4.3068,-4.3196,-4.3393,-4.3513,-4.3615,-4.3738,-4.3865,-4.3942,-4.3974,-4.3949,0.0,0.0,0.0,0.0,0.0,0.0,0.0,0.0,0.0,-4.4479,-4.5341,0.0,-4.5338,0.0,-4.4745,-4.4458,-4.4277,-4.4053,0.0,0.0,-4.3618,-4.3516,-4.3479,-4.3479,-4.3481,-4.3411,-4.3286,-4.3123,-4.29,-4.2552,-4.221,-4.1892,-4.1335,-4.0935,-4.084,-4.0631,-4.0436,-4.0436,-4.0436,-4.0436,-4.037,-4.0419,-4.037,-4.0419,-4.0436,-4.0419,-4.0419,-4.0485,-4.0517,-4.0683,-4.1346,-4.1891,-4.1992,-4.2884,-4.3588,-4.3865,-4.4079,-4.4336,-4.444,-4.4096,-4.363,-4.044,-4.0591,-4.0748,-4.0853,-4.1007,-4.1146,-4.1391,-4.1692,-4.1902,-4.2222,-4.2609,-4.2765,-4.3012,-4.3196,-4.341,-4.3479,-4.3479,-4.3479,-4.3479,-4.3479,-4.3479,-4.3479,-4.3479,-4.3479,-4.3479,-4.3442,-4.3393,-4.3359,-4.3251,-4.3105,-4.2995,-4.292,-4.2842,-4.2688,-4.2315,-4.2068,-4.2044,-4.2228,-4.2387,-4.2566,-4.2822,-4.2938,-4.3069,-4.3251,-4.3375,-4.3513,-4.3649,-4.3763,-4.386,-4.391,-4.4055,-4.4147,-4.4188,-4.4266,-4.4205,0.0,0.0,0.0,0.0,0.0,0.0,0.0,0.0,0.0,0.0,0.0,-4.5254,-4.501,-4.4685,-4.443,-4.4218,-4.4005,-4.3865,-4.3701,-4.3618,-4.3516,-4.3479,-4.3479,-4.3463,-4.3429,-4.3286,-4.3142,-4.2938,-4.2613,-4.2351,-4.2103,-4.1604,-4.1152,-4.0982,-4.0793,-4.068,-4.0583,-4.0534,-4.0485,-4.0485,-4.0485,-4.0485,-4.0534,-4.0631,-4.068,-4.068,-4.0758,-4.0853,-4.0935,-4.1341,-4.1665,-4.1811,-4.2497,-4.3067,-4.3136,-4.3301,-4.3586,-4.3883,-4.369,-4.3308,-4.0504,-4.0737,-4.0892,-4.1007,-4.115,-4.122,-4.1453,-4.1841,-4.1987,-4.2264,-4.2688,-4.303,-4.3215,-4.3251,-4.341,-4.3479,-4.3479,-4.3479,-4.3479,-4.3479,-4.3479,-4.3479,-4.3479,-4.3479,-4.3479,-4.3479,-4.3446,-4.3429,-4.3411,-4.3286,-4.3251,-4.3232,-4.3178,-4.316,-4.316,-4.2768,-4.2595,-4.2667,-4.2856,-4.3009,-4.3141,-4.3232,-4.3355,-4.3548,-4.3697,-4.3828,-4.3961,-4.4079,-4.4151,-4.417,-4.4296,-4.4373,-4.444,-4.4468,-4.4551,0.0,-4.4796,0.0,0.0,0.0,0.0,0.0,0.0,0.0,0.0,-4.5298,-4.5148,-4.4821,-4.4632,-4.4411,-4.417,-4.3998,-4.3822,-4.3649,-4.3618,-4.3569,-4.3513,-4.3497,-4.3463,-4.3411,-4.3286,-4.3142,-4.292,-4.267,-4.2432,-4.2269,-4.1934,-4.156,-4.1261,-4.1076,-4.0918,-4.0793,-4.068,-4.0662,-4.0614,-4.0631,-4.0614,-4.0614,-4.0776,-4.0918,-4.0901,-4.1088,-4.1209,-4.1209,-4.129,-4.1335,-4.13,-4.2002,-4.2503,-4.252,-4.2612,-4.284,-4.3236,-4.3258,-4.3049,-4.0703,-4.0888,-4.1022,-4.122,-4.1507,-4.1516,-4.1631,-4.1841,-4.2121,-4.249,-4.2844,-4.3105,-4.3251,-4.3394,-4.3463,-4.3479,-4.3479,-4.3479,-4.3479,-4.3479,-4.3479,-4.3479,-4.3479,-4.3479,-4.3479,-4.3479,-4.3497,-4.3497,-4.3463,-4.3463,-4.3497,-4.3532,-4.3495,-4.3495,-4.3495,0.0,0.0,0.0,-4.3085,-4.3233,-4.3428,-4.3495,-4.3646,-4.391,-4.4048,0.0,-4.4221,-4.4364,-4.4421,-4.444,-4.4551,0.0,0.0,0.0,0.0,0.0,0.0,0.0,0.0,0.0,0.0,0.0,-4.5476,-4.5477,-4.5418,-4.5192,-4.4991,-4.487,-4.4678,-4.4468,-4.4336,-4.4128,-4.3942,-4.3836,-4.3693,-4.3597,-4.3582,-4.3513,-4.3463,-4.3411,-4.3394,-4.3269,-4.3086,-4.2918,-4.2691,-4.2414,-4.2228,-4.2037,-4.1692,-4.1363,-4.1134,-4.1071,-4.1071,-4.1071,-4.1071,-4.1053,-4.1007,-4.1071,-4.1117,-4.1163,-4.1163,-4.1272,-4.1363,-4.1363,-4.1542,-4.1675,-4.1675,-4.1938,-4.2141,-4.2105,-4.22,-4.2334,-4.2763,-4.2464,-4.2035,-4.0896,-4.1064,-4.1285,-4.1472,0.0,-4.1839,-4.1995,-4.2079,-4.2246,-4.2494,-4.2882,-4.3123,-4.3269,-4.3376,-4.3463,-4.3479,-4.3479,-4.3479,-4.3479,-4.3479,-4.3479,-4.3516,-4.3534,-4.3563,-4.3579,-4.3652,-4.3634,-4.3634,-4.3652,-4.3634,-4.3634,-4.3719,-4.3701,-4.3734,-4.3749,-4.3763,-4.3634,-4.3342,-4.3465,-4.36,-4.3701,-4.3818,-4.3955,-4.4109,-4.4327,0.0,0.0,0.0,0.0,0.0,0.0,0.0,0.0,-4.4938,0.0,-4.5084,-4.517,-4.5254,-4.5338,-4.5419,-4.5458,-4.5495,-4.5495,-4.5477,-4.5418,-4.5192,-4.501,-4.4914,-4.4712,-4.4551,-4.4458,-4.4285,-4.4104,-4.3968,-4.3828,-4.3716,-4.3615,-4.36,-4.3532,-4.3481,-4.3429,-4.3359,-4.3251,-4.3013,-4.2862,-4.2652,-4.2472,-4.2287,-4.2079,-4.1692,-4.1346,-4.1237,-4.1209,-4.1209,-4.1209,-4.1272,-4.1318,-4.1318,-4.1408,-4.1498,-4.1498,-4.1622,-4.171,-4.1719,-4.1866,-4.1952,-4.2037,-4.2121,-4.2181,-4.2222,-4.2287,-4.2417,-4.2601,-4.2346,-4.2037,-4.1116,-4.1284,-4.1541,-4.1674,-4.1729,-4.2133,-4.2328,-4.2409,0.0,0.0,0.0,-4.3178,-4.3305,-4.3429,-4.3463,-4.3479,-4.3479,-4.3532,-4.3513,-4.3529,-4.3532,-4.3552,-4.3642,-4.3627,-4.3707,-4.3781,-4.3786,-4.3804,-4.3818,-4.3818,-4.3851,-4.3851,-4.3883,-4.3915,-4.3992,-4.4036,-4.3961,-4.3789,-4.3851,-4.3947,-4.3974,-4.4146,-4.4271,-4.4308,-4.4568,-4.4764,-4.4789,-4.487,-4.4919,-4.4938,-4.4943,-4.501,-4.5057,-4.5061,-4.5129,-4.5235,-4.5297,-4.5359,-4.5438,-4.5477,-4.5513,-4.5513,-4.5513,-4.5477,-4.5418,-4.5235,-4.508,-4.4943,-4.4815,-4.4685,-4.4524,-4.441,-4.4251,-4.4036,-4.3961,-4.3851,-4.3701,-4.3634,-4.3582,-4.3513,-4.3481,-4.3411,-4.3394,-4.3196,-4.2975,-4.2882,-4.2652,-4.2414,-4.2287,-4.197,-4.1622,-4.1426,-4.1408,-4.1346,-4.1346,-4.1453,-4.1515,-4.1515,-4.1692,-4.1823,-4.1866,-4.197,-4.2097,-4.2103,-4.2127,-4.2228,-4.2328,-4.2391,-4.2414,-4.249,-4.257,-4.2649,-4.2688,-4.257,-4.2432,-4.144,-4.1533,-4.1719,-4.1948,-4.2199,-4.2239,-4.2512,-4.2806,-4.2806,-4.3031,-4.334,-4.3359,-4.3411,-4.3497,-4.3479,-4.3479,-4.3497,-4.3548,-4.3579,-4.359,-4.371,-4.3771,-4.3787,-4.3777,-4.3775,-4.3794,-4.3795,-4.3837,-4.3883,-4.3961,-4.4005,-4.4067,-4.4177,-4.4255,-4.4325,-4.4354,-4.4354,-4.4373,-4.417,-4.4114,-4.4158,-4.4346,-4.4541,-4.47,-4.484,-4.4919,-4.5057,-4.5061,-4.508,-4.5061,-4.517,-4.5254,-4.5256,-4.532,-4.5361,-4.5361,-4.5381,-4.54,-4.5476,-4.5514,-4.5532,-4.5586,-4.5531,-4.5477,-4.5399,-4.5337,-4.5213,-4.5103,-4.4962,-4.4796,-4.4595,-4.4542,-4.4373,-4.4177,-4.4055,-4.3961,-4.3865,-4.3682,-4.3615,-4.3582,-4.3513,-4.3463,-4.3411,-4.334,-4.3214,-4.2957,-4.2844,-4.2709,-4.2445,-4.2115,-4.1919,-4.1911,-4.1894,-4.1902,-4.1841,-4.1902,-4.1902,-4.1902,-4.1995,-4.2061,-4.2061,-4.2187,-4.2351,-4.2351,-4.2432,-4.2512,-4.2552,-4.257,-4.2649,-4.2727,-4.2804,-4.29,-4.2974,-4.2994,-4.2938,-4.1763,-4.1912,-4.203,-4.2244,-4.2474,-4.2655,-4.288,-4.3178,-4.3196,-4.3286,-4.3394,-4.3394,-4.3446,-4.3548,-4.3566,-4.3587,-4.3679,-4.3689,-4.3712,-4.3698,-4.3771,-4.3852,-4.3904,-4.3918,-4.396,-4.4053,-4.4085,-4.4073,-4.4135,-4.4158,-4.4218,-4.4277,-4.4411,-4.4468,-4.4496,-4.456,-4.4632,-4.464,-4.4458,-4.4402,-4.4485,-4.4636,-4.4789,-4.4895,-4.4991,-4.5103,-4.5192,-4.5254,-4.5256,-4.5279,-4.532,-4.5361,-4.5361,-4.5381,-4.54,-4.54,-4.5438,-4.5476,-4.5495,-4.5531,-4.5568,-4.5586,-4.5568,-4.5532,-4.5458,-4.5339,-4.5256,-4.5192,-4.5014,-4.487,-4.4751,-4.4587,-4.444,-4.4373,-4.4226,-4.4055,-4.3961,-4.3846,-4.3749,-4.3701,-4.3615,-4.3548,-4.3497,-4.3446,-4.334,-4.3178,-4.3068,-4.2842,-4.2706,-4.2468,-4.2264,-4.2216,-4.2174,-4.2139,-4.2139,-4.2163,-4.2205,-4.2222,-4.2328,-4.2351,-4.2351,-4.2472,-4.2552,-4.2652,-4.2747,-4.2786,-4.29,-4.2938,-4.2938,-4.2975,-4.3031,-4.3105,-4.3142,-4.3178,-4.3105,-4.2072,-4.2221,-4.2399,-4.2598,-4.2776,-4.305,-4.3269,-4.3446,-4.3532,-4.355,-4.3481,-4.3499,-4.355,-4.3634,-4.3634,-4.3726,-4.3766,-4.3841,-4.3841,-4.3838,-4.3897,-4.398,-4.405,-4.4084,-4.4138,-4.4317,-4.4325,-4.4344,-4.4373,-4.4411,-4.4468,-4.4477,-4.4605,-4.4659,-4.4685,-4.4815,-4.4865,-4.4846,-4.4789,-4.4739,-4.4762,-4.4881,-4.4967,-4.508,-4.517,-4.5256,-4.5319,-4.5379,-4.54,-4.54,-4.5419,-4.5419,-4.5419,-4.5438,-4.5476,-4.5476,-4.5513,-4.5549,-4.555,-4.5586,-4.5586,-4.5586,-4.5586,-4.5586,-4.5513,-4.5419,-4.5319,-4.5277,-4.5125,-4.4967,-4.487,-4.4738,-4.4551,-4.4515,-4.4362,-4.4226,-4.4085,-4.3992,-4.3897,-4.3851,-4.3701,-4.3634,-4.3634,-4.3532,-4.3411,-4.3359,-4.3142,-4.2975,-4.2936,-4.2804,-4.267,-4.2552,-4.2432,-4.2369,-4.2369,-4.2409,-4.2432,-4.2472,-4.2591,-4.2631,-4.2688,-4.2727,-4.2804,-4.2938,-4.2975,-4.3013,-4.3178,-4.3178,-4.3214,-4.3214,-4.3233,-4.3251,-4.3286,-4.3268,-4.3233,-4.244,-4.256,-4.2705,-4.2915,-4.3141,-4.3356,-4.3513,-4.3597,-4.3719,-4.3771,-4.3771,-4.3771,-4.3771,-4.3771,-4.3786,-4.3822,-4.3822,-4.3929,-4.3992,-4.4002,-4.4178,-4.4246,-4.4278,-4.4288,-4.4317,-4.4398,-4.4393,-4.4468,-4.4551,-4.4578,-4.4659,-4.4764,-4.4789,-4.4846,-4.4943,-4.4967,-4.5033,-4.508,-4.5125,-4.5084,-4.4991,-4.5038,-4.5148,-4.5275,-4.5297,-4.5319,-4.5381,-4.5419,-4.5419,-4.54,-4.5457,-4.5495,-4.5513,-4.5622,-4.5657,-4.5657,-4.5687,-4.5668,-4.5673,-4.564,-4.5603,-4.5586,-4.5603,-4.5586,-4.5586,-4.5532,-4.5419,-4.5338,-4.5277,-4.5148,-4.4938,-4.4889,-4.4764,-4.4551,-4.4487,-4.443,-4.4285,-4.4097,-4.4005,-4.3992,-4.3883,-4.3771,-4.3753,-4.3667,-4.3532,-4.3446,-4.3286,-4.316,-4.3195,-4.3123,-4.3087,-4.2995,-4.2824,-4.2591,-4.2591,-4.2552,-4.2631,-4.2727,-4.2842,-4.2918,-4.2994,-4.3068,-4.316,-4.3142,-4.3178,-4.316,-4.3196,-4.3214,-4.3251,-4.3376,-4.3376,-4.3411,-4.3463,-4.3463,-4.3411,-4.2832,-4.2911,-4.3021,-4.3214,-4.3428,-4.3649,-4.3767,-4.38,-4.3929,-4.3992,-4.3992,-4.4073,-4.4042,-4.3929,-4.3942,-4.3998,-4.4128,-4.4147,-4.4192,-4.4224,-4.4337,-4.4414,-4.4479,-4.4496,-4.4501,-4.4572,-4.4621,-4.464,-4.4738,-4.4815,-4.4889,-4.4967,-4.4967,-4.501,-4.508,-4.5148,-4.5173,-4.5213,-4.5279,-4.5281,-4.5239,-4.5277,-4.5298,-4.5361,-4.5361,-4.54,-4.5457,-4.5457,-4.5495,-4.5568,-4.5586,-4.562,-4.5618,-4.5687,-4.5684,-4.5684,-4.57,-4.568,-4.5684,-4.5668,-4.5635,-4.5657,-4.5657,-4.564,-4.5586,-4.5568,-4.5532,-4.5438,-4.5359,-4.5254,-4.5148,-4.5033,-4.4914,-4.4764,-4.4659,-4.457,-4.4411,-4.4306,-4.4237,-4.4177,-4.4023,-4.3929,-4.3915,-4.3818,-4.3686,-4.3618,-4.3497,-4.3376,-4.3378,-4.3287,-4.3214,-4.3194,-4.3069,-4.2975,-4.2956,-4.2938,-4.2994,-4.3031,-4.305,-4.3105,-4.3142,-4.3178,-4.3214,-4.3305,-4.334,-4.3322,-4.3375,-4.3375,-4.3428,-4.3497,-4.3584,-4.3618,-4.3652,-4.3686,-4.3637,-4.3213,-4.3262,-4.3378,-4.3566,-4.3734,-4.3878,-4.3974,-4.4055,-4.414,-4.4199,-4.4199,-4.4325,-4.4296,-4.4188,-4.417,-4.4233,-4.4333,-4.4367,-4.4421,-4.4444,-4.4485,-4.4547,-4.4665,-4.4648,-4.4701,-4.4758,-4.484,-4.4865,-4.4895,-4.501,-4.5103,-4.5148,-4.5151,-4.5192,-4.5194,-4.5298,-4.5319,-4.5339,-4.5381,-4.5419,-4.5438,-4.5477,-4.5458,-4.5419,-4.5438,-4.5495,-4.5531,-4.5568,-4.5603,-4.569,-4.5671,-4.5722,-4.5735,-4.5731,-4.5727,-4.5742,-4.5761,-4.5727,-4.5727,-4.5731,-4.57,-4.5706,-4.5671,-4.5673,-4.564,-4.5622,-4.5605,-4.5513,-4.5419,-4.5339,-4.5297,-4.517,-4.5038,-4.4943,-4.4821,-4.4712,-4.4605,-4.4496,-4.4411,-4.4344,-4.4207,-4.4067,-4.4023,-4.3897,-4.3818,-4.3771,-4.3686,-4.3603,-4.3587,-4.3465,-4.3391,-4.3348,-4.3355,-4.3304,-4.3251,-4.3178,-4.3214,-4.3269,-4.3251,-4.3251,-4.3268,-4.3322,-4.3322,-4.3463,-4.3499,-4.3534,-4.3584,-4.3566,-4.36,-4.3634,-4.3734,-4.3804,-4.3771,-4.3804,-4.3826,-4.3521,-4.3614,-4.3781,-4.3964,-4.4087,-4.4102,-4.4218,-4.4354,-4.4383,-4.4411,-4.4468,-4.4551,-4.4578,-4.4551,-4.4468,-4.4391,-4.4408,-4.4505,-4.4597,-4.4617,-4.4654,-4.4729,-4.4787,-4.4792,-4.4871,-4.4981,-4.5005,-4.5029,-4.5087,-4.5151,-4.5233,-4.5277,-4.5338,-4.5399,-4.538,-4.5381,-4.54,-4.54,-4.5457,-4.5495,-4.5513,-4.5622,-4.5622,-4.5513,-4.5549,-4.5603,-4.5693,-4.5687,-4.568,-4.568,-4.5715,-4.5731,-4.5781,-4.5805,-4.5827,-4.588,-4.5887,-4.588,-4.5819,-4.5791,-4.5765,-4.5715,-4.5696,-4.5703,-4.569,-4.5673,-4.5676,-4.5586,-4.5513,-4.5419,-4.5319,-4.5277,-4.5192,-4.5014,-4.4962,-4.487,-4.4796,-4.4685,-4.4551,-4.4496,-4.4411,-4.4277,-4.4067,-4.4005,-4.3929,-4.3851,-4.3804,-4.3808,-4.3781,-4.376,-4.3719,-4.3734,-4.3701,-4.3652,-4.3322,-4.3286,-4.3322,-4.3376,-4.3446,-4.3429,-4.3481,-4.3532,-4.3566,-4.36,-4.3671,-4.3738,-4.3771,-4.3804,-4.3786,-4.3818,-4.3851,-4.3869,-4.3915,-4.3883,-4.392,-4.3826,-4.3944,-4.4028,-4.4158,-4.4279,-4.4374,-4.4449,-4.4524,-4.4578,-4.4632,-4.4667,-4.4712,-4.4764,-4.4789,-4.4796,-4.4712,-4.4597,-4.4681,-4.4764,-4.4787,-4.4853,-4.4943,-4.4978,-4.5,-4.5017,-4.5058,-4.5132,-4.5213,-4.5301,-4.5321,-4.5321,-4.5361,-4.538,-4.54,-4.54,-4.5438,-4.5495,-4.5513,-4.5605,-4.562,-4.5635,-4.5668,-4.5668,-4.5635,-4.5651,-4.5668,-4.5684,-4.5735,-4.5781,-4.5757,-4.5805,-4.5833,-4.5874,-4.5848,-4.5861,-4.5905,-4.5893,-4.5893,-4.588,-4.5867,-4.5827,-4.5771,-4.5757,-4.5746,-4.5719,-4.5687,-4.5693,-4.5657,-4.5586,-4.5532,-4.5458,-4.538,-4.5317,-4.5233,-4.5125,-4.5057,-4.4962,-4.4846,-4.4745,-4.4685,-4.4551,-4.4411,-4.4296,-4.4207,-4.4195,-4.4135,-4.4055,-4.3998,-4.399,-4.392,-4.3865,-4.386,-4.3832,-4.3771,-4.3652,-4.3584,-4.3618,-4.3618,-4.3652,-4.3652,-4.3686,-4.3719,-4.3719,-4.3734,-4.3818,-4.3869,-4.3869,-4.3915,-4.3947,-4.3992,-4.4023,-4.4073,-4.4135,-4.4116,-4.4135,-4.4178,-4.4278,-4.4336,-4.4395,-4.455,-4.4617,-4.4685,-4.4719,-4.477,-4.4821,-4.487,-4.4895,-4.4919,-4.4986,-4.5033,-4.4967,-4.484,-4.489,-4.4914,-4.4957,-4.5006,-4.5074,-4.5147,-4.5167,-4.5161,-4.5204,-4.5282,-4.5361,-4.5381,-4.54,-4.5438,-4.5438,-4.5438,-4.5457,-4.5476,-4.5531,-4.5586,-4.564,-4.5673,-4.5703,-4.5715,-4.5712,-4.5746,-4.5761,-4.5757,-4.5757,-4.5727,-4.5791,-4.5833,-4.5874,-4.5899,-4.5956,-4.5953,-4.5953,-4.5964,-4.5944,-4.5964,-4.5953,-4.5972,-4.5941,-4.5917,-4.5887,-4.5827,-4.5819,-4.5727,-4.5719,-4.5722,-4.5709,-4.5676,-4.5622,-4.5531,-4.5477,-4.54,-4.5339,-4.5277,-4.5192,-4.5103,-4.5014,-4.4938,-4.4821,-4.4712,-4.4578,-4.4487,-4.443,-4.4401,-4.4354,-4.4248,-4.4207,-4.4172,-4.4123,-4.4023,-4.4048,-4.4005,-4.3979,-4.3947,-4.3947,-4.3818,-4.3786,-4.3786,-4.3818,-4.3851,-4.3851,-4.3883,-4.3897,-4.3897,-4.3947,-4.3979,-4.4055,-4.4116,-4.4188,-4.4237,-4.4285,-4.4314,-4.4354,-4.4391,-4.4524,-4.4597,-4.4621,-4.4681,-4.4767,-4.4795,-4.487,-4.4967,-4.4986,-4.5014,-4.508,-4.5103,-4.5084,-4.5125,-4.5129,-4.5125,-4.5099,-4.51,-4.5099,-4.5125,-4.5105,-4.5197,-4.5278,-4.5298,-4.5342,-4.5381,-4.54,-4.54,-4.5419,-4.5475,-4.5495,-4.5513,-4.5568,-4.5586,-4.5586,-4.5657,-4.5693,-4.5706,-4.57,-4.5731,-4.5795,-4.5805,-4.5847,-4.5893,-4.5912,-4.588,-4.5814,-4.588,-4.5917,-4.5991,-4.5991,-4.6044,-4.6066,-4.6085,-4.6095,-4.6084,-4.6095,-4.6085,-4.6076,-4.6037,-4.5986,-4.5972,-4.5944,-4.5874,-4.5814,-4.5791,-4.575,-4.5722,-4.569,-4.5657,-4.5603,-4.555,-4.5495,-4.54,-4.5339,-4.5298,-4.5256,-4.517,-4.5057,-4.4919,-4.484,-4.4764,-4.4659,-4.4605,-4.4578,-4.4524,-4.444,-4.4401,-4.44,-4.4352,-4.4285,-4.4314,-4.4255,-4.4226,-4.4255,-4.4304,-4.4073,-4.3915,-4.3883,-4.3915,-4.3979,-4.4011,-4.4055,-4.4085,-4.4147,-4.4177,-4.4237,-4.4296,-4.4325,-4.4364,-4.4411,-4.4487,-4.4496,-4.4551,-4.4599,-4.4787,-4.4802,-4.484,-4.4915,-4.4928,-4.4976,-4.5033,-4.508,-4.5061,-4.5125,-4.5213,-4.5235,-4.5258,-4.532,-4.532,-4.5298,-4.5311,-4.5287,-4.5295,-4.5265,-4.5304,-4.532,-4.5354,-4.536,-4.5419,-4.5457,-4.5476,-4.5475,-4.5531,-4.5568,-4.5568,-4.5586,-4.564,-4.5657,-4.5657,-4.5687,-4.5735,-4.5761,-4.5757,-4.58,-4.5854,-4.5912,-4.5937,-4.5968,-4.6014,-4.6016,-4.6014,-4.5994,-4.6005,-4.6056,-4.6076,-4.6075,-4.6102,-4.6146,-4.6174,-4.6181,-4.6174,-4.6146,-4.6111,-4.6083,-4.6036,-4.6026,-4.5983,-4.5929,-4.5861,-4.5827,-4.5805,-4.5761,-4.5715,-4.5668,-4.5673,-4.5659,-4.5587,-4.5477,-4.5419,-4.5379,-4.5356,-4.5273,-4.5167,-4.5038,-4.4967,-4.4919,-4.4889,-4.4796,-4.4719,-4.4712,-4.4659,-4.4624,-4.4589,-4.4561,-4.4524,-4.4486,-4.4496,-4.4458,-4.4487,-4.4487,-4.4383,-4.4237,-4.4147,-4.4085,-4.4147,-4.4195,-4.4237,-4.4296,-4.4354,-4.4411,-4.4468,-4.4505,-4.4532,-4.456,-4.4587,-4.4659,-4.4712,-4.4731,-4.4742,-4.4957,-4.4984,-4.5005,-4.5065,-4.5094,-4.5151,-4.5192,-4.5213,-4.5216,-4.5258,-4.5339,-4.532,-4.5361,-4.54,-4.54,-4.54,-4.5417,-4.5416,-4.54,-4.538,-4.538,-4.5419,-4.5456,-4.5458,-4.5495,-4.5513,-4.5531,-4.5549,-4.5586,-4.5622,-4.562,-4.564,-4.569,-4.5687,-4.5687,-4.5731,-4.5757,-4.58,-4.5847,-4.5906,-4.5949,-4.6003,-4.6044,-4.6046,-4.6066,-4.6113,-4.6122,-4.6093,-4.6093,-4.6122,-4.6146,-4.613,-4.6144,-4.6177,-4.6203,-4.6196,-4.6203,-4.6196,-4.6164,-4.613,-4.6107,-4.6084,-4.6056,-4.5997,-4.5953,-4.5893,-4.5874,-4.58,-4.5757,-4.5731,-4.5703,-4.569,-4.5659,-4.559,-4.5495,-4.5438,-4.5398,-4.5319,-4.5256,-4.5192,-4.5148,-4.5103,-4.5014,-4.4967,-4.4895,-4.4895,-4.4846,-4.4796,-4.4789,-4.4764,-4.4726,-4.4707,-4.47,-4.4667,-4.4659,-4.4659,-4.4659,-4.4551,-4.4487,-4.4411,-4.4383,-4.4411,-4.444,-4.4496,-4.4551,-4.4587,-4.464,-4.4693,-4.4719,-4.477,-4.4796,-4.4846,-4.4895,-4.4914,-4.4933,-4.5125,-4.5125,-4.5125,-4.5154,-4.5201,-4.5279,-4.5319,-4.5379,-4.538,-4.54,-4.54,-4.54,-4.5419,-4.5419,-4.5457,-4.5419,-4.5438,-4.5477,-4.5495,-4.5473,-4.5453,-4.5475,-4.5515,-4.5532,-4.5586,-4.5603,-4.5622,-4.5622,-4.562,-4.5673,-4.569,-4.569,-4.57,-4.5696,-4.5731,-4.5771,-4.5794,-4.5841,-4.5925,-4.5995,-4.6007,-4.6075,-4.6095,-4.6102,-4.6107,-4.6142,-4.6176,-4.619,-4.6196,-4.6209,-4.6189,-4.6201,-4.6206,-4.6216,-4.6216,-4.6231,-4.6216,-4.6216,-4.6206,-4.6203,-4.6183,-4.6169,-4.6122,-4.6076,-4.6017,-4.5994,-4.5937,-4.5835,-4.5814,-4.5791,-4.5731,-4.5703,-4.5693,-4.568,-4.5569,-4.5457,-4.5419,-4.54,-4.5361,-4.5319,-4.5297,-4.5275,-4.517,-4.5125,-4.5103,-4.5103,-4.5038,-4.4991,-4.4967,-4.4943,-4.4924,-4.49,-4.4876,-4.487,-4.4865,-4.4865,-4.4865,-4.4796,-4.4738,-4.4685,-4.4613,-4.4605,-4.4651,-4.4704,-4.4764,-4.477,-4.4821,-4.487,-4.4919,-4.4967,-4.4991,-4.5038,-4.508,-4.5103,-4.5106,-4.5338,-4.5314,-4.5319,-4.5341,-4.5361,-4.5361,-4.54,-4.54,-4.5419,-4.5438,-4.5457,-4.5457,-4.5495,-4.5531,-4.555,-4.555,-4.555,-4.555,-4.5587,-4.5566,-4.5547,-4.5566,-4.5587,-4.5586,-4.564,-4.5673,-4.5673,-4.5673,-4.5668,-4.5703,-4.57,-4.5703,-4.5742,-4.5771,-4.5786,-4.5854,-4.5905,-4.5941,-4.5968,-4.6025,-4.6074,-4.6138,-4.6181,-4.6183,-4.6177,-4.6189,-4.6195,-4.6245,-4.6245,-4.6201,-4.6245,-4.6294,-4.6279,-4.6269,-4.6277,-4.6273,-4.6253,-4.6273,-4.6273,-4.626,-4.624,-4.6203,-4.6189,-4.6146,-4.6063,-4.6027,-4.5986,-4.5941,-4.5912,-4.5847,-4.5805,-4.5781,-4.5738,-4.5693,-4.5603,-4.5512,-4.5475,-4.5419,-4.54,-4.5361,-4.538,-4.5361,-4.532,-4.5258,-4.5254,-4.5213,-4.517,-4.5103,-4.5106,-4.5065,-4.5065,-4.5061,-4.5038,-4.5057,-4.5057,-4.5057,-4.5057,-4.5014,-4.4967,-4.4919,-4.487,-4.4796,-4.4859,-4.4903,-4.4938,-4.4986,-4.4991,-4.5038,-4.5103,-4.517,-4.517,-4.5173,-4.5275,-4.5317,-4.5319,-4.5419,-4.5417,-4.5419,-4.5419,-4.5399,-4.5438,-4.5438,-4.5438,-4.5476,-4.5495,-4.555,-4.5531,-4.5568,-4.5586,-4.5586,-4.5586,-4.5586,-4.5586,-4.562,-4.5637,-4.564,-4.5642,-4.5642,-4.562,-4.5654,-4.569,-4.5687,-4.5684,-4.57,-4.5731,-4.5761,-4.5757,-4.5794,-4.5835,-4.588,-4.5917,-4.5975,-4.6037,-4.6066,-4.6104,-4.6142,-4.619,-4.6203,-4.6215,-4.6226,-4.6236,-4.624,-4.6273,-4.6277,-4.6249,-4.6284,-4.6292,-4.63,-4.6287,-4.6293,-4.629,-4.629,-4.629,-4.63,-4.6296,-4.6288,-4.625,-4.6234,-4.619,-4.6142,-4.6102,-4.6075,-4.5997,-4.5972,-4.5912,-4.586,-4.5819,-4.5765,-4.5706,-4.5618,-4.5584,-4.5531,-4.5532,-4.5476,-4.5457,-4.5438,-4.54,-4.5419,-4.5361,-4.536,-4.5339,-4.53,-4.5258,-4.5218,-4.5237,-4.5216,-4.5216,-4.5216,-4.5216,-4.5216,-4.5216,-4.5216,-4.5194,-4.5173,-4.5151,-4.5084,-4.5014,-4.5038,-4.508,-4.5125,-4.5189,-4.5192,-4.5194,-4.5258,-4.53,-4.5279,-4.53,-4.538,-4.5458,-4.5458,-4.54,-4.54,-4.54,-4.5418,-4.5433,-4.5493,-4.5513,-4.5513,-4.5568,-4.5605,-4.5586,-4.5586,-4.5586,-4.5586,-4.5603,-4.5622,-4.5605,-4.5624,-4.5635,-4.5687,-4.5709,-4.5697,-4.5695,-4.5684,-4.5696,-4.5696,-4.5715,-4.5731,-4.5742,-4.578,-4.5814,-4.5841,-4.5893,-4.5929,-4.5983,-4.6016,-4.6047,-4.6104,-4.6158,-4.6189,-4.6216,-4.622,-4.6216,-4.6236,-4.6264,-4.6288,-4.628,-4.629,-4.6293,-4.6303,-4.6303,-4.6306,-4.6297,-4.63,-4.6303,-4.6303,-4.6303,-4.63,-4.629,-4.6287,-4.63,-4.6277,-4.624,-4.622,-4.6216,-4.6176,-4.6138,-4.6066,-4.6007,-4.5953,-4.5906,-4.5847,-4.5776,-4.5738,-4.5706,-4.5673,-4.562,-4.5603,-4.5568,-4.5513,-4.5513,-4.5475,-4.5438,-4.5419,-4.54,-4.54,-4.538,-4.5341,-4.5321,-4.5321,-4.5321,-4.5341,-4.5361,-4.5381,-4.5381,-4.5381,-4.5361,-4.5361,-4.5341,-4.5301,-4.5239,-4.5197,-4.5199,-4.522,-4.526,-4.53,-4.5339,-4.538,-4.54,-4.5419,-4.5419,-4.5419,-4.5457,-4.5494,-4.5512,-4.5568,-4.5568,-4.5568,-4.5549,-4.5566,-4.5566,-4.5566,-4.5586,-4.5586,-4.5586,-4.5586,-4.5586,-4.5603,-4.5603,-4.5657,-4.5678,-4.5661,-4.5678,-4.5671,-4.5699,-4.5754,-4.578,-4.5758,-4.5737,-4.5736,-4.575,-4.5761,-4.5794,-4.5835,-4.588,-4.5925,-4.5949,-4.5983,-4.6016,-4.6085,-4.6084,-4.6119,-4.6181,-4.6196,-4.6222,-4.627,-4.6264,-4.6273,-4.6273,-4.6287,-4.629,-4.6303,-4.6303,-4.629,-4.6293,-4.629,-4.6287,-4.6295,-4.6305,-4.6289,-4.6289,-4.6289,-4.6289,-4.6287,-4.6301,-4.6295,-4.6284,-4.6277,-4.6269,-4.6275,-4.6242,-4.6196,-4.6138,-4.6066,-4.5975,-4.5912,-4.5827,-4.5805,-4.5765,-4.5735,-4.57,-4.5668,-4.5637,-4.5603,-4.5586,-4.5568,-4.5568,-4.555,-4.5495,-4.5495,-4.5476,-4.5457,-4.5419,-4.5419,-4.5419,-4.5457,-4.5476,-4.5476,-4.5475,-4.5475,-4.5475,-4.5494,-4.5475,-4.5475,-4.5475,-4.54,-4.5381,-4.5381,-4.5362,-4.5362,-4.54,-4.5477,-4.5495,-4.5513,-4.5512,-4.5547,-4.5565,-4.5565,-4.5599,-4.5599,-4.5586,-4.5586,-4.5586,-4.5586,-4.5586,-4.5586,-4.5586,-4.5586,-4.5586,-4.5603,-4.564,-4.562,-4.5657,-4.5654,-4.5671,-4.569,-4.5706,-4.575,-4.5766,-4.5769,-4.5805,-4.5849,-4.5866,-4.5835,-4.5844,-4.5859,-4.5873,-4.5905,-4.5949,-4.5983,-4.6005,-4.6046,-4.6056,-4.6084,-4.6149,-4.6162,-4.6164,-4.6203,-4.6248,-4.6259,-4.6299,-4.6292,-4.63,-4.63,-4.629,-4.6293,-4.6301,-4.6287,-4.6295,-4.6289,-4.6289,-4.6289,-4.6289,-4.6289,-4.6289,-4.6289,-4.6289,-4.6289,-4.6289,-4.6289,-4.6306,-4.6301,-4.629,-4.63,-4.6292,-4.627,-4.6222,-4.6196,-4.6138,-4.6056,-4.5941,-4.588,-4.5841,-4.5805,-4.5757,-4.5727,-4.57,-4.5671,-4.564,-4.564,-4.5622,-4.5603,-4.5586,-4.5568,-4.5568,-4.555,-4.5531,-4.5513,-4.5513,-4.5513,-4.5531,-4.5568,-4.5549,-4.5549,-4.5565,-4.5565,-4.5582,-4.5582,-4.5599,-4.5599,-4.5582,-4.5565,-4.5545,-4.5509,-4.5491,-4.5528,-4.5601,-4.5601,-4.5601,-4.5635,-4.5651,-4.5684,-4.5665,-4.5665,-4.5665,-4.5586,-4.5586,-4.5586,-4.5586,-4.5586,-4.5586,-4.5586,-4.5586,-4.5622,-4.564,-4.5673,-4.569,-4.5687,-4.57,-4.5696,-4.5731,-4.5761,-4.5783,-4.5828,-4.5832,-4.5887,-4.5932,-4.5944,-4.5966,-4.5959,-4.5925,-4.5964,-4.6014,-4.6035,-4.6066,-4.6075,-4.6104,-4.6099,-4.6123,-4.6183,-4.6222,-4.6215,-4.6226,-4.6275,-4.6303,-4.6288,-4.63,-4.6303,-4.6293,-4.6295,-4.6301,-4.6307,-4.6303,-4.6289,-4.6289,-4.6289,-4.6289,-4.6289,-4.6289,-4.6289,-4.6289,-4.6289,-4.6289,-4.6289,-4.6289,-4.6289,-4.6289,-4.6301,-4.6306,-4.63,-4.6288,-4.625,-4.6228,-4.6176,-4.6138,-4.6017,-4.5944,-4.5886,-4.5854,-4.5827,-4.5786,-4.5761,-4.5738,-4.5722,-4.569,-4.5654,-4.5637,-4.5637,-4.562,-4.564,-4.5622,-4.5603,-4.5603,-4.5603,-4.562,-4.562,-4.5618,-4.5618,-4.5618,-4.5616,-4.5613,-4.5648,-4.5684,-4.57,-4.5715,-4.5731,-4.5731,-4.5696,-4.5642,-4.5626,-4.568,-4.5715,-4.5715,-4.5731,-4.5731,-4.5761,-4.5771,-4.5757,-4.5727,-4.5742,-4.5586,-4.5586,-4.5586,-4.5586,-4.5586,-4.5586,-4.5603,-4.5622,-4.5657,-4.5673,-4.5709,-4.5684,-4.5684,-4.57,-4.5776,-4.5805,-4.5852,-4.5886,-4.5897,-4.5959,-4.5972,-4.5995,-4.605,-4.6066,-4.6068,-4.6072,-4.6072,-4.6066,-4.6084,-4.6083,-4.6127,-4.6169,-4.6164,-4.6183,-4.6201,-4.6231,-4.6275,-4.626,-4.6288,-4.63,-4.6287,-4.629,-4.6295,-4.6289,-4.6289,-4.6289,-4.6289,-4.6289,-4.6289,-4.6289,-4.6289,-4.6289,-4.6289,-4.6289,-4.6289,-4.6289,-4.6289,-4.6289,-4.6289,-4.6289,-4.6289,-4.6289,-4.6289,-4.6289,-4.629,-4.63,-4.6288,-4.6255,-4.6222,-4.6154,-4.6085,-4.6026,-4.5975,-4.596,-4.5925,-4.5893,-4.5867,-4.5814,-4.5776,-4.5731,-4.57,-4.5687,-4.5687,-4.5651,-4.5651,-4.5651,-4.5651,-4.5668,-4.5687,-4.5668,-4.5684,-4.5684,-4.5665,-4.5665,-4.568,-4.568,-4.5696,-4.5761,-4.5776,-4.5805,-4.5819,-4.5866,-4.5847,-4.578,-4.5752,-4.5776,-4.581,-4.5819,-4.5833,-4.5833,-4.586,-4.5867,-4.5854,-4.5835,-4.5835,-4.4932,-4.4953,-4.5393,-4.5586,-4.5622,-4.564,-4.5657,-4.5657,-4.5671,-4.5722,-4.5754,-4.5746,-4.5776,-4.581,-4.5847,-4.5874,-4.5932,-4.5986,-4.6027,-4.6065,-4.6047,-4.6065,-4.6114,-4.6146,-4.617,-4.615,-4.6144,-4.6142,-4.615,-4.6144,-4.6157,-4.6189,-4.622,-4.625,-4.6255,-4.6284,-4.6292,-4.6292,-4.6296,-4.6303,-4.6295,-4.6289,-4.6289,-4.6289,-4.6289,-4.6289,-4.6289,-4.6289,-4.6289,-4.6289,-4.6289,-4.6289,-4.6289,-4.6289,-4.6289,-4.6289,-4.6289,-4.6289,-4.6289,-4.6289,-4.6289,-4.6289,-4.6289,-4.6289,-4.6293,-4.63,-4.63,-4.6288,-4.624,-4.6176,-4.6158,-4.6093,-4.6047,-4.6046,-4.5994,-4.5972,-4.5949,-4.5893,-4.5854,-4.58,-4.5761,-4.5731,-4.568,-4.568,-4.568,-4.568,-4.5696,-4.5731,-4.5765,-4.5746,-4.5761,-4.5771,-4.5786,-4.5766,-4.5786,-4.58,-4.58,-4.5847,-4.588,-4.5887,-4.5912,-4.5937,-4.5937,-4.5886,-4.588,-4.5874,-4.5893,-4.5899,-4.5925,-4.5937,-4.5949,-4.5953,-4.5953,-4.5953,-4.5964,-4.4145,-4.4359,-4.5047,-4.543,-4.5601,-4.5673,-4.569,-4.5706,-4.5715,-4.5746,-4.5776,-4.5833,-4.5874,-4.5912,-4.5949,-4.5972,-4.6042,-4.6084,-4.6091,-4.6107,-4.6122,-4.6122,-4.6142,-4.6164,-4.6197,-4.6236,-4.6206,-4.6206,-4.6189,-4.6201,-4.6206,-4.6231,-4.6279,-4.6308,-4.6288,-4.63,-4.6303,-4.63,-4.63,-4.6303,-4.6295,-4.6289,-4.6289,-4.6289,-4.6289,-4.6289,-4.6289,-4.6289,-4.6289,-4.6289,-4.6289,-4.6289,-4.6289,-4.6289,-4.6289,-4.6289,-4.6289,-4.6289,-4.6289,-4.6289,-4.6289,-4.6289,-4.6289,-4.6289,-4.63,-4.6293,-4.6306,-4.6296,-4.626,-4.6215,-4.619,-4.613,-4.6127,-4.6093,-4.6066,-4.6017,-4.6016,-4.5983,-4.5972,-4.5893,-4.5814,-4.5786,-4.5766,-4.5771,-4.5786,-4.5766,-4.578,-4.58,-4.5833,-4.5819,-4.5833,-4.5887,-4.5912,-4.5905,-4.5905,-4.5905,-4.5917,-4.5949,-4.598,-4.5991,-4.5994,-4.6005,-4.5997,-4.5977,-4.5977,-4.5956,-4.5964,-4.5983,-4.6005,-4.6016,-4.6026,-4.6017,-4.6027,-4.6037,-4.6037,-4.3645,-4.4282,-4.4393,-4.4906,-4.5607,-4.5632,-4.5687,-4.5715,-4.5757,-4.58,-4.5833,-4.5848,-4.5929,-4.5986,-4.6066,-4.6084,-4.6093,-4.6099,-4.6137,-4.6157,-4.6181,-4.6201,-4.6189,-4.6206,-4.6234,-4.6273,-4.6264,-4.625,-4.6231,-4.6255,-4.6275,-4.6279,-4.6273,-4.6296,-4.6296,-4.6287,-4.6295,-4.6303,-4.6303,-4.6295,-4.6289,-4.6289,-4.6289,-4.6289,-4.6289,-4.6289,-4.6289,-4.6289,-4.6289,-4.6289,-4.6289,-4.6289,-4.6289,-4.6289,-4.6289,-4.6289,-4.6289,-4.6289,-4.6289,-4.6289,-4.6289,-4.6289,-4.6289,-4.6289,-4.6287,-4.6303,-4.6297,-4.63,-4.6277,-4.6245,-4.6226,-4.6189,-4.619,-4.615,-4.6127,-4.6091,-4.6084,-4.6085,-4.6047,-4.6037,-4.5964,-4.591,-4.5886,-4.5886,-4.5893,-4.5893,-4.5861,-4.5893,-4.5893,-4.5912,-4.5925,-4.5972,-4.5983,-4.5975,-4.5977,-4.5997,-4.6007,-4.6037,-4.6066,-4.6076,-4.6075,-4.6084,-4.6083,-4.6063,-4.6063,-4.6054,-4.6056,-4.6075,-4.6084,-4.6093,-4.6083,-4.6091,-4.6099,-4.6099,-4.6099,-4.2194,-4.2967,-4.3445,-4.4152,-4.4913,-4.5005,-4.5326,-4.5699,-4.5833,-4.5874,-4.5925,-4.5941,-4.6007,-4.6065,-4.6127,-4.6158,-4.6158,-4.6157,-4.6176,-4.6216,-4.6234,-4.6261,-4.6265,-4.6249,-4.628,-4.6284,-4.6306,-4.629,-4.6284,-4.6277,-4.6296,-4.6306,-4.629,-4.629,-4.6306,-4.629,-4.6297,-4.6301,-4.6305,-4.6307,-4.6289,-4.6289,-4.6289,-4.6289,-4.6289,-4.6289,-4.6289,-4.6289,-4.6289,-4.6289,-4.6289,-4.6289,-4.6289,-4.6289,-4.6289,-4.6289,-4.6289,-4.6289,-4.6289,-4.6289,-4.6289,-4.6289,-4.6289,-4.6289,-4.6289,-4.6289,-4.6289,-4.6305,-4.629,-4.6277,-4.6249,-4.6255,-4.6245,-4.6209,-4.6177,-4.6164,-4.615,-4.6154,-4.6138,-4.613,-4.6102,-4.6056,-4.5978,-4.5977,-4.5986,-4.5944,-4.5964,-4.5994,-4.5986,-4.6026,-4.6037,-4.6047,-4.6056,-4.6066,-4.6056,-4.6054,-4.6102,-4.613,-4.6138,-4.6146,-4.6142,-4.6157,-4.6137,-4.6144,-4.6151,-4.6144,-4.615,-4.6142,-4.6142,-4.615,-4.6137,-4.6164,-4.6164,-4.6157,-4.6157,-4.0973,-4.1667,-4.2472,-4.3312,-4.4124,-4.4177,-4.4703,-4.546,-4.557,-4.5755,-4.5975,-4.6037,-4.6074,-4.6142,-4.6164,-4.6203,-4.624,-4.6209,-4.6221,-4.6249,-4.6269,-4.6294,-4.6288,-4.6303,-4.6295,-4.6293,-4.6293,-4.6295,-4.6295,-4.629,-4.6306,-4.6297,-4.6303,-4.6301,-4.6295,-4.6297,-4.6289,-4.6289,-4.6289,-4.6289,-4.6289,-4.6289,-4.6289,-4.6289,-4.6289,-4.6289,-4.6289,-4.6289,-4.6289,-4.6289,-4.6289,-4.6289,-4.6289,-4.6289,-4.6289,-4.6289,-4.6289,-4.6289,-4.6289,-4.6289,-4.6289,-4.6289,-4.6289,-4.6289,-4.6289,-4.6289,-4.6289,-4.6289,-4.6305,-4.6293,-4.63,-4.6288,-4.6284,-4.626,-4.6231,-4.622,-4.6209,-4.6196,-4.619,-4.6183,-4.6157,-4.6137,-4.6096,-4.6083,-4.6065,-4.6018,-4.6037,-4.6085,-4.6104,-4.6102,-4.6111,-4.6111,-4.6119,-4.6127,-4.6123,-4.613,-4.6164,-4.6183,-4.6209,-4.6196,-4.6183,-4.6189,-4.6189,-4.6201,-4.6211,-4.6231,-4.624,-4.6215,-4.6209,-4.6189,-4.6189,-4.622,-4.6226,-4.6211,-4.6216,-4.0675,-4.0839,-4.1654,-4.2505,-4.3366,-4.337,-4.3905,-4.4761,-4.4858,-4.5375,-4.5998,-4.613,-4.6157,-4.6183,-4.6215,-4.624,-4.6279,-4.6289,-4.6292,-4.628,-4.63,-4.6296,-4.6306,-4.63,-4.6289,-4.6287,-4.6303,-4.6297,-4.6297,-4.6295,-4.6287,-4.6306,-4.6306,-4.6289,-4.6289,-4.6289,-4.6289,-4.6289,-4.6289,-4.6289,-4.6289,-4.6289,-4.6289,-4.6289,-4.6289,-4.6289,-4.6289,-4.6289,-4.6289,-4.6289,-4.6289,-4.6289,-4.6289,-4.6289,-4.6289,-4.6289,-4.6289,-4.6289,-4.6289,-4.6289,-4.6289,-4.6289,-4.6289,-4.6289,-4.6289,-4.6289,-4.6289,-4.6289,-4.6289,-4.6303,-4.6293,-4.63,-4.6296,-4.6292,-4.6269,-4.6245,-4.6236,-4.6231,-4.6226,-4.6206,-4.6201,-4.6201,-4.6189,-4.617,-4.613,-4.6088,-4.6107,-4.6135,-4.6162,-4.6169,-4.6183,-4.619,-4.619,-4.6183,-4.6195,-4.6201,-4.6215,-4.6215,-4.622,-4.6226,-4.6206,-4.6211,-4.6236,-4.624,-4.6264,-4.6288,-4.6292,-4.6249,-4.6221,-4.6211,-4.6211,-4.624,-4.6269,-4.6257,-4.6277,-4.0679,-4.0756,-4.1106,-4.1725,-4.2554,-4.2554,-4.3089,-4.3984,-4.4569,-4.5317,-4.6091,-4.619,-4.6215,-4.6245,-4.627,-4.6279,-4.6288,-4.6292,-4.6287,-4.6295,-4.6295,-4.6303,-4.6293,-4.6289,-4.6289,-4.6289,-4.6289,-4.6289,-4.6287,-4.6289,-4.6289,-4.6307,-4.6289,-4.6289,-4.6289,-4.6289,-4.6289,-4.6289,-4.6289,-4.6289,-4.6289,-4.6289,-4.6289,-4.6289,-4.6289,-4.6289,-4.6289,-4.6289,-4.6289,-4.6289,-4.6289,-4.6289,-4.6289,-4.6289,-4.6289,-4.6289,-4.6289,-4.6289,-4.6289,-4.6289,-4.6289,-4.6289,-4.6289,-4.6289,-4.6289,-4.6289,-4.6289,-4.6289,-4.6289,-4.6289,-4.6306,-4.6293,-4.63,-4.63,-4.628,-4.628,-4.6273,-4.6249,-4.6249,-4.6249,-4.6269,-4.6269,-4.626,-4.625,-4.6201,-4.6164,-4.6189,-4.6209,-4.6209,-4.6209,-4.6215,-4.622,-4.622,-4.6245,-4.6236,-4.6255,-4.626,-4.6264,-4.6249,-4.623,-4.623,-4.6249,-4.6273,-4.6296,-4.63,-4.6306,-4.629,-4.627,-4.6264,-4.6253,-4.6253,-4.6277,-4.6284,-4.629,-4.6293,-4.0713,-4.0739,-4.0803,-4.1164,-4.1704,-4.1723,-4.2267,-4.314,-4.3741,-4.4783,-4.5832,-4.6064,-4.6236,-4.6284,-4.6292,-4.6292,-4.63,-4.6303,-4.63,-4.6303,-4.6303,-4.6295,-4.6301,-4.6289,-4.6289,-4.6289,-4.6289,-4.6289,-4.6289,-4.6289,-4.6289,-4.6289,-4.6289,-4.6289,-4.6289,-4.6289,-4.6289,-4.6289,-4.6289,-4.6289,-4.6289,-4.6289,-4.6289,-4.6289,-4.6289,-4.6289,-4.6289,-4.6289,-4.6289,-4.6289,-4.6289,-4.6289,-4.6289,-4.6289,-4.6289,-4.6289,-4.6289,-4.6289,-4.6289,-4.6289,-4.6289,-4.6289,-4.6289,-4.6289,-4.6289,-4.6289,-4.6289,-4.6289,-4.6289,-4.6289,-4.6289,-4.6305,-4.63,-4.6301,-4.63,-4.628,-4.6293,-4.629,-4.629,-4.629,-4.629,-4.629,-4.6287,-4.628,-4.6269,-4.6221,-4.6236,-4.624,-4.624,-4.624,-4.626,-4.626,-4.626,-4.6284,-4.6303,-4.6292,-4.628,-4.6287,-4.627,-4.629,-4.629,-4.629,-4.6303,-4.63,-4.6306,-4.6297,-4.63,-4.6278,-4.6295,-4.629,-4.629,-4.6306,-4.629,-4.6295,-4.6301,-4.0734,-4.0803,-4.0881,-4.0927,-4.1019,-4.0945,-4.1496,-4.2315,-4.2617,-4.3629,-4.5163,-4.5909,-4.6284,-4.63,-4.629,-4.6293,-4.629,-4.6287,-4.63,-4.6288,-4.6289,-4.6289,-4.6289,-4.6289,-4.6289,-4.6289,-4.6289,-4.6289,-4.6289,-4.6289,-4.6289,-4.6289,-4.6289,-4.6289,-4.6289,-4.6289,-4.6289,-4.6289,-4.6289,-4.6289,-4.6289,-4.6289,-4.6289,-4.6289,-4.6289,-4.6289,-4.6289,-4.6289,-4.6289,-4.6289,-4.6289,-4.6289,-4.6289,-4.6289,-4.6289,-4.6289,-4.6289,-4.6289,-4.6289,-4.6289,-4.6289,-4.6289,-4.6289,-4.6289,-4.6289,-4.6289,-4.6289,-4.6289,-4.6289,-4.6289,-4.6289,-4.6289,-4.6289,-4.6289,-4.6289,-4.6287,-4.6303,-4.6301,-4.6301,-4.6301,-4.6301,-4.6301,-4.6301,-4.63,-4.6293,-4.6287,-4.6284,-4.628,-4.628,-4.628,-4.628,-4.628,-4.628,-4.6277,-4.63,-4.6293,-4.6297,-4.6289,-4.6301,-4.6301,-4.6301,-4.6301,-4.6297,-4.6289,-4.6293,-4.6303,-4.6303,-4.6301,-4.6301,-4.6301,-4.6295,-4.6293,-4.6295,-4.6289,-4.6289,-4.0815,-4.0881,-4.0904,-4.0926,-4.098,-4.0974,-4.1182,-4.163,-4.2674,-4.389,-4.4992,-4.5917,-4.6296,-4.6303,-4.629,-4.6289,-4.6289,-4.6306,-4.6289,-4.6289,-4.6289,-4.6289,-4.6289,-4.6289,-4.6289,-4.6289,-4.6289,-4.6289,-4.6289,-4.6289,-4.6289,-4.6289,-4.6289,-4.6289,-4.6289,-4.6289,-4.6289,-4.6289,-4.6289,-4.6289,-4.6289,-4.6289,-4.6289,-4.6289,-4.6289,-4.6289,-4.6289,-4.6289,-4.6289,-4.6289,-4.6289,-4.6289,-4.6289,-4.6289,-4.6289,-4.6289,-4.6289,-4.6289,-4.6289,-4.6289,-4.6289,-4.6289,-4.6289,-4.6289,-4.6289,-4.6289,-4.6289,-4.6289,-4.6289,-4.6289,-4.6289,-4.6289,-4.6289,-4.6289,-4.6289,-4.6289,-4.6288,-4.6288,-4.6288,-4.6288,-4.6288,-4.6306,-4.6305,-4.6306,-4.6303,-4.63,-4.6297,-4.6295,-4.6276,-4.6295,-4.6295,-4.6295,-4.6295,-4.629,-4.629,-4.63,-4.6289,-4.6289,-4.6289,-4.6288,-4.6288,-4.6289,-4.6289,-4.6289,-4.6289,-4.6289,-4.6289,-4.6289,-4.6289,-4.6287,-4.6289,-4.6289,-4.6289,-4.6289,-4.6289,-4.0858,-4.0895,-4.0927,-4.0976,-4.0989,-4.0974,-4.1028,-4.1295,-4.2607,-4.3732,-4.4579,-4.5441,-4.6046,-4.6206,-4.6295,-4.6301,-4.6289,-4.6289,-4.6289,-4.6289,-4.6289,-4.6289,-4.6289,-4.6289,-4.6289,-4.6289,-4.6289,-4.6289,-4.6289,-4.6289,-4.6289,-4.6289,-4.6289,-4.6289,-4.6289,-4.6289,-4.6289,-4.6289,-4.6289,-4.6289,-4.6289,-4.6289,-4.6289,-4.6289,-4.6289,-4.6289,-4.6289,-4.6289,-4.6289,-4.6289,-4.6289,-4.6289,-4.6289,-4.6289,-4.6289,-4.6289,-4.6289,-4.6289,-4.6289,-4.6289,-4.6289,-4.6289,-4.6289,-4.6289,-4.6289,-4.6289,-4.6289,-4.6289,-4.6289,-4.6289,-4.6289,-4.6289,-4.6289,-4.6289,-4.6289,-4.6289,-4.6289,-4.6289,-4.6306,-4.6307,-4.6288,-4.6289,-4.6289,-4.6289,-4.6289,-4.6288,-4.6306,-4.6306,-4.6289,-4.6289,-4.6289,-4.6289,-4.6289,-4.6289,-4.6289,-4.6303,-4.6289,-4.6289,-4.6289,-4.6289,-4.6289,-4.6289,-4.6289,-4.6289,-4.6289,-4.6289,-4.6289,-4.6289,-4.6289,-4.6289,-4.6289,-4.6289,-4.6289,-4.6289,-4.6289,-4.0887,-4.0916,-4.0982,-4.1,-4.1013,-4.0998,-4.1042,-4.1168,-4.2057,-4.2932,-4.3781,-4.4745,-4.5545,-4.6195,-4.6306,-4.6289,-4.6289,-4.6289,-4.6289,-4.6289,-4.6289,-4.6289,-4.6289,-4.6289,-4.6289,-4.6289,-4.6289,-4.6289,-4.6289,-4.6289,-4.6289,-4.6289,-4.6289,-4.6289,-4.6289,-4.6289,-4.6289,-4.6289,-4.6289,-4.6289,-4.6289,-4.6289,-4.6289,-4.6289,-4.6289,-4.6289,-4.6289,-4.6289,-4.6289,-4.6289,-4.6289,-4.6289,-4.6289,-4.6289,-4.6289,-4.6289,-4.6289,-4.6289,-4.6289,-4.6289,-4.6289,-4.6289,-4.6289,-4.6289,-4.6289,-4.6289,-4.6289,-4.6289,-4.6289,-4.6289,-4.6289,-4.6289,-4.6289,-4.6289,-4.6289,-4.6289,-4.6288,-4.6305,-4.6295,-4.6293,-4.6297,-4.6301,-4.6303,-4.6305,-4.6286,-4.6288,-4.6289,-4.6289,-4.6289,-4.6289,-4.6289,-4.6289,-4.6289,-4.6289,-4.6289,-4.6289,-4.6289,-4.6289,-4.6289,-4.6289,-4.6289,-4.6289,-4.6289,-4.6289,-4.6289,-4.6289,-4.6289,-4.6289,-4.6289,-4.6289,-4.6289,-4.6289,-4.6289,-4.6289,-4.6289,-4.0918,-4.0984,-4.0976,-4.1033,-4.1058,-4.1081,-4.1081,-4.1222,-4.2025,-4.289,-4.3754,-4.4604,-4.543,-4.6248,-4.6289,-4.6289,-4.6289,-4.6289,-4.6289,-4.6289,-4.6289,-4.6289,-4.6289,-4.6289,-4.6289,-4.6289,-4.6289,-4.6289,-4.6289,-4.6289,-4.6289,-4.6289,-4.6289,-4.6289,-4.6289,-4.6289,-4.6289,-4.6289,-4.6289,-4.6289,-4.6289,-4.6289,-4.6289,-4.6289,-4.6289,-4.6289,-4.6289,-4.6289,-4.6289,-4.6289,-4.6289,-4.6289,-4.6289,-4.6289,-4.6289,-4.6289,-4.6289,-4.6289,-4.6295,-4.6301,-4.6305,-4.6305,-4.6305,-4.6288,-4.6289,-4.6289,-4.6287,-4.6305,-4.6301,-4.6301,-4.6305,-4.6305,-4.6305,-4.6305,-4.6305,-4.6305,-4.6301,-4.6297,-4.6303,-4.628,-4.6287,-4.6267,-4.627,-4.629,-4.6273,-4.6297,-4.6301,-4.6306,-4.6289,-4.6289,-4.6289,-4.6289,-4.6289,-4.6289,-4.6289,-4.6289,-4.6289,-4.6289,-4.6289,-4.6289,-4.6289,-4.6289,-4.6289,-4.6289,-4.6289,-4.6289,-4.6289,-4.6289,-4.6289,-4.6289,-4.6289,-4.6289,-4.6289,-4.6289,-4.6289,-4.0948,-4.1007,-4.1026,-4.1061,-4.1085,-4.1108,-4.1108,-4.1205,-4.1677,-4.2522,-4.3685,-4.4218,-4.5156,-4.6191,-4.6289,-4.6289,-4.6289,-4.6289,-4.6289,-4.6289,-4.6289,-4.6289,-4.6289,-4.6289,-4.6289,-4.6289,-4.6289,-4.6289,-4.6289,-4.6289,-4.6289,-4.6289,-4.6289,-4.6289,-4.6289,-4.6289,-4.6289,-4.6289,-4.6289,-4.6289,-4.6289,-4.6289,-4.6289,-4.6289,-4.6289,-4.6289,-4.6289,-4.6289,-4.6289,-4.6306,-4.6305,-4.6289,-4.6289,-4.6289,-4.6289,-4.6287,-4.6297,-4.6306,-4.6306,-4.629,-4.6295,-4.6295,-4.6295,-4.6297,-4.6303,-4.6289,-4.6301,-4.6297,-4.629,-4.6303,-4.629,-4.6295,-4.6295,-4.6295,-4.6293,-4.6293,-4.629,-4.6287,-4.628,-4.6273,-4.6249,-4.6249,-4.6249,-4.6249,-4.6273,-4.6261,-4.6267,-4.6295,-4.6301,-4.6289,-4.6289,-4.6289,-4.6289,-4.6289,-4.6288,-4.6288,-4.6289,-4.6289,-4.6289,-4.6289,-4.6289,-4.6289,-4.6289,-4.6289,-4.6289,-4.6289,-4.6289,-4.6289,-4.6289,-4.6289,-4.6288,-4.6289,-4.6289,-4.6289,-4.6289,-4.1003,-4.1019,-4.1086,-4.1094,-4.1111,-4.1111,-4.1108,-4.1111,-4.1172,-4.2023,-4.3379,-4.3691,-4.4648,-4.582,-4.6172,-4.6289,-4.6289,-4.6289,-4.6289,-4.6289,-4.6289,-4.6289,-4.6289,-4.6289,-4.6289,-4.6289,-4.6289,-4.6289,-4.6289,-4.6289,-4.6289,-4.6289,-4.6289,-4.6289,-4.6289,-4.6289,-4.6289,-4.6289,-4.6289,-4.6289,-4.6289,-4.6289,-4.6289,-4.6289,-4.6289,-4.6289,-4.6289,-4.6289,-4.6306,-4.6295,-4.6306,-4.6287,-4.6293,-4.6301,-4.6303,-4.6301,-4.6306,-4.63,-4.6296,-4.6277,-4.6277,-4.6277,-4.63,-4.628,-4.6267,-4.6293,-4.6287,-4.6287,-4.6277,-4.6273,-4.6257,-4.6257,-4.6261,-4.6261,-4.6261,-4.6257,-4.6273,-4.6249,-4.6245,-4.624,-4.6236,-4.6216,-4.6216,-4.624,-4.624,-4.6221,-4.6249,-4.628,-4.6287,-4.6276,-4.6293,-4.6287,-4.6295,-4.63,-4.63,-4.6301,-4.63,-4.6289,-4.6306,-4.6289,-4.6289,-4.6289,-4.6289,-4.6289,-4.6289,-4.6289,-4.6289,-4.6289,-4.6289,-4.6289,-4.6303,-4.629,-4.6293,-4.6303,-4.6289,-4.1037,-4.1081,-4.1097,-4.1099,-4.1111,-4.1099,-4.113,-4.1169,-4.1187,-4.1738,-4.2695,-4.3437,-4.4297,-4.5332,-4.6074,-4.6289,-4.6289,-4.6289,-4.6289,-4.6289,-4.6289,-4.6289,-4.6289,-4.6289,-4.6289,-4.6289,-4.6289,-4.6289,-4.6289,-4.6289,-4.6289,-4.6289,-4.6289,-4.6289,-4.6289,-4.6289,-4.6289,-4.6289,-4.6289,-4.6289,-4.6289,-4.6289,-4.6289,-4.6289,-4.6306,-4.6297,-4.6297,-4.6301,-4.6301,-4.6297,-4.6297,-4.6293,-4.6303,-4.629,-4.629,-4.6303,-4.6292,-4.6284,-4.6264,-4.624,-4.624,-4.6236,-4.6236,-4.6216,-4.6221,-4.6264,-4.6284,-4.6264,-4.6264,-4.624,-4.6236,-4.6236,-4.624,-4.624,-4.624,-4.6236,-4.6231,-4.6206,-4.6206,-4.6206,-4.6201,-4.6201,-4.6201,-4.6201,-4.6206,-4.6211,-4.6211,-4.6221,-4.6225,-4.6238,-4.6253,-4.6269,-4.63,-4.6287,-4.6287,-4.6287,-4.6287,-4.629,-4.6295,-4.63,-4.6305,-4.6305,-4.6305,-4.6305,-4.6289,-4.6305,-4.6305,-4.6289,-4.6289,-4.6303,-4.63,-4.6306,-4.63,-4.629,-4.6297,-4.107,-4.1113,-4.1104,-4.1103,-4.1113,-4.1129,-4.1164,-4.1187,-4.1191,-4.1445,-4.2031,-4.3125,-4.418,-4.5039,-4.5898,-4.6289,-4.6289,-4.6289,-4.6289,-4.6289,-4.6289,-4.6289,-4.6289,-4.6289,-4.6289,-4.6289,-4.6289,-4.6289,-4.6289,-4.6289,-4.6289,-4.6289,-4.6289,-4.6289,-4.6289,-4.6287,-4.6305,-4.6289,-4.6306,-4.6287,-4.6287,-4.6289,-4.6289,-4.6289,-4.63,-4.6287,-4.6303,-4.629,-4.6293,-4.6293,-4.6287,-4.628,-4.6269,-4.6253,-4.6249,-4.6245,-4.6255,-4.6265,-4.6245,-4.622,-4.6195,-4.6195,-4.6209,-4.6209,-4.6183,-4.6228,-4.622,-4.622,-4.6231,-4.6211,-4.622,-4.622,-4.622,-4.6226,-4.6215,-4.6203,-4.617,-4.6157,-4.6157,-4.615,-4.615,-4.615,-4.615,-4.615,-4.6157,-4.6157,-4.6164,-4.6164,-4.6176,-4.6181,-4.622,-4.622,-4.625,-4.6264,-4.6249,-4.6249,-4.6249,-4.6269,-4.6296,-4.6303,-4.6295,-4.6295,-4.6295,-4.6295,-4.6293,-4.6295,-4.6295,-4.6293,-4.6293,-4.6293,-4.6287,-4.63,-4.6296,-4.6292,-4.6277,-4.1101,-4.1113,-4.1104,-4.1103,-4.1113,-4.1191,-4.1191,-4.1191,-4.1191,-4.1191,-4.1465,-4.2851,-4.3984,-4.4883,-4.5703,-4.6055,-4.6269,-4.6289,-4.6289,-4.6289,-4.6289,-4.6289,-4.6289,-4.6289,-4.6289,-4.6289,-4.6289,-4.6289,-4.6289,-4.6289,-4.6289,-4.6289,-4.6289,-4.6289,-4.6287,-4.6301,-4.629,-4.6293,-4.6295,-4.63,-4.6295,-4.629,-4.6293,-4.6297,-4.63,-4.6293,-4.6303,-4.63,-4.63,-4.6273,-4.6264,-4.6255,-4.6231,-4.6226,-4.6226,-4.622,-4.6209,-4.6209,-4.6189,-4.6177,-4.6177,-4.619,-4.6196,-4.6189,-4.6162,-4.615,-4.6157,-4.6144,-4.6164,-4.6189,-4.6177,-4.619,-4.6196,-4.617,-4.615,-4.6135,-4.6119,-4.6102,-4.6093,-4.6093,-4.6093,-4.6093,-4.6093,-4.6093,-4.6093,-4.6093,-4.6102,-4.6088,-4.6096,-4.6123,-4.6162,-4.6169,-4.6183,-4.6196,-4.6201,-4.6206,-4.6226,-4.6236,-4.6245,-4.6273,-4.6296,-4.6277,-4.6257,-4.6277,-4.6277,-4.6277,-4.6277,-4.6277,-4.6277,-4.6277,-4.6273,-4.6269,-4.6264,-4.6255,-4.6231,-4.1108,-4.1104,-4.1108,-4.1125,-4.1172,-4.1191,-4.1191,-4.1191,-4.1191,-4.1191,-4.1426,-4.2148,-4.3125,-4.3984,-4.4863,-4.5547,-4.6289,-4.6289,-4.6289,-4.6289,-4.6289,-4.6289,-4.6289,-4.6289,-4.6289,-4.6289,-4.6289,-4.6289,-4.6289,-4.6301,-4.6293,-4.6293,-4.6303,-4.6303,-4.6303,-4.6295,-4.629,-4.6306,-4.63,-4.6306,-4.6306,-4.6303,-4.6303,-4.6306,-4.6303,-4.6296,-4.6288,-4.6308,-4.626,-4.6231,-4.622,-4.6209,-4.6203,-4.6196,-4.619,-4.6164,-4.615,-4.6123,-4.6123,-4.6127,-4.6119,-4.6119,-4.6122,-4.6113,-4.6084,-4.6095,-4.6084,-4.6056,-4.6074,-4.6119,-4.6111,-4.6111,-4.6119,-4.6093,-4.6066,-4.6056,-4.6037,-4.6037,-4.6017,-4.6037,-4.6037,-4.6037,-4.6037,-4.6037,-4.6037,-4.6037,-4.6037,-4.6018,-4.6018,-4.6066,-4.6085,-4.6104,-4.6113,-4.6162,-4.6183,-4.6183,-4.6183,-4.6201,-4.6206,-4.6231,-4.6231,-4.6216,-4.6216,-4.6236,-4.6236,-4.6236,-4.6236,-4.6255,-4.6236,-4.6236,-4.6236,-4.6211,-4.6226,-4.622,-4.6183]}]]